Time,TemperatureF,DewpointF,PressureIn,WindDirection,WindDirectionDegrees,WindSpeedMPH,WindSpeedGustMPH,Humidity,HourlyPrecipIn,Conditions,Clouds,dailyrainin,SoftwareType,DateUTC
2013-04-27 00:00:00,45.1,14.0,29.97,SSW,202,0.0,0.0,28,0.00,,,0.00,VWS V14.01,2013-04-27 05:00:00,
2013-04-27 00:01:00,45.1,14.0,29.97,SSW,202,0.0,0.0,28,0.00,,,0.00,VWS V14.01,2013-04-27 05:01:00,
2013-04-27 00:02:00,45.1,14.0,29.97,SSW,202,0.0,0.0,28,0.00,,,0.00,VWS V14.01,2013-04-27 05:02:00,
2013-04-27 00:03:00,45.0,13.8,29.97,SSW,202,0.0,0.0,28,0.00,,,0.00,VWS V14.01,2013-04-27 05:03:00,
2013-04-27 00:04:00,45.0,13.8,29.97,SSW,202,0.0,0.0,28,0.00,,,0.00,VWS V14.01,2013-04-27 05:04:00,
2013-04-27 00:05:00,44.8,13.7,29.97,SSW,202,0.0,0.0,28,0.00,,,0.00,VWS V14.01,2013-04-27 05:05:00,
2013-04-27 00:06:00,44.8,13.7,29.97,SSW,202,0.0,0.0,28,0.00,,,0.00,VWS V14.01,2013-04-27 05:06:00,
2013-04-27 00:07:00,44.6,13.5,29.97,SSW,202,0.0,0.0,28,0.00,,,0.00,VWS V14.01,2013-04-27 05:07:00,
2013-04-27 00:08:00,44.6,13.5,29.97,SSW,202,0.0,0.0,28,0.00,,,0.00,VWS V14.01,2013-04-27 05:08:00,
2013-04-27 00:09:00,44.6,13.5,29.97,SSW,202,0.0,0.0,28,0.00,,,0.00,VWS V14.01,2013-04-27 05:09:00,
2013-04-27 00:10:00,44.6,13.5,29.97,SSW,202,0.0,0.0,28,0.00,,,0.00,VWS V14.01,2013-04-27 05:10:00,
2013-04-27 00:11:00,44.4,14.2,29.94,SSW,202,0.0,0.0,29,0.00,,,0.00,VWS V14.01,2013-04-27 05:11:00,
2013-04-27 00:12:00,44.2,14.0,29.94,SSW,202,0.0,0.0,29,0.00,,,0.00,VWS V14.01,2013-04-27 05:12:00,
2013-04-27 00:13:00,44.2,14.0,29.94,SSW,202,0.0,0.0,29,0.00,,,0.00,VWS V14.01,2013-04-27 05:13:00,
2013-04-27 00:14:00,44.2,14.0,29.94,SSW,202,0.0,0.0,29,0.00,,,0.00,VWS V14.01,2013-04-27 05:14:00,
2013-04-27 00:15:00,44.2,14.0,29.94,SSW,202,0.0,0.0,29,0.00,,,0.00,VWS V14.01,2013-04-27 05:15:00,
2013-04-27 00:16:00,44.4,14.2,29.94,SSW,202,0.0,0.0,29,0.00,,,0.00,VWS V14.01,2013-04-27 05:16:00,
2013-04-27 00:17:00,44.2,14.0,29.94,SSW,202,0.0,0.0,29,0.00,,,0.00,VWS V14.01,2013-04-27 05:17:00,
2013-04-27 00:18:00,44.2,14.0,29.94,SSW,202,0.0,0.0,29,0.00,,,0.00,VWS V14.01,2013-04-27 05:18:00,
2013-04-27 00:19:00,44.2,14.0,29.94,SSW,202,0.0,0.0,29,0.00,,,0.00,VWS V14.01,2013-04-27 05:19:00,
2013-04-27 00:20:00,44.2,14.0,29.94,SSW,202,0.0,0.0,29,0.00,,,0.00,VWS V14.01,2013-04-27 05:20:00,
2013-04-27 00:21:00,44.2,14.0,29.94,SSW,202,0.0,0.0,29,0.00,,,0.00,VWS V14.01,2013-04-27 05:21:00,
2013-04-27 00:22:00,44.2,14.0,29.94,SSW,202,0.0,0.0,29,0.00,,,0.00,VWS V14.01,2013-04-27 05:22:00,
2013-04-27 00:23:00,44.2,14.0,29.94,SSW,202,0.0,0.0,29,0.00,,,0.00,VWS V14.01,2013-04-27 05:23:00,
2013-04-27 00:24:00,44.4,14.2,29.94,SW,225,0.0,0.0,29,0.00,,,0.00,VWS V14.01,2013-04-27 05:24:00,
2013-04-27 00:25:00,44.4,14.2,29.94,SW,225,0.0,0.0,29,0.00,,,0.00,VWS V14.01,2013-04-27 05:25:00,
2013-04-27 00:26:00,44.4,14.2,29.94,SW,225,0.0,0.0,29,0.00,,,0.00,VWS V14.01,2013-04-27 05:26:00,
2013-04-27 00:27:00,44.2,14.0,29.94,SW,225,0.0,0.0,29,0.00,,,0.00,VWS V14.01,2013-04-27 05:27:00,
2013-04-27 00:28:00,44.2,14.0,29.94,SW,225,0.0,0.0,29,0.00,,,0.00,VWS V14.01,2013-04-27 05:28:00,
2013-04-27 00:29:00,44.2,14.0,29.94,SW,225,0.0,0.0,29,0.00,,,0.00,VWS V14.01,2013-04-27 05:29:00,
2013-04-27 00:30:00,44.2,14.0,29.94,SW,225,0.0,0.0,29,0.00,,,0.00,VWS V14.01,2013-04-27 05:30:00,
2013-04-27 00:31:00,44.1,13.9,29.94,SW,225,0.0,0.0,29,0.00,,,0.00,VWS V14.01,2013-04-27 05:31:00,
2013-04-27 00:32:00,44.1,13.9,29.94,SW,225,0.0,0.0,29,0.00,,,0.00,VWS V14.01,2013-04-27 05:32:00,
2013-04-27 00:33:00,44.1,13.9,29.94,SW,225,0.0,0.0,29,0.00,,,0.00,VWS V14.01,2013-04-27 05:33:00,
2013-04-27 00:34:00,43.7,13.5,29.94,SW,225,0.0,0.0,29,0.00,,,0.00,VWS V14.01,2013-04-27 05:34:00,
2013-04-27 00:35:00,43.7,13.5,29.94,SW,225,0.0,0.0,29,0.00,,,0.00,VWS V14.01,2013-04-27 05:35:00,
2013-04-27 00:36:00,43.5,13.4,29.94,SW,225,0.0,0.0,29,0.00,,,0.00,VWS V14.01,2013-04-27 05:36:00,
2013-04-27 00:37:00,43.3,13.2,29.94,SW,225,0.0,0.0,29,0.00,,,0.00,VWS V14.01,2013-04-27 05:37:00,
2013-04-27 00:38:00,43.3,13.2,29.94,SW,225,0.0,0.0,29,0.00,,,0.00,VWS V14.01,2013-04-27 05:38:00,
2013-04-27 00:39:00,43.2,13.1,29.94,SW,225,0.0,0.0,29,0.00,,,0.00,VWS V14.01,2013-04-27 05:39:00,
2013-04-27 00:40:00,43.2,13.1,29.94,SW,225,0.0,0.0,29,0.00,,,0.00,VWS V14.01,2013-04-27 05:40:00,
2013-04-27 00:41:00,43.2,13.1,29.94,SW,225,0.0,0.0,29,0.00,,,0.00,VWS V14.01,2013-04-27 05:41:00,
2013-04-27 00:42:00,43.0,12.9,29.94,SW,225,0.0,0.0,29,0.00,,,0.00,VWS V14.01,2013-04-27 05:42:00,
2013-04-27 00:43:00,43.0,12.9,29.94,SW,225,0.0,0.0,29,0.00,,,0.00,VWS V14.01,2013-04-27 05:43:00,
2013-04-27 00:44:00,43.0,12.9,29.94,SW,225,0.0,0.0,29,0.00,,,0.00,VWS V14.01,2013-04-27 05:44:00,
2013-04-27 00:45:00,43.0,13.7,29.94,SW,225,0.0,0.0,30,0.00,,,0.00,VWS V14.01,2013-04-27 05:45:00,
2013-04-27 00:46:00,42.8,13.5,29.94,SW,225,0.0,0.0,30,0.00,,,0.00,VWS V14.01,2013-04-27 05:46:00,
2013-04-27 00:47:00,42.8,13.5,29.94,SW,225,0.0,0.0,30,0.00,,,0.00,VWS V14.01,2013-04-27 05:47:00,
2013-04-27 00:48:00,42.8,13.5,29.94,SW,225,0.0,0.0,30,0.00,,,0.00,VWS V14.01,2013-04-27 05:48:00,
2013-04-27 00:49:00,42.8,13.5,29.94,SW,225,0.0,0.0,30,0.00,,,0.00,VWS V14.01,2013-04-27 05:49:00,
2013-04-27 00:50:00,42.8,13.5,29.94,SW,225,0.0,0.0,30,0.00,,,0.00,VWS V14.01,2013-04-27 05:50:00,
2013-04-27 00:51:00,42.8,13.5,29.94,SW,225,0.0,0.0,30,0.00,,,0.00,VWS V14.01,2013-04-27 05:51:00,
2013-04-27 00:52:00,42.6,13.4,29.94,SW,225,0.0,0.0,30,0.00,,,0.00,VWS V14.01,2013-04-27 05:52:00,
2013-04-27 00:53:00,42.6,13.4,29.94,SW,225,0.0,0.0,30,0.00,,,0.00,VWS V14.01,2013-04-27 05:53:00,
2013-04-27 00:54:00,42.6,13.4,29.94,SW,225,0.0,0.0,30,0.00,,,0.00,VWS V14.01,2013-04-27 05:54:00,
2013-04-27 00:55:00,42.6,13.4,29.94,SW,225,0.0,0.0,30,0.00,,,0.00,VWS V14.01,2013-04-27 05:55:00,
2013-04-27 00:56:00,42.6,14.1,29.94,SW,225,0.0,0.0,31,0.00,,,0.00,VWS V14.01,2013-04-27 05:56:00,
2013-04-27 00:57:00,42.6,14.1,29.94,SW,225,0.0,0.0,31,0.00,,,0.00,VWS V14.01,2013-04-27 05:57:00,
2013-04-27 00:58:00,42.6,14.1,29.94,SW,225,0.0,0.0,31,0.00,,,0.00,VWS V14.01,2013-04-27 05:58:00,
2013-04-27 00:59:00,42.6,14.1,29.94,SW,225,0.0,0.0,31,0.00,,,0.00,VWS V14.01,2013-04-27 05:59:00,
2013-04-27 01:00:00,42.8,13.5,29.94,SW,225,0.0,0.0,30,0.00,,,0.00,VWS V14.01,2013-04-27 06:00:00,
2013-04-27 01:01:00,42.8,13.5,29.94,SW,225,0.0,0.0,30,0.00,,,0.00,VWS V14.01,2013-04-27 06:01:00,
2013-04-27 01:02:00,42.8,13.5,29.94,SW,225,0.0,0.0,30,0.00,,,0.00,VWS V14.01,2013-04-27 06:02:00,
2013-04-27 01:03:00,42.8,14.3,29.94,SW,225,0.0,0.0,31,0.00,,,0.00,VWS V14.01,2013-04-27 06:03:00,
2013-04-27 01:04:00,42.8,14.3,29.94,SW,225,0.0,0.0,31,0.00,,,0.00,VWS V14.01,2013-04-27 06:04:00,
2013-04-27 01:05:00,42.8,14.3,29.94,SW,225,0.0,0.0,31,0.00,,,0.00,VWS V14.01,2013-04-27 06:05:00,
2013-04-27 01:06:00,42.6,14.1,29.94,SW,225,0.0,0.0,31,0.00,,,0.00,VWS V14.01,2013-04-27 06:06:00,
2013-04-27 01:07:00,42.6,14.1,29.94,SW,225,0.0,0.0,31,0.00,,,0.00,VWS V14.01,2013-04-27 06:07:00,
2013-04-27 01:08:00,42.6,14.1,29.94,SW,225,0.0,0.0,31,0.00,,,0.00,VWS V14.01,2013-04-27 06:08:00,
2013-04-27 01:09:00,42.6,14.1,29.94,SW,225,0.0,0.0,31,0.00,,,0.00,VWS V14.01,2013-04-27 06:09:00,
2013-04-27 01:10:00,42.4,14.0,29.94,SW,225,0.0,0.0,31,0.00,,,0.00,VWS V14.01,2013-04-27 06:10:00,
2013-04-27 01:11:00,42.4,14.0,29.94,SW,225,0.0,0.0,31,0.00,,,0.00,VWS V14.01,2013-04-27 06:11:00,
2013-04-27 01:12:00,42.3,13.8,29.94,SW,225,0.0,0.0,31,0.00,,,0.00,VWS V14.01,2013-04-27 06:12:00,
2013-04-27 01:13:00,42.3,13.8,29.94,SW,225,0.0,0.0,31,0.00,,,0.00,VWS V14.01,2013-04-27 06:13:00,
2013-04-27 01:14:00,42.3,13.8,29.94,SW,225,0.0,0.0,31,0.00,,,0.00,VWS V14.01,2013-04-27 06:14:00,
2013-04-27 01:15:00,42.3,14.5,29.94,SW,225,0.0,0.0,32,0.00,,,0.00,VWS V14.01,2013-04-27 06:15:00,
2013-04-27 01:16:00,42.3,13.8,29.94,SW,225,0.0,0.0,31,0.00,,,0.00,VWS V14.01,2013-04-27 06:16:00,
2013-04-27 01:17:00,42.3,14.5,29.94,SW,225,0.0,0.0,32,0.00,,,0.00,VWS V14.01,2013-04-27 06:17:00,
2013-04-27 01:18:00,42.3,14.5,29.94,SW,225,0.0,0.0,32,0.00,,,0.00,VWS V14.01,2013-04-27 06:18:00,
2013-04-27 01:19:00,42.1,14.4,29.94,SW,225,0.0,0.0,32,0.00,,,0.00,VWS V14.01,2013-04-27 06:19:00,
2013-04-27 01:20:00,42.1,14.4,29.94,SW,225,0.0,0.0,32,0.00,,,0.00,VWS V14.01,2013-04-27 06:20:00,
2013-04-27 01:21:00,42.1,14.4,29.94,SW,225,0.0,0.0,32,0.00,,,0.00,VWS V14.01,2013-04-27 06:21:00,
2013-04-27 01:22:00,41.9,14.2,29.94,SSW,202,0.0,0.0,32,0.00,,,0.00,VWS V14.01,2013-04-27 06:22:00,
2013-04-27 01:23:00,41.9,14.2,29.94,SSW,202,0.0,0.0,32,0.00,,,0.00,VWS V14.01,2013-04-27 06:23:00,
2013-04-27 01:24:00,41.7,14.1,29.94,SSW,202,0.0,0.0,32,0.00,,,0.00,VWS V14.01,2013-04-27 06:24:00,
2013-04-27 01:25:00,41.7,14.1,29.94,SSW,202,0.0,0.0,32,0.00,,,0.00,VWS V14.01,2013-04-27 06:25:00,
2013-04-27 01:26:00,41.7,14.8,29.94,SSW,202,0.0,0.0,33,0.00,,,0.00,VWS V14.01,2013-04-27 06:26:00,
2013-04-27 01:27:00,41.7,14.8,29.94,SSW,202,0.0,0.0,33,0.00,,,0.00,VWS V14.01,2013-04-27 06:27:00,
2013-04-27 01:28:00,41.5,14.6,29.94,SSW,202,2.7,2.7,33,0.00,,,0.00,VWS V14.01,2013-04-27 06:28:00,
2013-04-27 01:29:00,41.5,14.6,29.94,SSW,202,3.4,3.4,33,0.00,,,0.00,VWS V14.01,2013-04-27 06:29:00,
2013-04-27 01:30:00,41.5,15.3,29.94,SSW,202,3.4,3.4,34,0.00,,,0.00,VWS V14.01,2013-04-27 06:30:00,
2013-04-27 01:31:00,41.5,15.3,29.94,SSW,202,2.7,2.7,34,0.00,,,0.00,VWS V14.01,2013-04-27 06:31:00,
2013-04-27 01:32:00,41.4,15.1,29.94,SSW,202,0.0,1.1,34,0.00,,,0.00,VWS V14.01,2013-04-27 06:32:00,
2013-04-27 01:33:00,41.4,14.4,29.94,SSW,202,0.0,0.9,33,0.00,,,0.00,VWS V14.01,2013-04-27 06:33:00,
2013-04-27 01:34:00,41.4,14.4,29.94,SSW,202,0.0,0.0,33,0.00,,,0.00,VWS V14.01,2013-04-27 06:34:00,
2013-04-27 01:35:00,41.4,14.4,29.94,SSW,202,0.0,0.0,33,0.00,,,0.00,VWS V14.01,2013-04-27 06:35:00,
2013-04-27 01:36:00,41.5,14.6,29.94,SSW,202,0.0,0.0,33,0.00,,,0.00,VWS V14.01,2013-04-27 06:36:00,
2013-04-27 01:37:00,41.5,14.6,29.94,SSW,202,0.0,0.0,33,0.00,,,0.00,VWS V14.01,2013-04-27 06:37:00,
2013-04-27 01:38:00,41.5,14.6,29.94,SSW,202,0.0,0.0,33,0.00,,,0.00,VWS V14.01,2013-04-27 06:38:00,
2013-04-27 01:39:00,41.5,14.6,29.94,SSW,202,0.0,0.0,33,0.00,,,0.00,VWS V14.01,2013-04-27 06:39:00,
2013-04-27 01:40:00,41.5,14.6,29.94,SSW,202,0.0,0.0,33,0.00,,,0.00,VWS V14.01,2013-04-27 06:40:00,
2013-04-27 01:41:00,41.4,14.4,29.91,SSW,202,0.0,0.0,33,0.00,,,0.00,VWS V14.01,2013-04-27 06:41:00,
2013-04-27 01:42:00,41.4,15.1,29.91,SSW,202,0.0,0.0,34,0.00,,,0.00,VWS V14.01,2013-04-27 06:42:00,
2013-04-27 01:43:00,41.4,15.1,29.91,SSW,202,0.0,0.0,34,0.00,,,0.00,VWS V14.01,2013-04-27 06:43:00,
2013-04-27 01:44:00,41.4,15.1,29.91,SW,225,0.0,0.0,34,0.00,,,0.00,VWS V14.01,2013-04-27 06:44:00,
2013-04-27 01:45:00,41.4,15.1,29.91,SW,225,0.0,0.0,34,0.00,,,0.00,VWS V14.01,2013-04-27 06:45:00,
2013-04-27 01:46:00,41.4,14.4,29.91,SW,225,0.0,0.0,33,0.00,,,0.00,VWS V14.01,2013-04-27 06:46:00,
2013-04-27 01:47:00,41.2,15.0,29.91,SW,225,0.0,0.0,34,0.00,,,0.00,VWS V14.01,2013-04-27 06:47:00,
2013-04-27 01:48:00,41.2,15.0,29.91,SW,225,0.0,0.0,34,0.00,,,0.00,VWS V14.01,2013-04-27 06:48:00,
2013-04-27 01:49:00,41.2,15.0,29.91,SW,225,0.0,0.0,34,0.00,,,0.00,VWS V14.01,2013-04-27 06:49:00,
2013-04-27 01:50:00,41.0,15.5,29.91,SW,225,0.0,0.0,35,0.00,,,0.00,VWS V14.01,2013-04-27 06:50:00,
2013-04-27 01:51:00,41.0,15.5,29.91,SW,225,0.0,0.0,35,0.00,,,0.00,VWS V14.01,2013-04-27 06:51:00,
2013-04-27 01:52:00,40.8,15.9,29.91,SW,225,0.0,0.0,36,0.00,,,0.00,VWS V14.01,2013-04-27 06:52:00,
2013-04-27 01:53:00,40.6,15.8,29.91,SW,225,0.0,0.0,36,0.00,,,0.00,VWS V14.01,2013-04-27 06:53:00,
2013-04-27 01:54:00,40.6,15.8,29.91,SSW,202,0.0,0.0,36,0.00,,,0.00,VWS V14.01,2013-04-27 06:54:00,
2013-04-27 01:55:00,40.5,15.6,29.91,SSW,202,0.0,0.0,36,0.00,,,0.00,VWS V14.01,2013-04-27 06:55:00,
2013-04-27 01:56:00,40.5,15.6,29.94,SSW,202,0.0,0.0,36,0.00,,,0.00,VWS V14.01,2013-04-27 06:56:00,
2013-04-27 01:57:00,40.3,15.5,29.94,SSW,202,0.0,0.0,36,0.00,,,0.00,VWS V14.01,2013-04-27 06:57:00,
2013-04-27 01:58:00,40.3,15.5,29.94,SSW,202,0.0,0.0,36,0.00,,,0.00,VWS V14.01,2013-04-27 06:58:00,
2013-04-27 01:59:00,40.1,15.3,29.94,SSW,202,0.0,0.0,36,0.00,,,0.00,VWS V14.01,2013-04-27 06:59:00,
2013-04-27 02:00:00,40.1,15.3,29.94,SSW,202,0.0,0.0,36,0.00,,,0.00,VWS V14.01,2013-04-27 07:00:00,
2013-04-27 02:01:00,40.1,15.3,29.94,SSW,202,0.0,0.0,36,0.00,,,0.00,VWS V14.01,2013-04-27 07:01:00,
2013-04-27 02:02:00,39.9,15.1,29.94,SSW,202,0.0,0.0,36,0.00,,,0.00,VWS V14.01,2013-04-27 07:02:00,
2013-04-27 02:03:00,39.9,15.1,29.94,SSW,202,0.0,0.0,36,0.00,,,0.00,VWS V14.01,2013-04-27 07:03:00,
2013-04-27 02:04:00,39.7,15.6,29.94,SSW,202,0.0,0.0,37,0.00,,,0.00,VWS V14.01,2013-04-27 07:04:00,
2013-04-27 02:05:00,39.6,15.4,29.94,SSW,202,0.0,0.0,37,0.00,,,0.00,VWS V14.01,2013-04-27 07:05:00,
2013-04-27 02:06:00,39.6,15.4,29.94,SSW,202,0.0,0.0,37,0.00,,,0.00,VWS V14.01,2013-04-27 07:06:00,
2013-04-27 02:07:00,39.4,15.3,29.94,SSW,202,0.0,0.0,37,0.00,,,0.00,VWS V14.01,2013-04-27 07:07:00,
2013-04-27 02:08:00,39.4,15.3,29.94,SSW,202,0.0,0.0,37,0.00,,,0.00,VWS V14.01,2013-04-27 07:08:00,
2013-04-27 02:09:00,39.4,15.3,29.94,SSW,202,0.0,0.0,37,0.00,,,0.00,VWS V14.01,2013-04-27 07:09:00,
2013-04-27 02:10:00,39.4,15.3,29.94,SW,225,0.0,0.0,37,0.00,,,0.00,VWS V14.01,2013-04-27 07:10:00,
2013-04-27 02:11:00,39.4,15.3,29.94,SW,225,0.0,0.0,37,0.00,,,0.00,VWS V14.01,2013-04-27 07:11:00,
2013-04-27 02:12:00,39.4,15.3,29.94,SW,225,0.0,0.0,37,0.00,,,0.00,VWS V14.01,2013-04-27 07:12:00,
2013-04-27 02:13:00,39.4,15.3,29.94,SW,225,0.0,0.0,37,0.00,,,0.00,VWS V14.01,2013-04-27 07:13:00,
2013-04-27 02:14:00,39.4,15.3,29.94,SW,225,0.0,0.0,37,0.00,,,0.00,VWS V14.01,2013-04-27 07:14:00,
2013-04-27 02:15:00,39.4,15.3,29.94,SW,225,0.0,0.0,37,0.00,,,0.00,VWS V14.01,2013-04-27 07:15:00,
2013-04-27 02:16:00,39.6,16.1,29.94,SW,225,0.0,0.0,38,0.00,,,0.00,VWS V14.01,2013-04-27 07:16:00,
2013-04-27 02:17:00,39.6,16.1,29.94,SW,225,0.0,0.0,38,0.00,,,0.00,VWS V14.01,2013-04-27 07:17:00,
2013-04-27 02:18:00,39.6,16.1,29.94,SW,225,0.0,0.0,38,0.00,,,0.00,VWS V14.01,2013-04-27 07:18:00,
2013-04-27 02:19:00,39.6,16.1,29.94,SW,225,0.0,0.0,38,0.00,,,0.00,VWS V14.01,2013-04-27 07:19:00,
2013-04-27 02:20:00,39.6,16.1,29.94,SW,225,0.0,0.0,38,0.00,,,0.00,VWS V14.01,2013-04-27 07:20:00,
2013-04-27 02:21:00,39.4,15.9,29.94,SW,225,0.0,0.0,38,0.00,,,0.00,VWS V14.01,2013-04-27 07:21:00,
2013-04-27 02:22:00,39.4,15.9,29.94,SW,225,0.0,0.0,38,0.00,,,0.00,VWS V14.01,2013-04-27 07:22:00,
2013-04-27 02:23:00,39.4,15.9,29.94,SW,225,0.0,0.0,38,0.00,,,0.00,VWS V14.01,2013-04-27 07:23:00,
2013-04-27 02:24:00,39.4,15.9,29.94,SW,225,0.0,0.0,38,0.00,,,0.00,VWS V14.01,2013-04-27 07:24:00,
2013-04-27 02:25:00,39.4,15.9,29.94,SW,225,0.0,0.0,38,0.00,,,0.00,VWS V14.01,2013-04-27 07:25:00,
2013-04-27 02:26:00,39.4,15.9,29.91,SW,225,0.0,0.0,38,0.00,,,0.00,VWS V14.01,2013-04-27 07:26:00,
2013-04-27 02:27:00,39.4,15.9,29.91,SW,225,0.0,0.0,38,0.00,,,0.00,VWS V14.01,2013-04-27 07:27:00,
2013-04-27 02:28:00,39.2,15.7,29.91,SW,225,0.0,0.0,38,0.00,,,0.00,VWS V14.01,2013-04-27 07:28:00,
2013-04-27 02:29:00,39.2,16.3,29.91,SW,225,0.0,0.0,39,0.00,,,0.00,VWS V14.01,2013-04-27 07:29:00,
2013-04-27 02:30:00,39.2,16.3,29.91,SW,225,0.0,0.0,39,0.00,,,0.00,VWS V14.01,2013-04-27 07:30:00,
2013-04-27 02:31:00,39.2,15.7,29.91,SW,225,0.0,0.0,38,0.00,,,0.00,VWS V14.01,2013-04-27 07:31:00,
2013-04-27 02:32:00,39.2,16.3,29.91,SSW,202,0.0,0.0,39,0.00,,,0.00,VWS V14.01,2013-04-27 07:32:00,
2013-04-27 02:33:00,39.0,16.2,29.91,SSW,202,4.0,4.0,39,0.00,,,0.00,VWS V14.01,2013-04-27 07:33:00,
2013-04-27 02:34:00,39.0,16.2,29.91,SSW,202,4.0,4.0,39,0.00,,,0.00,VWS V14.01,2013-04-27 07:34:00,
2013-04-27 02:35:00,38.8,16.0,29.91,SSW,202,4.0,4.0,39,0.00,,,0.00,VWS V14.01,2013-04-27 07:35:00,
2013-04-27 02:36:00,38.8,16.0,29.91,SSW,202,0.0,1.3,39,0.00,,,0.00,VWS V14.01,2013-04-27 07:36:00,
2013-04-27 02:37:00,38.7,15.9,29.91,SSW,202,0.0,0.0,39,0.00,,,0.00,VWS V14.01,2013-04-27 07:37:00,
2013-04-27 02:38:00,38.7,15.9,29.91,SSW,202,0.0,0.0,39,0.00,,,0.00,VWS V14.01,2013-04-27 07:38:00,
2013-04-27 02:39:00,38.7,15.9,29.91,SSW,202,0.0,0.0,39,0.00,,,0.00,VWS V14.01,2013-04-27 07:39:00,
2013-04-27 02:40:00,38.7,15.9,29.91,SSW,202,0.0,0.0,39,0.00,,,0.00,VWS V14.01,2013-04-27 07:40:00,
2013-04-27 02:41:00,38.7,15.9,29.94,SSW,202,4.7,4.7,39,0.00,,,0.00,VWS V14.01,2013-04-27 07:41:00,
2013-04-27 02:42:00,38.7,15.9,29.94,SSW,202,3.4,3.4,39,0.00,,,0.00,VWS V14.01,2013-04-27 07:42:00,
2013-04-27 02:43:00,38.7,15.9,29.94,SSW,202,4.0,4.0,39,0.00,,,0.00,VWS V14.01,2013-04-27 07:43:00,
2013-04-27 02:44:00,38.7,15.9,29.94,SSW,202,0.0,1.3,39,0.00,,,0.00,VWS V14.01,2013-04-27 07:44:00,
2013-04-27 02:45:00,38.7,15.9,29.94,SSW,202,3.4,3.4,39,0.00,,,0.00,VWS V14.01,2013-04-27 07:45:00,
2013-04-27 02:46:00,38.5,15.7,29.94,SSW,202,3.4,3.4,39,0.00,,,0.00,VWS V14.01,2013-04-27 07:46:00,
2013-04-27 02:47:00,38.5,15.7,29.94,SSW,202,4.7,4.7,39,0.00,,,0.00,VWS V14.01,2013-04-27 07:47:00,
2013-04-27 02:48:00,38.5,15.7,29.94,SSW,202,4.7,4.7,39,0.00,,,0.00,VWS V14.01,2013-04-27 07:48:00,
2013-04-27 02:49:00,38.5,16.3,29.94,SSW,202,4.7,4.7,40,0.00,,,0.00,VWS V14.01,2013-04-27 07:49:00,
2013-04-27 02:50:00,38.5,16.3,29.94,SSW,202,3.4,3.4,40,0.00,,,0.00,VWS V14.01,2013-04-27 07:50:00,
2013-04-27 02:51:00,38.3,16.1,29.94,SSW,202,0.0,1.1,40,0.00,,,0.00,VWS V14.01,2013-04-27 07:51:00,
2013-04-27 02:52:00,38.1,15.9,29.94,SSW,202,0.0,0.0,40,0.00,,,0.00,VWS V14.01,2013-04-27 07:52:00,
2013-04-27 02:53:00,38.1,15.9,29.94,SSW,202,0.0,0.0,40,0.00,,,0.00,VWS V14.01,2013-04-27 07:53:00,
2013-04-27 02:54:00,38.1,15.9,29.94,SSW,202,0.0,0.0,40,0.00,,,0.00,VWS V14.01,2013-04-27 07:54:00,
2013-04-27 02:55:00,38.1,15.9,29.94,SSW,202,0.0,0.0,40,0.00,,,0.00,VWS V14.01,2013-04-27 07:55:00,
2013-04-27 02:56:00,38.1,16.5,29.94,SSW,202,4.7,4.7,41,0.00,,,0.00,VWS V14.01,2013-04-27 07:56:00,
2013-04-27 02:57:00,38.1,16.5,29.94,SSW,202,4.7,4.7,41,0.00,,,0.00,VWS V14.01,2013-04-27 07:57:00,
2013-04-27 02:58:00,38.1,15.9,29.94,SSW,202,4.0,4.0,40,0.00,,,0.00,VWS V14.01,2013-04-27 07:58:00,
2013-04-27 02:59:00,38.1,15.9,29.94,SSW,202,4.0,4.0,40,0.00,,,0.00,VWS V14.01,2013-04-27 07:59:00,
2013-04-27 03:00:00,38.1,16.5,29.94,SSW,202,4.0,4.0,41,0.00,,,0.00,VWS V14.01,2013-04-27 08:00:00,
2013-04-27 03:01:00,37.9,16.4,29.94,SSW,202,4.0,4.0,41,0.00,,,0.00,VWS V14.01,2013-04-27 08:01:00,
2013-04-27 03:02:00,37.9,16.4,29.94,SSW,202,3.4,3.4,41,0.00,,,0.00,VWS V14.01,2013-04-27 08:02:00,
2013-04-27 03:03:00,37.9,16.4,29.94,SSW,202,4.0,4.0,41,0.00,,,0.00,VWS V14.01,2013-04-27 08:03:00,
2013-04-27 03:04:00,38.1,16.5,29.94,SSW,202,4.0,4.0,41,0.00,,,0.00,VWS V14.01,2013-04-27 08:04:00,
2013-04-27 03:05:00,38.1,16.5,29.94,SSW,202,3.4,3.4,41,0.00,,,0.00,VWS V14.01,2013-04-27 08:05:00,
2013-04-27 03:06:00,37.9,16.4,29.94,SSW,202,0.0,1.3,41,0.00,,,0.00,VWS V14.01,2013-04-27 08:06:00,
2013-04-27 03:07:00,37.9,16.4,29.94,SSW,202,0.0,0.0,41,0.00,,,0.00,VWS V14.01,2013-04-27 08:07:00,
2013-04-27 03:08:00,38.1,16.5,29.94,SSW,202,0.0,0.0,41,0.00,,,0.00,VWS V14.01,2013-04-27 08:08:00,
2013-04-27 03:09:00,38.1,16.5,29.94,SSW,202,0.0,0.0,41,0.00,,,0.00,VWS V14.01,2013-04-27 08:09:00,
2013-04-27 03:10:00,38.1,16.5,29.94,SSW,202,0.0,0.0,41,0.00,,,0.00,VWS V14.01,2013-04-27 08:10:00,
2013-04-27 03:11:00,38.1,16.5,29.94,SSW,202,0.0,0.0,41,0.00,,,0.00,VWS V14.01,2013-04-27 08:11:00,
2013-04-27 03:12:00,38.1,16.5,29.94,SSW,202,0.0,0.0,41,0.00,,,0.00,VWS V14.01,2013-04-27 08:12:00,
2013-04-27 03:13:00,38.5,17.4,29.94,SSW,202,6.7,6.7,42,0.00,,,0.00,VWS V14.01,2013-04-27 08:13:00,
2013-04-27 03:14:00,38.7,17.6,29.94,SSW,202,4.0,4.0,42,0.00,,,0.00,VWS V14.01,2013-04-27 08:14:00,
2013-04-27 03:15:00,39.0,18.4,29.94,SSW,202,6.0,6.0,43,0.00,,,0.00,VWS V14.01,2013-04-27 08:15:00,
2013-04-27 03:16:00,39.2,18.6,29.94,SSW,202,6.7,6.7,43,0.00,,,0.00,VWS V14.01,2013-04-27 08:16:00,
2013-04-27 03:17:00,39.4,19.3,29.94,SSW,202,7.4,7.4,44,0.00,,,0.00,VWS V14.01,2013-04-27 08:17:00,
2013-04-27 03:18:00,39.6,19.5,29.94,SSW,202,7.4,7.4,44,0.00,,,0.00,VWS V14.01,2013-04-27 08:18:00,
2013-04-27 03:19:00,39.6,19.5,29.94,SSW,202,7.4,7.4,44,0.00,,,0.00,VWS V14.01,2013-04-27 08:19:00,
2013-04-27 03:20:00,39.6,18.9,29.94,SSW,202,6.7,6.7,43,0.00,,,0.00,VWS V14.01,2013-04-27 08:20:00,
2013-04-27 03:21:00,39.2,18.6,29.94,SSW,202,4.7,4.7,43,0.00,,,0.00,VWS V14.01,2013-04-27 08:21:00,
2013-04-27 03:22:00,39.2,18.6,29.94,SSW,202,6.0,6.0,43,0.00,,,0.00,VWS V14.01,2013-04-27 08:22:00,
2013-04-27 03:23:00,39.0,18.4,29.94,SSW,202,4.0,4.0,43,0.00,,,0.00,VWS V14.01,2013-04-27 08:23:00,
2013-04-27 03:24:00,38.8,18.3,29.94,SSW,202,0.0,1.6,43,0.00,,,0.00,VWS V14.01,2013-04-27 08:24:00,
2013-04-27 03:25:00,38.7,18.1,29.94,SSW,202,0.0,0.0,43,0.00,,,0.00,VWS V14.01,2013-04-27 08:25:00,
2013-04-27 03:26:00,38.7,17.6,29.94,SW,225,0.0,0.0,42,0.00,,,0.00,VWS V14.01,2013-04-27 08:26:00,
2013-04-27 03:27:00,38.7,17.6,29.94,SW,225,0.0,0.9,42,0.00,,,0.00,VWS V14.01,2013-04-27 08:27:00,
2013-04-27 03:28:00,38.5,17.4,29.94,SW,225,0.0,0.9,42,0.00,,,0.00,VWS V14.01,2013-04-27 08:28:00,
2013-04-27 03:29:00,38.5,17.4,29.94,SW,225,0.0,0.0,42,0.00,,,0.00,VWS V14.01,2013-04-27 08:29:00,
2013-04-27 03:30:00,38.5,17.4,29.94,SW,225,0.0,0.0,42,0.00,,,0.00,VWS V14.01,2013-04-27 08:30:00,
2013-04-27 03:31:00,38.7,17.6,29.94,SSW,202,2.7,2.7,42,0.00,,,0.00,VWS V14.01,2013-04-27 08:31:00,
2013-04-27 03:32:00,38.8,18.3,29.94,SSW,202,3.4,3.4,43,0.00,,,0.00,VWS V14.01,2013-04-27 08:32:00,
2013-04-27 03:33:00,39.2,18.6,29.94,SSW,202,4.7,4.7,43,0.00,,,0.00,VWS V14.01,2013-04-27 08:33:00,
2013-04-27 03:34:00,39.4,19.3,29.94,SSW,202,7.4,7.4,44,0.00,,,0.00,VWS V14.01,2013-04-27 08:34:00,
2013-04-27 03:35:00,39.6,19.5,29.94,SSW,202,6.0,6.0,44,0.00,,,0.00,VWS V14.01,2013-04-27 08:35:00,
2013-04-27 03:36:00,39.6,18.9,29.94,SSW,202,4.7,4.7,43,0.00,,,0.00,VWS V14.01,2013-04-27 08:36:00,
2013-04-27 03:37:00,39.4,18.8,29.94,SSW,202,0.0,2.0,43,0.00,,,0.00,VWS V14.01,2013-04-27 08:37:00,
2013-04-27 03:38:00,39.4,18.8,29.94,SSW,202,0.0,1.6,43,0.00,,,0.00,VWS V14.01,2013-04-27 08:38:00,
2013-04-27 03:39:00,39.4,18.8,29.94,SSW,202,0.0,0.9,43,0.00,,,0.00,VWS V14.01,2013-04-27 08:39:00,
2013-04-27 03:40:00,39.2,18.6,29.94,SSW,202,0.0,0.0,43,0.00,,,0.00,VWS V14.01,2013-04-27 08:40:00,
2013-04-27 03:41:00,39.2,18.0,29.94,SSW,202,0.0,0.0,42,0.00,,,0.00,VWS V14.01,2013-04-27 08:41:00,
2013-04-27 03:42:00,39.0,18.4,29.94,SSW,202,0.0,0.0,43,0.00,,,0.00,VWS V14.01,2013-04-27 08:42:00,
2013-04-27 03:43:00,38.8,18.3,29.94,SSW,202,0.0,0.0,43,0.00,,,0.00,VWS V14.01,2013-04-27 08:43:00,
2013-04-27 03:44:00,38.8,17.7,29.94,SSW,202,0.0,0.0,42,0.00,,,0.00,VWS V14.01,2013-04-27 08:44:00,
2013-04-27 03:45:00,38.8,17.7,29.94,SSW,202,0.0,0.0,42,0.00,,,0.00,VWS V14.01,2013-04-27 08:45:00,
2013-04-27 03:46:00,38.8,18.3,29.94,SSW,202,0.0,0.0,43,0.00,,,0.00,VWS V14.01,2013-04-27 08:46:00,
2013-04-27 03:47:00,38.8,17.7,29.94,SSW,202,0.0,0.0,42,0.00,,,0.00,VWS V14.01,2013-04-27 08:47:00,
2013-04-27 03:48:00,38.8,17.7,29.94,SSW,202,0.0,0.0,42,0.00,,,0.00,VWS V14.01,2013-04-27 08:48:00,
2013-04-27 03:49:00,38.8,17.7,29.94,SW,225,0.0,0.0,42,0.00,,,0.00,VWS V14.01,2013-04-27 08:49:00,
2013-04-27 03:50:00,39.0,17.9,29.94,SW,225,0.0,0.0,42,0.00,,,0.00,VWS V14.01,2013-04-27 08:50:00,
2013-04-27 03:51:00,39.0,18.4,29.94,SW,225,0.0,0.0,43,0.00,,,0.00,VWS V14.01,2013-04-27 08:51:00,
2013-04-27 03:52:00,38.8,18.3,29.94,SW,225,0.0,0.0,43,0.00,,,0.00,VWS V14.01,2013-04-27 08:52:00,
2013-04-27 03:53:00,38.7,18.1,29.94,SW,225,0.0,0.0,43,0.00,,,0.00,VWS V14.01,2013-04-27 08:53:00,
2013-04-27 03:54:00,38.7,18.1,29.94,SW,225,0.0,0.0,43,0.00,,,0.00,VWS V14.01,2013-04-27 08:54:00,
2013-04-27 03:55:00,38.5,17.4,29.94,SW,225,0.0,0.0,42,0.00,,,0.00,VWS V14.01,2013-04-27 08:55:00,
2013-04-27 03:56:00,38.5,17.9,29.94,SW,225,0.0,0.0,43,0.00,,,0.00,VWS V14.01,2013-04-27 08:56:00,
2013-04-27 03:57:00,38.3,17.8,29.94,SW,225,0.0,0.0,43,0.00,,,0.00,VWS V14.01,2013-04-27 08:57:00,
2013-04-27 03:58:00,38.3,17.8,29.94,SW,225,0.0,0.0,43,0.00,,,0.00,VWS V14.01,2013-04-27 08:58:00,
2013-04-27 03:59:00,38.1,17.6,29.94,SW,225,0.0,0.0,43,0.00,,,0.00,VWS V14.01,2013-04-27 08:59:00,
2013-04-27 04:00:00,37.9,17.5,29.94,SW,225,0.0,0.0,43,0.00,,,0.00,VWS V14.01,2013-04-27 09:00:00,
2013-04-27 04:01:00,37.9,17.5,29.94,SW,225,0.0,0.0,43,0.00,,,0.00,VWS V14.01,2013-04-27 09:01:00,
2013-04-27 04:02:00,37.8,17.3,29.94,SW,225,0.0,0.0,43,0.00,,,0.00,VWS V14.01,2013-04-27 09:02:00,
2013-04-27 04:03:00,37.8,17.3,29.94,SW,225,0.0,0.0,43,0.00,,,0.00,VWS V14.01,2013-04-27 09:03:00,
2013-04-27 04:04:00,37.8,17.3,29.94,SW,225,0.0,0.0,43,0.00,,,0.00,VWS V14.01,2013-04-27 09:04:00,
2013-04-27 04:05:00,37.6,17.1,29.94,SW,225,0.0,0.0,43,0.00,,,0.00,VWS V14.01,2013-04-27 09:05:00,
2013-04-27 04:06:00,37.6,17.1,29.94,SW,225,0.0,0.0,43,0.00,,,0.00,VWS V14.01,2013-04-27 09:06:00,
2013-04-27 04:07:00,37.6,17.1,29.94,SW,225,0.0,0.0,43,0.00,,,0.00,VWS V14.01,2013-04-27 09:07:00,
2013-04-27 04:08:00,37.6,17.1,29.94,SW,225,0.0,0.0,43,0.00,,,0.00,VWS V14.01,2013-04-27 09:08:00,
2013-04-27 04:09:00,37.6,17.1,29.94,SW,225,0.0,0.0,43,0.00,,,0.00,VWS V14.01,2013-04-27 09:09:00,
2013-04-27 04:10:00,37.6,17.1,29.94,SW,225,0.0,0.0,43,0.00,,,0.00,VWS V14.01,2013-04-27 09:10:00,
2013-04-27 04:11:00,37.6,17.1,29.91,SW,225,0.0,0.0,43,0.00,,,0.00,VWS V14.01,2013-04-27 09:11:00,
2013-04-27 04:12:00,37.6,17.1,29.91,SW,225,0.0,0.0,43,0.00,,,0.00,VWS V14.01,2013-04-27 09:12:00,
2013-04-27 04:13:00,37.6,17.1,29.91,SW,225,0.0,0.0,43,0.00,,,0.00,VWS V14.01,2013-04-27 09:13:00,
2013-04-27 04:14:00,37.6,17.1,29.91,SW,225,0.0,0.0,43,0.00,,,0.00,VWS V14.01,2013-04-27 09:14:00,
2013-04-27 04:15:00,37.8,17.3,29.91,SW,225,0.0,0.0,43,0.00,,,0.00,VWS V14.01,2013-04-27 09:15:00,
2013-04-27 04:16:00,37.8,17.3,29.91,SW,225,0.0,0.0,43,0.00,,,0.00,VWS V14.01,2013-04-27 09:16:00,
2013-04-27 04:17:00,37.8,17.3,29.91,SW,225,0.0,0.0,43,0.00,,,0.00,VWS V14.01,2013-04-27 09:17:00,
2013-04-27 04:18:00,37.8,17.3,29.91,SW,225,0.0,0.0,43,0.00,,,0.00,VWS V14.01,2013-04-27 09:18:00,
2013-04-27 04:19:00,37.8,17.3,29.91,SW,225,0.0,0.0,43,0.00,,,0.00,VWS V14.01,2013-04-27 09:19:00,
2013-04-27 04:20:00,37.8,17.3,29.91,SW,225,0.0,0.0,43,0.00,,,0.00,VWS V14.01,2013-04-27 09:20:00,
2013-04-27 04:21:00,37.8,17.3,29.91,SW,225,0.0,0.0,43,0.00,,,0.00,VWS V14.01,2013-04-27 09:21:00,
2013-04-27 04:22:00,38.1,17.6,29.91,SW,225,0.0,0.0,43,0.00,,,0.00,VWS V14.01,2013-04-27 09:22:00,
2013-04-27 04:23:00,38.3,17.8,29.91,SW,225,0.0,0.0,43,0.00,,,0.00,VWS V14.01,2013-04-27 09:23:00,
2013-04-27 04:24:00,38.5,17.9,29.91,SW,225,0.0,0.0,43,0.00,,,0.00,VWS V14.01,2013-04-27 09:24:00,
2013-04-27 04:25:00,38.5,17.9,29.91,SW,225,0.0,0.0,43,0.00,,,0.00,VWS V14.01,2013-04-27 09:25:00,
2013-04-27 04:26:00,38.5,17.9,29.94,SW,225,0.0,0.0,43,0.00,,,0.00,VWS V14.01,2013-04-27 09:26:00,
2013-04-27 04:27:00,38.7,18.1,29.94,SW,225,0.0,0.0,43,0.00,,,0.00,VWS V14.01,2013-04-27 09:27:00,
2013-04-27 04:28:00,38.7,18.1,29.94,SW,225,0.0,0.0,43,0.00,,,0.00,VWS V14.01,2013-04-27 09:28:00,
2013-04-27 04:29:00,38.8,18.3,29.94,SW,225,0.0,0.0,43,0.00,,,0.00,VWS V14.01,2013-04-27 09:29:00,
2013-04-27 04:30:00,38.8,18.3,29.94,SW,225,0.0,0.0,43,0.00,,,0.00,VWS V14.01,2013-04-27 09:30:00,
2013-04-27 04:31:00,39.0,18.4,29.94,SW,225,0.0,0.0,43,0.00,,,0.00,VWS V14.01,2013-04-27 09:31:00,
2013-04-27 04:32:00,39.0,18.4,29.94,SW,225,0.0,0.0,43,0.00,,,0.00,VWS V14.01,2013-04-27 09:32:00,
2013-04-27 04:33:00,39.0,18.4,29.94,SW,225,0.0,0.0,43,0.00,,,0.00,VWS V14.01,2013-04-27 09:33:00,
2013-04-27 04:34:00,39.0,18.4,29.94,SW,225,0.0,0.0,43,0.00,,,0.00,VWS V14.01,2013-04-27 09:34:00,
2013-04-27 04:35:00,39.0,18.4,29.94,SW,225,0.0,0.0,43,0.00,,,0.00,VWS V14.01,2013-04-27 09:35:00,
2013-04-27 04:36:00,39.0,18.4,29.94,SW,225,0.0,0.0,43,0.00,,,0.00,VWS V14.01,2013-04-27 09:36:00,
2013-04-27 04:37:00,39.0,18.4,29.94,SW,225,0.0,0.0,43,0.00,,,0.00,VWS V14.01,2013-04-27 09:37:00,
2013-04-27 04:38:00,39.0,18.4,29.94,SW,225,0.0,0.0,43,0.00,,,0.00,VWS V14.01,2013-04-27 09:38:00,
2013-04-27 04:39:00,39.0,17.9,29.94,SW,225,0.0,0.0,42,0.00,,,0.00,VWS V14.01,2013-04-27 09:39:00,
2013-04-27 04:40:00,39.0,17.9,29.94,SW,225,0.0,0.0,42,0.00,,,0.00,VWS V14.01,2013-04-27 09:40:00,
2013-04-27 04:41:00,39.0,17.9,29.91,SW,225,0.0,0.0,42,0.00,,,0.00,VWS V14.01,2013-04-27 09:41:00,
2013-04-27 04:42:00,39.0,18.4,29.91,SW,225,0.0,0.0,43,0.00,,,0.00,VWS V14.01,2013-04-27 09:42:00,
2013-04-27 04:43:00,38.8,17.7,29.91,SW,225,0.0,0.0,42,0.00,,,0.00,VWS V14.01,2013-04-27 09:43:00,
2013-04-27 04:44:00,38.8,17.7,29.91,SW,225,0.0,0.0,42,0.00,,,0.00,VWS V14.01,2013-04-27 09:44:00,
2013-04-27 04:45:00,38.8,17.7,29.91,SSW,202,0.0,0.0,42,0.00,,,0.00,VWS V14.01,2013-04-27 09:45:00,
2013-04-27 04:46:00,38.8,18.3,29.91,SSW,202,0.0,0.0,43,0.00,,,0.00,VWS V14.01,2013-04-27 09:46:00,
2013-04-27 04:47:00,38.8,18.3,29.91,SSW,202,0.0,0.0,43,0.00,,,0.00,VWS V14.01,2013-04-27 09:47:00,
2013-04-27 04:48:00,38.8,18.3,29.91,SSW,202,4.7,4.7,43,0.00,,,0.00,VWS V14.01,2013-04-27 09:48:00,
2013-04-27 04:49:00,38.8,18.3,29.91,SSW,202,4.0,4.0,43,0.00,,,0.00,VWS V14.01,2013-04-27 09:49:00,
2013-04-27 04:50:00,38.8,18.8,29.91,SSW,202,4.0,4.0,44,0.00,,,0.00,VWS V14.01,2013-04-27 09:50:00,
2013-04-27 04:51:00,38.8,18.3,29.91,SSW,202,4.0,4.0,43,0.00,,,0.00,VWS V14.01,2013-04-27 09:51:00,
2013-04-27 04:52:00,38.8,18.8,29.91,SSW,202,4.7,4.7,44,0.00,,,0.00,VWS V14.01,2013-04-27 09:52:00,
2013-04-27 04:53:00,38.7,18.1,29.91,SSW,202,3.4,3.4,43,0.00,,,0.00,VWS V14.01,2013-04-27 09:53:00,
2013-04-27 04:54:00,38.7,18.6,29.91,SSW,202,4.0,4.0,44,0.00,,,0.00,VWS V14.01,2013-04-27 09:54:00,
2013-04-27 04:55:00,38.5,18.5,29.91,SSW,202,3.4,3.4,44,0.00,,,0.00,VWS V14.01,2013-04-27 09:55:00,
2013-04-27 04:56:00,38.5,18.5,29.91,SSW,202,3.4,3.4,44,0.00,,,0.00,VWS V14.01,2013-04-27 09:56:00,
2013-04-27 04:57:00,38.3,18.3,29.91,SSW,202,0.0,1.3,44,0.00,,,0.00,VWS V14.01,2013-04-27 09:57:00,
2013-04-27 04:58:00,38.3,18.3,29.91,SSW,202,0.0,0.0,44,0.00,,,0.00,VWS V14.01,2013-04-27 09:58:00,
2013-04-27 04:59:00,38.3,18.3,29.91,SSW,202,0.0,0.0,44,0.00,,,0.00,VWS V14.01,2013-04-27 09:59:00,
2013-04-27 05:00:00,38.1,17.6,29.91,SSW,202,0.0,0.0,43,0.00,,,0.00,VWS V14.01,2013-04-27 10:00:00,
2013-04-27 05:01:00,37.9,18.0,29.91,SSW,202,0.0,0.0,44,0.00,,,0.00,VWS V14.01,2013-04-27 10:01:00,
2013-04-27 05:02:00,37.9,18.0,29.91,SSW,202,0.0,0.0,44,0.00,,,0.00,VWS V14.01,2013-04-27 10:02:00,
2013-04-27 05:03:00,37.9,17.5,29.91,SSW,202,0.0,0.0,43,0.00,,,0.00,VWS V14.01,2013-04-27 10:03:00,
2013-04-27 05:04:00,37.9,17.5,29.91,SSW,202,0.0,0.0,43,0.00,,,0.00,VWS V14.01,2013-04-27 10:04:00,
2013-04-27 05:05:00,37.9,18.0,29.91,SSW,202,0.0,0.0,44,0.00,,,0.00,VWS V14.01,2013-04-27 10:05:00,
2013-04-27 05:06:00,37.9,18.0,29.91,SSW,202,0.0,0.0,44,0.00,,,0.00,VWS V14.01,2013-04-27 10:06:00,
2013-04-27 05:07:00,37.9,17.5,29.91,SW,225,0.0,0.0,43,0.00,,,0.00,VWS V14.01,2013-04-27 10:07:00,
2013-04-27 05:08:00,37.9,17.5,29.91,SW,225,0.0,0.0,43,0.00,,,0.00,VWS V14.01,2013-04-27 10:08:00,
2013-04-27 05:09:00,38.1,17.6,29.91,SW,225,0.0,0.0,43,0.00,,,0.00,VWS V14.01,2013-04-27 10:09:00,
2013-04-27 05:10:00,38.1,17.6,29.91,SW,225,0.0,0.0,43,0.00,,,0.00,VWS V14.01,2013-04-27 10:10:00,
2013-04-27 05:11:00,38.3,17.8,29.91,SW,225,0.0,0.0,43,0.00,,,0.00,VWS V14.01,2013-04-27 10:11:00,
2013-04-27 05:12:00,38.3,17.8,29.91,SW,225,0.0,0.0,43,0.00,,,0.00,VWS V14.01,2013-04-27 10:12:00,
2013-04-27 05:13:00,38.3,18.3,29.91,SW,225,0.0,0.0,44,0.00,,,0.00,VWS V14.01,2013-04-27 10:13:00,
2013-04-27 05:14:00,38.3,18.3,29.91,SW,225,0.0,0.0,44,0.00,,,0.00,VWS V14.01,2013-04-27 10:14:00,
2013-04-27 05:15:00,38.3,18.3,29.91,SW,225,0.0,0.0,44,0.00,,,0.00,VWS V14.01,2013-04-27 10:15:00,
2013-04-27 05:16:00,38.5,18.5,29.91,SW,225,0.0,0.0,44,0.00,,,0.00,VWS V14.01,2013-04-27 10:16:00,
2013-04-27 05:17:00,38.3,18.3,29.91,SW,225,0.0,0.0,44,0.00,,,0.00,VWS V14.01,2013-04-27 10:17:00,
2013-04-27 05:18:00,38.3,18.3,29.91,SW,225,0.0,0.0,44,0.00,,,0.00,VWS V14.01,2013-04-27 10:18:00,
2013-04-27 05:19:00,38.3,18.3,29.91,SW,225,0.0,0.0,44,0.00,,,0.00,VWS V14.01,2013-04-27 10:19:00,
2013-04-27 05:20:00,38.1,18.1,29.91,SW,225,0.0,0.0,44,0.00,,,0.00,VWS V14.01,2013-04-27 10:20:00,
2013-04-27 05:21:00,38.1,18.1,29.91,SW,225,0.0,0.0,44,0.00,,,0.00,VWS V14.01,2013-04-27 10:21:00,
2013-04-27 05:22:00,38.1,18.1,29.91,SW,225,0.0,0.0,44,0.00,,,0.00,VWS V14.01,2013-04-27 10:22:00,
2013-04-27 05:23:00,38.1,18.1,29.91,SW,225,0.0,0.0,44,0.00,,,0.00,VWS V14.01,2013-04-27 10:23:00,
2013-04-27 05:24:00,38.1,18.1,29.91,SW,225,0.0,0.0,44,0.00,,,0.00,VWS V14.01,2013-04-27 10:24:00,
2013-04-27 05:25:00,38.1,18.1,29.91,SSW,202,0.0,0.0,44,0.00,,,0.00,VWS V14.01,2013-04-27 10:25:00,
2013-04-27 05:26:00,37.9,18.0,29.91,SSW,202,0.0,0.0,44,0.00,,,0.00,VWS V14.01,2013-04-27 10:26:00,
2013-04-27 05:27:00,37.9,18.0,29.91,SSW,202,0.0,0.0,44,0.00,,,0.00,VWS V14.01,2013-04-27 10:27:00,
2013-04-27 05:28:00,37.8,17.8,29.91,SSW,202,0.0,0.0,44,0.00,,,0.00,VWS V14.01,2013-04-27 10:28:00,
2013-04-27 05:29:00,37.6,17.7,29.91,SSW,202,0.0,0.0,44,0.00,,,0.00,VWS V14.01,2013-04-27 10:29:00,
2013-04-27 05:30:00,37.2,17.3,29.91,SSW,202,0.0,0.0,44,0.00,,,0.00,VWS V14.01,2013-04-27 10:30:00,
2013-04-27 05:31:00,37.2,17.3,29.91,SSW,202,0.0,0.0,44,0.00,,,0.00,VWS V14.01,2013-04-27 10:31:00,
2013-04-27 05:32:00,37.2,17.3,29.91,SSW,202,0.0,0.0,44,0.00,,,0.00,VWS V14.01,2013-04-27 10:32:00,
2013-04-27 05:33:00,37.0,17.2,29.91,SSW,202,0.0,0.0,44,0.00,,,0.00,VWS V14.01,2013-04-27 10:33:00,
2013-04-27 05:34:00,37.0,17.2,29.91,SSW,202,0.0,0.0,44,0.00,,,0.00,VWS V14.01,2013-04-27 10:34:00,
2013-04-27 05:35:00,37.0,17.2,29.91,SSW,202,0.0,0.0,44,0.00,,,0.00,VWS V14.01,2013-04-27 10:35:00,
2013-04-27 05:36:00,37.0,17.2,29.91,SSW,202,0.0,0.0,44,0.00,,,0.00,VWS V14.01,2013-04-27 10:36:00,
2013-04-27 05:37:00,37.0,17.2,29.91,SSW,202,0.0,0.0,44,0.00,,,0.00,VWS V14.01,2013-04-27 10:37:00,
2013-04-27 05:38:00,37.0,17.2,29.91,SSW,202,0.0,0.0,44,0.00,,,0.00,VWS V14.01,2013-04-27 10:38:00,
2013-04-27 05:39:00,37.0,17.7,29.91,SSW,202,0.0,0.0,45,0.00,,,0.00,VWS V14.01,2013-04-27 10:39:00,
2013-04-27 05:40:00,37.0,17.7,29.91,SSW,202,0.0,0.0,45,0.00,,,0.00,VWS V14.01,2013-04-27 10:40:00,
2013-04-27 05:41:00,37.2,19.4,29.91,SSW,202,3.4,3.4,48,0.00,,,0.00,VWS V14.01,2013-04-27 10:41:00,
2013-04-27 05:42:00,37.2,18.9,29.91,SSW,202,3.4,3.4,47,0.00,,,0.00,VWS V14.01,2013-04-27 10:42:00,
2013-04-27 05:43:00,37.0,18.7,29.91,SSW,202,3.4,3.4,47,0.00,,,0.00,VWS V14.01,2013-04-27 10:43:00,
2013-04-27 05:44:00,37.0,18.7,29.91,SSW,202,0.0,1.1,47,0.00,,,0.00,VWS V14.01,2013-04-27 10:44:00,
2013-04-27 05:45:00,37.0,18.2,29.91,SSW,202,0.0,0.0,46,0.00,,,0.00,VWS V14.01,2013-04-27 10:45:00,
2013-04-27 05:46:00,37.0,18.2,29.91,SSW,202,0.0,0.0,46,0.00,,,0.00,VWS V14.01,2013-04-27 10:46:00,
2013-04-27 05:47:00,37.0,18.7,29.91,SSW,202,0.0,0.0,47,0.00,,,0.00,VWS V14.01,2013-04-27 10:47:00,
2013-04-27 05:48:00,37.0,19.2,29.91,SSW,202,0.0,0.0,48,0.00,,,0.00,VWS V14.01,2013-04-27 10:48:00,
2013-04-27 05:49:00,37.0,19.7,29.91,SSW,202,6.7,6.7,49,0.00,,,0.00,VWS V14.01,2013-04-27 10:49:00,
2013-04-27 05:50:00,37.0,18.7,29.91,SSW,202,3.4,3.4,47,0.00,,,0.00,VWS V14.01,2013-04-27 10:50:00,
2013-04-27 05:51:00,36.9,18.5,29.91,SSW,202,0.0,1.3,47,0.00,,,0.00,VWS V14.01,2013-04-27 10:51:00,
2013-04-27 05:52:00,36.9,18.5,29.91,SSW,202,2.7,2.7,47,0.00,,,0.00,VWS V14.01,2013-04-27 10:52:00,
2013-04-27 05:53:00,36.9,19.5,29.91,SSW,202,4.0,4.0,49,0.00,,,0.00,VWS V14.01,2013-04-27 10:53:00,
2013-04-27 05:54:00,36.9,19.5,29.91,SSW,202,6.0,6.0,49,0.00,,,0.00,VWS V14.01,2013-04-27 10:54:00,
2013-04-27 05:55:00,36.9,19.5,29.91,SSW,202,4.7,4.7,49,0.00,,,0.00,VWS V14.01,2013-04-27 10:55:00,
2013-04-27 05:56:00,36.9,19.5,29.91,SSW,202,0.0,1.6,49,0.00,,,0.00,VWS V14.01,2013-04-27 10:56:00,
2013-04-27 05:57:00,37.0,19.7,29.91,SSW,202,3.4,3.4,49,0.00,,,0.00,VWS V14.01,2013-04-27 10:57:00,
2013-04-27 05:58:00,37.0,19.7,29.91,SSW,202,2.7,2.7,49,0.00,,,0.00,VWS V14.01,2013-04-27 10:58:00,
2013-04-27 05:59:00,37.4,19.5,29.91,SSW,202,6.0,6.0,48,0.00,,,0.00,VWS V14.01,2013-04-27 10:59:00,
2013-04-27 06:00:00,37.4,20.0,29.91,SSW,202,4.7,4.7,49,0.00,,,0.00,VWS V14.01,2013-04-27 11:00:00,
2013-04-27 06:01:00,37.8,20.3,29.91,SSW,202,4.7,4.7,49,0.00,,,0.00,VWS V14.01,2013-04-27 11:01:00,
2013-04-27 06:02:00,37.9,20.5,29.91,SSW,202,4.0,4.0,49,0.00,,,0.00,VWS V14.01,2013-04-27 11:02:00,
2013-04-27 06:03:00,37.9,20.5,29.91,South,180,4.0,4.0,49,0.00,,,0.00,VWS V14.01,2013-04-27 11:03:00,
2013-04-27 06:04:00,38.1,20.7,29.91,South,180,6.7,6.7,49,0.00,,,0.00,VWS V14.01,2013-04-27 11:04:00,
2013-04-27 06:05:00,38.3,20.4,29.91,South,180,7.4,7.4,48,0.00,,,0.00,VWS V14.01,2013-04-27 11:05:00,
2013-04-27 06:06:00,38.7,20.7,29.91,SSW,202,7.4,7.4,48,0.00,,,0.00,VWS V14.01,2013-04-27 11:06:00,
2013-04-27 06:07:00,38.8,20.4,29.91,SSW,202,7.4,7.4,47,0.00,,,0.00,VWS V14.01,2013-04-27 11:07:00,
2013-04-27 06:08:00,39.4,20.8,29.91,SSW,202,7.4,7.4,47,0.00,,,0.00,VWS V14.01,2013-04-27 11:08:00,
2013-04-27 06:09:00,39.6,20.5,29.91,SSW,202,4.7,4.7,46,0.00,,,0.00,VWS V14.01,2013-04-27 11:09:00,
2013-04-27 06:10:00,39.7,20.7,29.91,SSW,202,4.7,4.7,46,0.00,,,0.00,VWS V14.01,2013-04-27 11:10:00,
2013-04-27 06:11:00,39.7,20.7,29.91,SSW,202,4.7,4.7,46,0.00,,,0.00,VWS V14.01,2013-04-27 11:11:00,
2013-04-27 06:12:00,39.7,20.7,29.91,SSW,202,2.7,2.7,46,0.00,,,0.00,VWS V14.01,2013-04-27 11:12:00,
2013-04-27 06:13:00,39.7,20.1,29.91,SSW,202,2.7,2.7,45,0.00,,,0.00,VWS V14.01,2013-04-27 11:13:00,
2013-04-27 06:14:00,39.9,20.3,29.91,SSW,202,0.0,1.1,45,0.00,,,0.00,VWS V14.01,2013-04-27 11:14:00,
2013-04-27 06:15:00,39.9,20.3,29.91,SSW,202,0.0,0.0,45,0.00,,,0.00,VWS V14.01,2013-04-27 11:15:00,
2013-04-27 06:16:00,39.9,20.3,29.91,SSW,202,0.0,0.0,45,0.00,,,0.00,VWS V14.01,2013-04-27 11:16:00,
2013-04-27 06:17:00,40.1,20.5,29.91,South,180,0.0,0.0,45,0.00,,,0.00,VWS V14.01,2013-04-27 11:17:00,
2013-04-27 06:18:00,40.1,20.0,29.91,South,180,4.0,4.0,44,0.00,,,0.00,VWS V14.01,2013-04-27 11:18:00,
2013-04-27 06:19:00,40.3,20.1,29.91,South,180,4.0,4.0,44,0.00,,,0.00,VWS V14.01,2013-04-27 11:19:00,
2013-04-27 06:20:00,40.3,20.1,29.91,South,180,3.4,3.4,44,0.00,,,0.00,VWS V14.01,2013-04-27 11:20:00,
2013-04-27 06:21:00,40.3,20.1,29.91,South,180,4.0,4.0,44,0.00,,,0.00,VWS V14.01,2013-04-27 11:21:00,
2013-04-27 06:22:00,40.3,20.1,29.91,SSW,202,4.7,4.7,44,0.00,,,0.00,VWS V14.01,2013-04-27 11:22:00,
2013-04-27 06:23:00,40.3,20.1,29.91,SSW,202,4.0,4.0,44,0.00,,,0.00,VWS V14.01,2013-04-27 11:23:00,
2013-04-27 06:24:00,40.5,20.3,29.91,SSW,202,6.0,6.0,44,0.00,,,0.00,VWS V14.01,2013-04-27 11:24:00,
2013-04-27 06:25:00,40.5,20.3,29.91,South,180,4.0,4.0,44,0.00,,,0.00,VWS V14.01,2013-04-27 11:25:00,
2013-04-27 06:26:00,40.6,19.9,29.91,South,180,4.7,4.7,43,0.00,,,0.00,VWS V14.01,2013-04-27 11:26:00,
2013-04-27 06:27:00,40.6,19.9,29.91,South,180,6.7,6.7,43,0.00,,,0.00,VWS V14.01,2013-04-27 11:27:00,
2013-04-27 06:28:00,41.0,20.2,29.91,SSW,202,7.4,7.4,43,0.00,,,0.00,VWS V14.01,2013-04-27 11:28:00,
2013-04-27 06:29:00,41.0,19.7,29.91,SSW,202,7.4,7.4,42,0.00,,,0.00,VWS V14.01,2013-04-27 11:29:00,
2013-04-27 06:30:00,41.5,20.2,29.91,SSW,202,6.0,6.0,42,0.00,,,0.00,VWS V14.01,2013-04-27 11:30:00,
2013-04-27 06:31:00,41.5,20.2,29.91,SSW,202,4.7,4.7,42,0.00,,,0.00,VWS V14.01,2013-04-27 11:31:00,
2013-04-27 06:32:00,41.7,20.3,29.91,SSW,202,4.7,4.7,42,0.00,,,0.00,VWS V14.01,2013-04-27 11:32:00,
2013-04-27 06:33:00,41.7,20.3,29.91,SSW,202,4.7,4.7,42,0.00,,,0.00,VWS V14.01,2013-04-27 11:33:00,
2013-04-27 06:34:00,41.9,20.5,29.91,SSW,202,4.7,4.7,42,0.00,,,0.00,VWS V14.01,2013-04-27 11:34:00,
2013-04-27 06:35:00,42.1,20.1,29.91,SSW,202,4.0,4.0,41,0.00,,,0.00,VWS V14.01,2013-04-27 11:35:00,
2013-04-27 06:36:00,42.3,20.3,29.91,SSW,202,0.0,1.6,41,0.00,,,0.00,VWS V14.01,2013-04-27 11:36:00,
2013-04-27 06:37:00,42.3,20.3,29.91,South,180,6.0,6.0,41,0.00,,,0.00,VWS V14.01,2013-04-27 11:37:00,
2013-04-27 06:38:00,42.6,20.6,29.91,SSW,202,0.0,2.2,41,0.00,,,0.00,VWS V14.01,2013-04-27 11:38:00,
2013-04-27 06:39:00,42.8,20.8,29.91,SSW,202,0.0,0.0,41,0.00,,,0.00,VWS V14.01,2013-04-27 11:39:00,
2013-04-27 06:40:00,42.8,20.8,29.91,SSW,202,0.0,0.0,41,0.00,,,0.00,VWS V14.01,2013-04-27 11:40:00,
2013-04-27 06:41:00,42.8,20.8,29.91,SSW,202,0.0,0.0,41,0.00,,,0.00,VWS V14.01,2013-04-27 11:41:00,
2013-04-27 06:42:00,42.8,20.2,29.91,SSW,202,0.0,0.0,40,0.00,,,0.00,VWS V14.01,2013-04-27 11:42:00,
2013-04-27 06:43:00,43.0,20.3,29.91,SSW,202,0.0,0.0,40,0.00,,,0.00,VWS V14.01,2013-04-27 11:43:00,
2013-04-27 06:44:00,43.0,20.3,29.91,SSW,202,0.0,0.0,40,0.00,,,0.00,VWS V14.01,2013-04-27 11:44:00,
2013-04-27 06:45:00,43.0,20.3,29.91,SSW,202,0.0,0.0,40,0.00,,,0.00,VWS V14.01,2013-04-27 11:45:00,
2013-04-27 06:46:00,43.2,20.5,29.91,SSW,202,0.0,0.0,40,0.00,,,0.00,VWS V14.01,2013-04-27 11:46:00,
2013-04-27 06:47:00,43.2,20.5,29.91,SSW,202,0.0,0.0,40,0.00,,,0.00,VWS V14.01,2013-04-27 11:47:00,
2013-04-27 06:48:00,43.3,20.6,29.91,SSW,202,0.0,0.0,40,0.00,,,0.00,VWS V14.01,2013-04-27 11:48:00,
2013-04-27 06:49:00,43.5,20.8,29.91,SSW,202,0.0,0.0,40,0.00,,,0.00,VWS V14.01,2013-04-27 11:49:00,
2013-04-27 06:50:00,43.5,20.8,29.91,SSW,202,0.0,0.0,40,0.00,,,0.00,VWS V14.01,2013-04-27 11:50:00,
2013-04-27 06:51:00,43.7,21.0,29.91,SSW,202,0.0,0.0,40,0.00,,,0.00,VWS V14.01,2013-04-27 11:51:00,
2013-04-27 06:52:00,43.9,21.1,29.91,SSW,202,0.0,0.0,40,0.00,,,0.00,VWS V14.01,2013-04-27 11:52:00,
2013-04-27 06:53:00,44.1,21.3,29.91,SSW,202,0.0,0.0,40,0.00,,,0.00,VWS V14.01,2013-04-27 11:53:00,
2013-04-27 06:54:00,44.2,21.5,29.91,SSW,202,0.0,0.0,40,0.00,,,0.00,VWS V14.01,2013-04-27 11:54:00,
2013-04-27 06:55:00,44.4,21.6,29.91,WSW,248,2.7,2.7,40,0.00,,,0.00,VWS V14.01,2013-04-27 11:55:00,
2013-04-27 06:56:00,44.6,21.2,29.94,WSW,248,0.0,1.1,39,0.00,,,0.00,VWS V14.01,2013-04-27 11:56:00,
2013-04-27 06:57:00,44.6,21.2,29.94,WSW,248,0.0,0.9,39,0.00,,,0.00,VWS V14.01,2013-04-27 11:57:00,
2013-04-27 06:58:00,44.8,21.4,29.94,WSW,248,0.0,0.0,39,0.00,,,0.00,VWS V14.01,2013-04-27 11:58:00,
2013-04-27 06:59:00,44.8,21.4,29.94,WSW,248,0.0,0.0,39,0.00,,,0.00,VWS V14.01,2013-04-27 11:59:00,
2013-04-27 07:00:00,45.0,21.5,29.94,WSW,248,0.0,0.0,39,0.00,,,0.00,VWS V14.01,2013-04-27 12:00:00,
2013-04-27 07:01:00,45.3,21.8,29.94,WSW,248,2.7,2.7,39,0.00,,,0.00,VWS V14.01,2013-04-27 12:01:00,
2013-04-27 07:02:00,45.5,22.0,29.94,WSW,248,0.0,2.2,39,0.00,,,0.00,VWS V14.01,2013-04-27 12:02:00,
2013-04-27 07:03:00,45.7,22.2,29.94,WSW,248,0.0,0.9,39,0.00,,,0.00,VWS V14.01,2013-04-27 12:03:00,
2013-04-27 07:04:00,45.9,22.3,29.94,WSW,248,0.0,0.0,39,0.00,,,0.00,VWS V14.01,2013-04-27 12:04:00,
2013-04-27 07:05:00,46.0,22.5,29.94,WSW,248,0.0,0.0,39,0.00,,,0.00,VWS V14.01,2013-04-27 12:05:00,
2013-04-27 07:06:00,46.0,22.5,29.94,SW,225,0.0,0.0,39,0.00,,,0.00,VWS V14.01,2013-04-27 12:06:00,
2013-04-27 07:07:00,46.0,22.5,29.94,SW,225,0.0,0.0,39,0.00,,,0.00,VWS V14.01,2013-04-27 12:07:00,
2013-04-27 07:08:00,46.4,22.2,29.94,SW,225,0.0,0.0,38,0.00,,,0.00,VWS V14.01,2013-04-27 12:08:00,
2013-04-27 07:09:00,46.6,22.4,29.94,SW,225,0.0,0.0,38,0.00,,,0.00,VWS V14.01,2013-04-27 12:09:00,
2013-04-27 07:10:00,46.8,22.5,29.94,SW,225,0.0,0.0,38,0.00,,,0.00,VWS V14.01,2013-04-27 12:10:00,
2013-04-27 07:11:00,47.1,22.8,29.94,SW,225,0.0,0.0,38,0.00,,,0.00,VWS V14.01,2013-04-27 12:11:00,
2013-04-27 07:12:00,47.3,23.0,29.94,SW,225,0.0,0.0,38,0.00,,,0.00,VWS V14.01,2013-04-27 12:12:00,
2013-04-27 07:13:00,47.3,23.0,29.94,SSW,202,0.0,0.0,38,0.00,,,0.00,VWS V14.01,2013-04-27 12:13:00,
2013-04-27 07:14:00,47.7,23.3,29.94,SSW,202,0.0,0.0,38,0.00,,,0.00,VWS V14.01,2013-04-27 12:14:00,
2013-04-27 07:15:00,47.8,23.5,29.94,SSW,202,0.0,0.0,38,0.00,,,0.00,VWS V14.01,2013-04-27 12:15:00,
2013-04-27 07:16:00,48.4,24.0,29.94,SSW,202,0.0,0.0,38,0.00,,,0.00,VWS V14.01,2013-04-27 12:16:00,
2013-04-27 07:17:00,48.4,24.0,29.94,SSW,202,0.0,0.0,38,0.00,,,0.00,VWS V14.01,2013-04-27 12:17:00,
2013-04-27 07:18:00,48.9,24.5,29.94,South,180,4.0,4.0,38,0.00,,,0.00,VWS V14.01,2013-04-27 12:18:00,
2013-04-27 07:19:00,48.9,24.5,29.94,SSW,202,6.7,6.7,38,0.00,,,0.00,VWS V14.01,2013-04-27 12:19:00,
2013-04-27 07:20:00,49.6,24.5,29.94,South,180,0.0,2.2,37,0.00,,,0.00,VWS V14.01,2013-04-27 12:20:00,
2013-04-27 07:21:00,49.8,24.6,29.94,SSW,202,0.0,1.3,37,0.00,,,0.00,VWS V14.01,2013-04-27 12:21:00,
2013-04-27 07:22:00,50.2,24.9,29.94,SSW,202,0.0,1.3,37,0.00,,,0.00,VWS V14.01,2013-04-27 12:22:00,
2013-04-27 07:23:00,50.5,25.2,29.94,SW,225,0.0,1.1,37,0.00,,,0.00,VWS V14.01,2013-04-27 12:23:00,
2013-04-27 07:24:00,50.9,25.6,29.94,SSW,202,0.0,1.1,37,0.00,,,0.00,VWS V14.01,2013-04-27 12:24:00,
2013-04-27 07:25:00,51.3,25.9,29.94,WSW,248,4.0,4.0,37,0.00,,,0.00,VWS V14.01,2013-04-27 12:25:00,
2013-04-27 07:26:00,51.3,25.9,29.91,WSW,248,8.1,8.1,37,0.00,,,0.00,VWS V14.01,2013-04-27 12:26:00,
2013-04-27 07:27:00,51.6,24.9,29.91,WSW,248,8.7,8.7,35,0.00,,,0.00,VWS V14.01,2013-04-27 12:27:00,
2013-04-27 07:28:00,52.0,23.8,29.91,SW,225,4.7,4.7,33,0.00,,,0.00,VWS V14.01,2013-04-27 12:28:00,
2013-04-27 07:29:00,52.3,24.1,29.91,SW,225,4.0,4.0,33,0.00,,,0.00,VWS V14.01,2013-04-27 12:29:00,
2013-04-27 07:30:00,52.7,24.4,29.91,SSW,202,7.4,7.4,33,0.00,,,0.00,VWS V14.01,2013-04-27 12:30:00,
2013-04-27 07:31:00,53.1,24.7,29.91,SW,225,0.0,2.5,33,0.00,,,0.00,VWS V14.01,2013-04-27 12:31:00,
2013-04-27 07:32:00,53.2,24.9,29.91,SSW,202,4.7,4.7,33,0.00,,,0.00,VWS V14.01,2013-04-27 12:32:00,
2013-04-27 07:33:00,53.6,24.5,29.91,WSW,248,3.4,3.4,32,0.00,,,0.00,VWS V14.01,2013-04-27 12:33:00,
2013-04-27 07:34:00,53.8,24.6,29.91,WSW,248,4.0,4.0,32,0.00,,,0.00,VWS V14.01,2013-04-27 12:34:00,
2013-04-27 07:35:00,54.0,23.2,29.91,SSW,202,2.7,3.1,30,0.00,,,0.00,VWS V14.01,2013-04-27 12:35:00,
2013-04-27 07:36:00,54.3,24.4,29.91,West,270,10.1,10.1,31,0.00,,,0.00,VWS V14.01,2013-04-27 12:36:00,
2013-04-27 07:37:00,54.5,23.7,29.91,WSW,248,8.1,8.1,30,0.00,,,0.00,VWS V14.01,2013-04-27 12:37:00,
2013-04-27 07:38:00,54.7,23.9,29.91,NW,315,6.0,6.0,30,0.00,,,0.00,VWS V14.01,2013-04-27 12:38:00,
2013-04-27 07:39:00,55.0,24.2,29.91,NW,315,0.0,2.5,30,0.00,,,0.00,VWS V14.01,2013-04-27 12:39:00,
2013-04-27 07:40:00,55.2,24.4,29.91,WNW,292,0.0,0.0,30,0.00,,,0.00,VWS V14.01,2013-04-27 12:40:00,
2013-04-27 07:41:00,55.4,24.5,29.94,WNW,292,0.0,0.0,30,0.00,,,0.00,VWS V14.01,2013-04-27 12:41:00,
2013-04-27 07:42:00,55.8,24.8,29.94,West,270,6.0,6.0,30,0.00,,,0.00,VWS V14.01,2013-04-27 12:42:00,
2013-04-27 07:43:00,55.8,24.8,29.94,WSW,248,0.0,2.0,30,0.00,,,0.00,VWS V14.01,2013-04-27 12:43:00,
2013-04-27 07:44:00,55.9,25.0,29.94,ESE,112,2.7,2.7,30,0.00,,,0.00,VWS V14.01,2013-04-27 12:44:00,
2013-04-27 07:45:00,56.3,25.3,29.94,SSW,202,3.4,3.4,30,0.00,,,0.00,VWS V14.01,2013-04-27 12:45:00,
2013-04-27 07:46:00,56.5,25.4,29.94,WSW,248,0.0,1.1,30,0.00,,,0.00,VWS V14.01,2013-04-27 12:46:00,
2013-04-27 07:47:00,56.7,24.8,29.94,North,0,7.4,7.4,29,0.00,,,0.00,VWS V14.01,2013-04-27 12:47:00,
2013-04-27 07:48:00,56.7,24.8,29.94,NNW,338,7.4,7.4,29,0.00,,,0.00,VWS V14.01,2013-04-27 12:48:00,
2013-04-27 07:49:00,56.8,24.9,29.94,NNW,338,2.7,2.7,29,0.00,,,0.00,VWS V14.01,2013-04-27 12:49:00,
2013-04-27 07:50:00,56.8,24.9,29.94,NNW,338,0.0,2.0,29,0.00,,,0.00,VWS V14.01,2013-04-27 12:50:00,
2013-04-27 07:51:00,56.8,24.9,29.94,NE,45,4.7,4.7,29,0.00,,,0.00,VWS V14.01,2013-04-27 12:51:00,
2013-04-27 07:52:00,57.0,25.1,29.94,NE,45,6.7,6.7,29,0.00,,,0.00,VWS V14.01,2013-04-27 12:52:00,
2013-04-27 07:53:00,57.0,25.1,29.94,NE,45,4.0,4.0,29,0.00,,,0.00,VWS V14.01,2013-04-27 12:53:00,
2013-04-27 07:54:00,57.2,24.4,29.94,NW,315,8.1,8.1,28,0.00,,,0.00,VWS V14.01,2013-04-27 12:54:00,
2013-04-27 07:55:00,57.0,24.3,29.94,North,0,3.4,3.4,28,0.00,,,0.00,VWS V14.01,2013-04-27 12:55:00,
2013-04-27 07:56:00,57.0,24.3,29.94,North,0,3.4,3.4,28,0.00,,,0.00,VWS V14.01,2013-04-27 12:56:00,
2013-04-27 07:57:00,57.2,24.4,29.94,North,0,2.7,2.7,28,0.00,,,0.00,VWS V14.01,2013-04-27 12:57:00,
2013-04-27 07:58:00,57.2,24.4,29.94,WNW,292,4.7,4.7,28,0.00,,,0.00,VWS V14.01,2013-04-27 12:58:00,
2013-04-27 07:59:00,57.2,24.4,29.94,NNW,338,4.7,4.7,28,0.00,,,0.00,VWS V14.01,2013-04-27 12:59:00,
2013-04-27 08:00:00,57.4,24.6,29.94,NNW,338,4.7,4.7,28,0.00,,,0.00,VWS V14.01,2013-04-27 13:00:00,
2013-04-27 08:01:00,57.6,24.7,29.94,NNW,338,0.0,2.0,28,0.00,,,0.00,VWS V14.01,2013-04-27 13:01:00,
2013-04-27 08:02:00,57.7,24.9,29.94,NNW,338,4.0,4.0,28,0.00,,,0.00,VWS V14.01,2013-04-27 13:02:00,
2013-04-27 08:03:00,57.9,25.0,29.94,NW,315,6.0,6.0,28,0.00,,,0.00,VWS V14.01,2013-04-27 13:03:00,
2013-04-27 08:04:00,57.9,24.2,29.94,WNW,292,4.7,4.7,27,0.00,,,0.00,VWS V14.01,2013-04-27 13:04:00,
2013-04-27 08:05:00,57.9,24.2,29.94,NNW,338,0.0,1.6,27,0.00,,,0.00,VWS V14.01,2013-04-27 13:05:00,
2013-04-27 08:06:00,57.9,24.2,29.94,NNW,338,3.4,3.4,27,0.00,,,0.00,VWS V14.01,2013-04-27 13:06:00,
2013-04-27 08:08:00,58.1,24.3,29.94,West,270,4.0,4.0,27,0.00,,,0.00,VWS V14.01,2013-04-27 13:08:00,
2013-04-27 08:09:00,58.1,24.3,29.94,West,270,4.0,4.0,27,0.00,,,0.00,VWS V14.01,2013-04-27 13:09:00,
2013-04-27 08:10:00,58.5,23.7,29.94,South,180,6.7,6.7,26,0.00,,,0.00,VWS V14.01,2013-04-27 13:10:00,
2013-04-27 08:11:00,58.5,23.7,29.94,SSE,158,0.0,2.2,26,0.00,,,0.00,VWS V14.01,2013-04-27 13:11:00,
2013-04-27 08:12:00,58.6,24.8,29.94,SW,225,0.0,0.9,27,0.00,,,0.00,VWS V14.01,2013-04-27 13:12:00,
2013-04-27 08:13:00,58.8,24.9,29.94,NNW,338,6.0,6.0,27,0.00,,,0.00,VWS V14.01,2013-04-27 13:13:00,
2013-04-27 08:14:00,59.0,24.2,29.94,NW,315,8.7,8.7,26,0.00,,,0.00,VWS V14.01,2013-04-27 13:14:00,
2013-04-27 08:15:00,59.0,24.2,29.94,NNW,338,3.4,3.4,26,0.00,,,0.00,VWS V14.01,2013-04-27 13:15:00,
2013-04-27 08:16:00,59.0,24.2,29.94,NNE,22,4.0,4.0,26,0.00,,,0.00,VWS V14.01,2013-04-27 13:16:00,
2013-04-27 08:17:00,59.2,24.3,29.94,NNW,338,6.0,6.0,26,0.00,,,0.00,VWS V14.01,2013-04-27 13:17:00,
2013-04-27 08:18:00,59.2,24.3,29.94,NW,315,8.1,8.1,26,0.00,,,0.00,VWS V14.01,2013-04-27 13:18:00,
2013-04-27 08:19:00,59.2,24.3,29.94,WNW,292,2.7,2.7,26,0.00,,,0.00,VWS V14.01,2013-04-27 13:19:00,
2013-04-27 08:20:00,59.4,24.5,29.94,NNW,338,4.7,4.7,26,0.00,,,0.00,VWS V14.01,2013-04-27 13:20:00,
2013-04-27 08:21:00,59.4,24.5,29.94,NE,45,0.0,1.6,26,0.00,,,0.00,VWS V14.01,2013-04-27 13:21:00,
2013-04-27 08:22:00,59.5,24.6,29.94,NNE,22,0.0,0.9,26,0.00,,,0.00,VWS V14.01,2013-04-27 13:22:00,
2013-04-27 08:23:00,59.7,24.8,29.94,NNW,338,4.0,4.0,26,0.00,,,0.00,VWS V14.01,2013-04-27 13:23:00,
2013-04-27 08:24:00,59.7,24.8,29.94,NNW,338,3.4,3.4,26,0.00,,,0.00,VWS V14.01,2013-04-27 13:24:00,
2013-04-27 08:25:00,59.9,25.0,29.94,North,0,0.0,2.2,26,0.00,,,0.00,VWS V14.01,2013-04-27 13:25:00,
2013-04-27 08:26:00,59.9,25.0,29.94,NW,315,8.7,8.7,26,0.00,,,0.00,VWS V14.01,2013-04-27 13:26:00,
2013-04-27 08:27:00,59.9,24.0,29.94,NNW,338,7.4,7.4,25,0.00,,,0.00,VWS V14.01,2013-04-27 13:27:00,
2013-04-27 08:28:00,59.9,24.0,29.94,NNW,338,7.4,7.4,25,0.00,,,0.00,VWS V14.01,2013-04-27 13:28:00,
2013-04-27 08:29:00,60.1,24.2,29.94,NW,315,3.4,3.4,25,0.00,,,0.00,VWS V14.01,2013-04-27 13:29:00,
2013-04-27 08:30:00,60.1,24.2,29.94,NNW,338,4.0,4.0,25,0.00,,,0.00,VWS V14.01,2013-04-27 13:30:00,
2013-04-27 08:31:00,60.4,24.5,29.94,NNW,338,4.7,4.7,25,0.00,,,0.00,VWS V14.01,2013-04-27 13:31:00,
2013-04-27 08:32:00,60.6,24.6,29.94,NNW,338,8.7,8.7,25,0.00,,,0.00,VWS V14.01,2013-04-27 13:32:00,
2013-04-27 08:33:00,60.6,24.6,29.94,West,270,4.7,4.7,25,0.00,,,0.00,VWS V14.01,2013-04-27 13:33:00,
2013-04-27 08:34:00,60.6,24.6,29.94,WSW,248,10.1,10.1,25,0.00,,,0.00,VWS V14.01,2013-04-27 13:34:00,
2013-04-27 08:35:00,60.6,24.6,29.94,SSE,158,4.0,5.4,25,0.00,,,0.00,VWS V14.01,2013-04-27 13:35:00,
2013-04-27 08:36:00,60.6,24.6,29.94,South,180,3.4,3.4,25,0.00,,,0.00,VWS V14.01,2013-04-27 13:36:00,
2013-04-27 08:37:00,60.8,24.8,29.94,WSW,248,12.1,12.1,25,0.00,,,0.00,VWS V14.01,2013-04-27 13:37:00,
2013-04-27 08:38:00,61.0,24.0,29.94,West,270,9.4,9.4,24,0.00,,,0.00,VWS V14.01,2013-04-27 13:38:00,
2013-04-27 08:39:00,61.2,24.1,29.94,SSE,158,6.0,6.0,24,0.00,,,0.00,VWS V14.01,2013-04-27 13:39:00,
2013-04-27 08:40:00,61.3,24.3,29.94,WSW,248,10.1,10.1,24,0.00,,,0.00,VWS V14.01,2013-04-27 13:40:00,
2013-04-27 08:41:00,61.5,24.4,29.94,SSE,158,11.4,11.4,24,0.00,,,0.00,VWS V14.01,2013-04-27 13:41:00,
2013-04-27 08:42:00,61.5,24.4,29.94,WSW,248,8.1,8.1,24,0.00,,,0.00,VWS V14.01,2013-04-27 13:42:00,
2013-04-27 08:43:00,61.7,24.6,29.94,South,180,4.0,4.0,24,0.00,,,0.00,VWS V14.01,2013-04-27 13:43:00,
2013-04-27 08:44:00,61.7,24.6,29.94,WSW,248,8.7,8.7,24,0.00,,,0.00,VWS V14.01,2013-04-27 13:44:00,
2013-04-27 08:45:00,61.9,24.7,29.94,WSW,248,10.7,10.7,24,0.00,,,0.00,VWS V14.01,2013-04-27 13:45:00,
2013-04-27 08:46:00,62.1,24.9,29.94,SSW,202,7.4,7.4,24,0.00,,,0.00,VWS V14.01,2013-04-27 13:46:00,
2013-04-27 08:47:00,62.4,25.2,29.94,SSW,202,7.4,7.4,24,0.00,,,0.00,VWS V14.01,2013-04-27 13:47:00,
2013-04-27 08:48:00,62.4,25.2,29.94,South,180,6.0,6.0,24,0.00,,,0.00,VWS V14.01,2013-04-27 13:48:00,
2013-04-27 08:49:00,62.6,24.3,29.94,West,270,10.1,10.1,23,0.00,,,0.00,VWS V14.01,2013-04-27 13:49:00,
2013-04-27 08:50:00,62.6,24.3,29.94,South,180,4.7,4.7,23,0.00,,,0.00,VWS V14.01,2013-04-27 13:50:00,
2013-04-27 08:51:00,62.8,24.5,29.94,South,180,10.1,10.1,23,0.00,,,0.00,VWS V14.01,2013-04-27 13:51:00,
2013-04-27 08:52:00,62.8,24.5,29.94,WSW,248,7.4,7.4,23,0.00,,,0.00,VWS V14.01,2013-04-27 13:52:00,
2013-04-27 08:53:00,62.8,24.5,29.94,WSW,248,4.7,6.3,23,0.00,,,0.00,VWS V14.01,2013-04-27 13:53:00,
2013-04-27 08:54:00,63.0,24.6,29.94,WNW,292,6.0,6.0,23,0.00,,,0.00,VWS V14.01,2013-04-27 13:54:00,
2013-04-27 08:55:00,63.1,24.8,29.94,WSW,248,10.7,10.7,23,0.00,,,0.00,VWS V14.01,2013-04-27 13:55:00,
2013-04-27 08:56:00,63.1,24.8,29.91,West,270,8.1,8.1,23,0.00,,,0.00,VWS V14.01,2013-04-27 13:56:00,
2013-04-27 08:57:00,63.3,24.9,29.91,North,0,12.8,12.8,23,0.00,,,0.00,VWS V14.01,2013-04-27 13:57:00,
2013-04-27 08:58:00,63.5,25.1,29.91,SE,135,8.1,8.1,23,0.00,,,0.00,VWS V14.01,2013-04-27 13:58:00,
2013-04-27 08:59:00,63.7,25.2,29.91,WSW,248,3.4,3.4,23,0.00,,,0.00,VWS V14.01,2013-04-27 13:59:00,
2013-04-27 09:00:00,63.9,25.4,29.91,WNW,292,6.0,6.0,23,0.00,,,0.00,VWS V14.01,2013-04-27 14:00:00,
2013-04-27 09:01:00,64.0,25.5,29.91,SW,225,8.7,8.7,23,0.00,,,0.00,VWS V14.01,2013-04-27 14:01:00,
2013-04-27 09:02:00,64.4,25.8,29.91,SW,225,10.7,10.7,23,0.00,,,0.00,VWS V14.01,2013-04-27 14:02:00,
2013-04-27 09:03:00,64.8,26.1,29.91,SSW,202,10.7,10.7,23,0.00,,,0.00,VWS V14.01,2013-04-27 14:03:00,
2013-04-27 09:04:00,64.8,22.8,29.91,South,180,10.1,10.1,20,0.00,,,0.00,VWS V14.01,2013-04-27 14:04:00,
2013-04-27 09:05:00,64.8,26.1,29.91,South,180,10.7,10.7,23,0.00,,,0.00,VWS V14.01,2013-04-27 14:05:00,
2013-04-27 09:06:00,64.9,22.9,29.91,South,180,10.1,10.1,20,0.00,,,0.00,VWS V14.01,2013-04-27 14:06:00,
2013-04-27 09:07:00,65.1,23.1,29.91,South,180,12.1,12.1,20,0.00,,,0.00,VWS V14.01,2013-04-27 14:07:00,
2013-04-27 09:08:00,64.9,22.9,29.91,SSW,202,4.7,5.4,20,0.00,,,0.00,VWS V14.01,2013-04-27 14:08:00,
2013-04-27 09:09:00,64.9,22.9,29.91,South,180,3.4,3.4,20,0.00,,,0.00,VWS V14.01,2013-04-27 14:09:00,
2013-04-27 09:10:00,65.1,23.1,29.91,SSW,202,11.4,11.4,20,0.00,,,0.00,VWS V14.01,2013-04-27 14:10:00,
2013-04-27 09:11:00,65.1,23.1,29.91,WSW,248,4.0,4.0,20,0.00,,,0.00,VWS V14.01,2013-04-27 14:11:00,
2013-04-27 09:12:00,65.1,23.1,29.91,SW,225,0.0,3.4,20,0.00,,,0.00,VWS V14.01,2013-04-27 14:12:00,
2013-04-27 09:13:00,65.1,23.1,29.91,SSE,158,8.1,8.1,20,0.00,,,0.00,VWS V14.01,2013-04-27 14:13:00,
2013-04-27 09:14:00,65.1,23.1,29.91,South,180,10.1,10.1,20,0.00,,,0.00,VWS V14.01,2013-04-27 14:14:00,
2013-04-27 09:15:00,65.1,23.1,29.91,SSW,202,7.4,7.4,20,0.00,,,0.00,VWS V14.01,2013-04-27 14:15:00,
2013-04-27 09:16:00,65.1,23.1,29.91,SW,225,4.0,4.0,20,0.00,,,0.00,VWS V14.01,2013-04-27 14:16:00,
2013-04-27 09:17:00,65.3,23.2,29.91,SW,225,10.1,10.1,20,0.00,,,0.00,VWS V14.01,2013-04-27 14:17:00,
2013-04-27 09:18:00,65.1,23.1,29.91,South,180,6.7,6.7,20,0.00,,,0.00,VWS V14.01,2013-04-27 14:18:00,
2013-04-27 09:19:00,65.3,23.2,29.91,South,180,8.1,8.1,20,0.00,,,0.00,VWS V14.01,2013-04-27 14:19:00,
2013-04-27 09:20:00,65.7,23.5,29.91,SSW,202,7.4,7.4,20,0.00,,,0.00,VWS V14.01,2013-04-27 14:20:00,
2013-04-27 09:21:00,65.8,23.7,29.91,SSE,158,11.4,11.4,20,0.00,,,0.00,VWS V14.01,2013-04-27 14:21:00,
2013-04-27 09:22:00,65.8,23.7,29.91,South,180,8.7,8.7,20,0.00,,,0.00,VWS V14.01,2013-04-27 14:22:00,
2013-04-27 09:23:00,66.0,23.8,29.91,South,180,22.2,22.2,20,0.00,,,0.00,VWS V14.01,2013-04-27 14:23:00,
2013-04-27 09:24:00,66.0,21.3,29.91,South,180,16.8,16.8,18,0.00,,,0.00,VWS V14.01,2013-04-27 14:24:00,
2013-04-27 09:25:00,65.8,21.2,29.91,West,270,18.8,18.8,18,0.00,,,0.00,VWS V14.01,2013-04-27 14:25:00,
2013-04-27 09:26:00,65.8,21.2,29.91,South,180,8.7,8.7,18,0.00,,,0.00,VWS V14.01,2013-04-27 14:26:00,
2013-04-27 09:27:00,66.0,21.3,29.91,South,180,12.8,12.8,18,0.00,,,0.00,VWS V14.01,2013-04-27 14:27:00,
2013-04-27 09:28:00,66.2,24.0,29.91,SW,225,10.1,10.1,20,0.00,,,0.00,VWS V14.01,2013-04-27 14:28:00,
2013-04-27 09:29:00,66.4,24.1,29.91,SSW,202,8.1,8.1,20,0.00,,,0.00,VWS V14.01,2013-04-27 14:29:00,
2013-04-27 09:30:00,66.6,20.4,29.91,SSW,202,7.4,7.4,17,0.00,,,0.00,VWS V14.01,2013-04-27 14:30:00,
2013-04-27 09:31:00,66.6,24.3,29.91,SSW,202,4.7,4.7,20,0.00,,,0.00,VWS V14.01,2013-04-27 14:31:00,
2013-04-27 09:32:00,66.9,20.7,29.91,SW,225,10.7,10.7,17,0.00,,,0.00,VWS V14.01,2013-04-27 14:32:00,
2013-04-27 09:33:00,66.9,20.7,29.91,SW,225,8.7,8.7,17,0.00,,,0.00,VWS V14.01,2013-04-27 14:33:00,
2013-04-27 09:34:00,67.1,20.9,29.91,SW,225,8.7,8.7,17,0.00,,,0.00,VWS V14.01,2013-04-27 14:34:00,
2013-04-27 09:35:00,67.3,21.0,29.91,SE,135,6.7,6.7,17,0.00,,,0.00,VWS V14.01,2013-04-27 14:35:00,
2013-04-27 09:36:00,67.5,21.2,29.91,SSW,202,3.4,3.4,17,0.00,,,0.00,VWS V14.01,2013-04-27 14:36:00,
2013-04-27 09:37:00,67.5,21.2,29.91,South,180,8.1,8.1,17,0.00,,,0.00,VWS V14.01,2013-04-27 14:37:00,
2013-04-27 09:38:00,67.8,21.5,29.91,South,180,4.7,4.7,17,0.00,,,0.00,VWS V14.01,2013-04-27 14:38:00,
2013-04-27 09:39:00,68.0,21.6,29.91,SE,135,7.4,7.4,17,0.00,,,0.00,VWS V14.01,2013-04-27 14:39:00,
2013-04-27 09:40:00,68.2,21.7,29.91,West,270,7.4,7.4,17,0.00,,,0.00,VWS V14.01,2013-04-27 14:40:00,
2013-04-27 09:41:00,68.4,21.9,29.91,South,180,7.4,7.4,17,0.00,,,0.00,VWS V14.01,2013-04-27 14:41:00,
2013-04-27 09:42:00,68.5,22.0,29.91,SSW,202,6.0,6.0,17,0.00,,,0.00,VWS V14.01,2013-04-27 14:42:00,
2013-04-27 09:43:00,68.5,22.0,29.91,SE,135,17.5,17.5,17,0.00,,,0.00,VWS V14.01,2013-04-27 14:43:00,
2013-04-27 09:44:00,68.5,22.0,29.91,WSW,248,9.4,9.4,17,0.00,,,0.00,VWS V14.01,2013-04-27 14:44:00,
2013-04-27 09:45:00,68.5,22.0,29.91,SW,225,8.1,8.1,17,0.00,,,0.00,VWS V14.01,2013-04-27 14:45:00,
2013-04-27 09:46:00,68.4,21.9,29.91,SSW,202,8.1,8.1,17,0.00,,,0.00,VWS V14.01,2013-04-27 14:46:00,
2013-04-27 09:47:00,68.5,22.0,29.91,South,180,7.4,7.4,17,0.00,,,0.00,VWS V14.01,2013-04-27 14:47:00,
2013-04-27 09:48:00,68.5,22.0,29.91,West,270,6.7,6.7,17,0.00,,,0.00,VWS V14.01,2013-04-27 14:48:00,
2013-04-27 09:49:00,68.7,22.2,29.91,South,180,9.4,9.4,17,0.00,,,0.00,VWS V14.01,2013-04-27 14:49:00,
2013-04-27 09:50:00,68.9,22.3,29.91,SE,135,9.4,9.4,17,0.00,,,0.00,VWS V14.01,2013-04-27 14:50:00,
2013-04-27 09:51:00,68.9,22.3,29.91,SSE,158,9.4,9.4,17,0.00,,,0.00,VWS V14.01,2013-04-27 14:51:00,
2013-04-27 09:52:00,69.1,22.5,29.91,West,270,12.1,12.1,17,0.00,,,0.00,VWS V14.01,2013-04-27 14:52:00,
2013-04-27 09:53:00,69.1,22.5,29.91,SSW,202,9.4,9.4,17,0.00,,,0.00,VWS V14.01,2013-04-27 14:53:00,
2013-04-27 09:54:00,68.9,22.3,29.91,West,270,10.7,10.7,17,0.00,,,0.00,VWS V14.01,2013-04-27 14:54:00,
2013-04-27 09:55:00,69.1,22.5,29.91,South,180,9.4,9.4,17,0.00,,,0.00,VWS V14.01,2013-04-27 14:55:00,
2013-04-27 09:56:00,69.1,22.5,29.91,WSW,248,17.5,17.5,17,0.00,,,0.00,VWS V14.01,2013-04-27 14:56:00,
2013-04-27 09:57:00,69.1,22.5,29.91,SSW,202,10.1,10.1,17,0.00,,,0.00,VWS V14.01,2013-04-27 14:57:00,
2013-04-27 09:58:00,68.7,22.2,29.91,SW,225,19.5,19.5,17,0.00,,,0.00,VWS V14.01,2013-04-27 14:58:00,
2013-04-27 09:59:00,68.7,22.2,29.91,WSW,248,10.1,10.1,17,0.00,,,0.00,VWS V14.01,2013-04-27 14:59:00,
2013-04-27 10:00:00,68.9,22.3,29.91,WSW,248,8.7,8.7,17,0.00,,,0.00,VWS V14.01,2013-04-27 15:00:00,
2013-04-27 10:01:00,68.9,22.3,29.91,South,180,8.1,8.1,17,0.00,,,0.00,VWS V14.01,2013-04-27 15:01:00,
2013-04-27 10:02:00,68.9,22.3,29.91,West,270,18.1,18.1,17,0.00,,,0.00,VWS V14.01,2013-04-27 15:02:00,
2013-04-27 10:03:00,68.9,22.3,29.91,WSW,248,7.4,7.4,17,0.00,,,0.00,VWS V14.01,2013-04-27 15:03:00,
2013-04-27 10:04:00,69.1,22.5,29.91,SW,225,7.4,7.4,17,0.00,,,0.00,VWS V14.01,2013-04-27 15:04:00,
2013-04-27 10:05:00,69.1,22.5,29.91,SW,225,10.1,10.1,17,0.00,,,0.00,VWS V14.01,2013-04-27 15:05:00,
2013-04-27 10:06:00,69.4,22.8,29.91,South,180,11.4,11.4,17,0.00,,,0.00,VWS V14.01,2013-04-27 15:06:00,
2013-04-27 10:07:00,69.4,22.8,29.91,SSW,202,17.5,17.5,17,0.00,,,0.00,VWS V14.01,2013-04-27 15:07:00,
2013-04-27 10:08:00,69.4,22.8,29.91,SSE,158,10.7,10.7,17,0.00,,,0.00,VWS V14.01,2013-04-27 15:08:00,
2013-04-27 10:09:00,69.6,22.9,29.91,SSE,158,12.1,12.1,17,0.00,,,0.00,VWS V14.01,2013-04-27 15:09:00,
2013-04-27 10:10:00,69.6,22.9,29.91,SSW,202,16.8,16.8,17,0.00,,,0.00,VWS V14.01,2013-04-27 15:10:00,
2013-04-27 10:11:00,69.8,23.1,29.91,SSE,158,16.8,16.8,17,0.00,,,0.00,VWS V14.01,2013-04-27 15:11:00,
2013-04-27 10:12:00,69.8,23.1,29.91,SSW,202,9.4,9.4,17,0.00,,,0.00,VWS V14.01,2013-04-27 15:12:00,
2013-04-27 10:13:00,69.8,23.1,29.91,WSW,248,3.4,3.6,17,0.00,,,0.00,VWS V14.01,2013-04-27 15:13:00,
2013-04-27 10:14:00,70.3,23.5,29.91,WSW,248,8.1,8.1,17,0.00,,,0.00,VWS V14.01,2013-04-27 15:14:00,
2013-04-27 10:15:00,70.5,23.6,29.91,WSW,248,12.1,12.1,17,0.00,,,0.00,VWS V14.01,2013-04-27 15:15:00,
2013-04-27 10:16:00,70.5,23.6,29.91,WNW,292,9.4,9.4,17,0.00,,,0.00,VWS V14.01,2013-04-27 15:16:00,
2013-04-27 10:17:00,70.5,23.6,29.91,ESE,112,14.1,14.1,17,0.00,,,0.00,VWS V14.01,2013-04-27 15:17:00,
2013-04-27 10:18:00,70.5,23.6,29.91,WSW,248,14.1,14.1,17,0.00,,,0.00,VWS V14.01,2013-04-27 15:18:00,
2013-04-27 10:19:00,70.3,23.5,29.91,SSW,202,14.8,14.8,17,0.00,,,0.00,VWS V14.01,2013-04-27 15:19:00,
2013-04-27 10:20:00,70.3,18.9,29.91,SSW,202,8.1,8.1,14,0.00,,,0.00,VWS V14.01,2013-04-27 15:20:00,
2013-04-27 10:21:00,70.5,23.6,29.91,WSW,248,10.1,10.1,17,0.00,,,0.00,VWS V14.01,2013-04-27 15:21:00,
2013-04-27 10:22:00,70.5,23.6,29.91,SW,225,10.1,10.1,17,0.00,,,0.00,VWS V14.01,2013-04-27 15:22:00,
2013-04-27 10:23:00,70.5,23.6,29.91,WSW,248,10.1,10.1,17,0.00,,,0.00,VWS V14.01,2013-04-27 15:23:00,
2013-04-27 10:24:00,70.5,23.6,29.91,WSW,248,10.1,10.1,17,0.00,,,0.00,VWS V14.01,2013-04-27 15:24:00,
2013-04-27 10:25:00,71.1,24.1,29.91,SW,225,8.7,8.7,17,0.00,,,0.00,VWS V14.01,2013-04-27 15:25:00,
2013-04-27 10:26:00,71.2,19.6,29.88,SSE,158,14.1,14.1,14,0.00,,,0.00,VWS V14.01,2013-04-27 15:26:00,
2013-04-27 10:27:00,71.2,24.2,29.88,West,270,4.7,4.7,17,0.00,,,0.00,VWS V14.01,2013-04-27 15:27:00,
2013-04-27 10:28:00,71.2,19.6,29.88,South,180,13.4,13.4,14,0.00,,,0.00,VWS V14.01,2013-04-27 15:28:00,
2013-04-27 10:29:00,71.2,19.6,29.88,WSW,248,10.1,10.1,14,0.00,,,0.00,VWS V14.01,2013-04-27 15:29:00,
2013-04-27 10:30:00,71.6,23.1,29.88,SSW,202,9.4,9.4,16,0.00,,,0.00,VWS V14.01,2013-04-27 15:30:00,
2013-04-27 10:31:00,71.6,19.9,29.88,SSE,158,8.1,8.1,14,0.00,,,0.00,VWS V14.01,2013-04-27 15:31:00,
2013-04-27 10:32:00,71.8,23.2,29.88,WNW,292,4.0,4.3,16,0.00,,,0.00,VWS V14.01,2013-04-27 15:32:00,
2013-04-27 10:33:00,72.5,23.8,29.88,SSW,202,10.1,10.1,16,0.00,,,0.00,VWS V14.01,2013-04-27 15:33:00,
2013-04-27 10:34:00,72.5,23.8,29.88,South,180,11.4,11.4,16,0.00,,,0.00,VWS V14.01,2013-04-27 15:34:00,
2013-04-27 10:35:00,72.5,20.6,29.88,South,180,12.8,12.8,14,0.00,,,0.00,VWS V14.01,2013-04-27 15:35:00,
2013-04-27 10:36:00,72.5,20.6,29.88,SSE,158,8.7,8.7,14,0.00,,,0.00,VWS V14.01,2013-04-27 15:36:00,
2013-04-27 10:37:00,72.3,20.5,29.88,SSW,202,12.1,12.1,14,0.00,,,0.00,VWS V14.01,2013-04-27 15:37:00,
2013-04-27 10:38:00,72.3,20.5,29.88,South,180,9.4,9.4,14,0.00,,,0.00,VWS V14.01,2013-04-27 15:38:00,
2013-04-27 10:39:00,72.3,20.5,29.88,SE,135,14.8,14.8,14,0.00,,,0.00,VWS V14.01,2013-04-27 15:39:00,
2013-04-27 10:40:00,72.3,20.5,29.88,SSW,202,10.1,10.1,14,0.00,,,0.00,VWS V14.01,2013-04-27 15:40:00,
2013-04-27 10:41:00,72.3,20.5,29.88,SSW,202,10.1,10.1,14,0.00,,,0.00,VWS V14.01,2013-04-27 15:41:00,
2013-04-27 10:42:00,72.5,23.8,29.88,South,180,7.4,7.4,16,0.00,,,0.00,VWS V14.01,2013-04-27 15:42:00,
2013-04-27 10:43:00,72.5,20.6,29.88,South,180,16.1,16.1,14,0.00,,,0.00,VWS V14.01,2013-04-27 15:43:00,
2013-04-27 10:44:00,72.3,20.5,29.88,WSW,248,23.5,23.5,14,0.00,,,0.00,VWS V14.01,2013-04-27 15:44:00,
2013-04-27 10:45:00,72.3,20.5,29.88,SSW,202,9.4,9.4,14,0.00,,,0.00,VWS V14.01,2013-04-27 15:45:00,
2013-04-27 10:46:00,72.1,20.4,29.88,SSW,202,16.1,16.1,14,0.00,,,0.00,VWS V14.01,2013-04-27 15:46:00,
2013-04-27 10:47:00,72.1,20.4,29.88,SSW,202,14.8,14.8,14,0.00,,,0.00,VWS V14.01,2013-04-27 15:47:00,
2013-04-27 10:48:00,72.0,20.2,29.88,SSW,202,10.1,10.1,14,0.00,,,0.00,VWS V14.01,2013-04-27 15:48:00,
2013-04-27 10:49:00,72.0,20.2,29.88,South,180,12.1,12.1,14,0.00,,,0.00,VWS V14.01,2013-04-27 15:49:00,
2013-04-27 10:50:00,72.1,20.4,29.88,South,180,11.4,11.4,14,0.00,,,0.00,VWS V14.01,2013-04-27 15:50:00,
2013-04-27 10:51:00,72.0,20.2,29.88,West,270,6.0,6.0,14,0.00,,,0.00,VWS V14.01,2013-04-27 15:51:00,
2013-04-27 10:52:00,72.0,20.2,29.88,SSW,202,8.7,8.7,14,0.00,,,0.00,VWS V14.01,2013-04-27 15:52:00,
2013-04-27 10:53:00,71.4,19.8,29.88,SW,225,8.7,8.7,14,0.00,,,0.00,VWS V14.01,2013-04-27 15:53:00,
2013-04-27 10:54:00,71.4,19.8,29.88,South,180,12.1,12.1,14,0.00,,,0.00,VWS V14.01,2013-04-27 15:54:00,
2013-04-27 10:55:00,71.4,19.8,29.88,ESE,112,8.1,8.1,14,0.00,,,0.00,VWS V14.01,2013-04-27 15:55:00,
2013-04-27 10:56:00,71.2,19.6,29.88,South,180,12.8,12.8,14,0.00,,,0.00,VWS V14.01,2013-04-27 15:56:00,
2013-04-27 10:57:00,71.1,19.5,29.88,SSW,202,22.2,22.2,14,0.00,,,0.00,VWS V14.01,2013-04-27 15:57:00,
2013-04-27 10:58:00,71.1,19.5,29.88,SSW,202,18.8,18.8,14,0.00,,,0.00,VWS V14.01,2013-04-27 15:58:00,
2013-04-27 10:59:00,70.7,19.2,29.88,SSW,202,16.1,16.1,14,0.00,,,0.00,VWS V14.01,2013-04-27 15:59:00,
2013-04-27 11:00:00,70.7,19.2,29.88,WSW,248,11.4,11.4,14,0.00,,,0.00,VWS V14.01,2013-04-27 16:00:00,
2013-04-27 11:01:00,70.5,19.1,29.88,WSW,248,10.7,10.7,14,0.00,,,0.00,VWS V14.01,2013-04-27 16:01:00,
2013-04-27 11:02:00,70.7,19.2,29.88,WSW,248,10.7,10.7,14,0.00,,,0.00,VWS V14.01,2013-04-27 16:02:00,
2013-04-27 11:03:00,71.1,19.5,29.88,WSW,248,10.7,10.7,14,0.00,,,0.00,VWS V14.01,2013-04-27 16:03:00,
2013-04-27 11:04:00,71.4,19.8,29.88,NW,315,12.8,12.8,14,0.00,,,0.00,VWS V14.01,2013-04-27 16:04:00,
2013-04-27 11:05:00,71.8,20.1,29.88,South,180,10.7,10.7,14,0.00,,,0.00,VWS V14.01,2013-04-27 16:05:00,
2013-04-27 11:06:00,72.1,20.4,29.88,SSW,202,8.1,8.1,14,0.00,,,0.00,VWS V14.01,2013-04-27 16:06:00,
2013-04-27 11:07:00,72.3,20.5,29.88,South,180,12.8,12.8,14,0.00,,,0.00,VWS V14.01,2013-04-27 16:07:00,
2013-04-27 11:08:00,72.5,20.6,29.88,SSE,158,10.1,10.1,14,0.00,,,0.00,VWS V14.01,2013-04-27 16:08:00,
2013-04-27 11:09:00,73.0,21.1,29.88,SSE,158,10.1,10.1,14,0.00,,,0.00,VWS V14.01,2013-04-27 16:09:00,
2013-04-27 11:10:00,72.7,20.8,29.88,SW,225,12.1,12.1,14,0.00,,,0.00,VWS V14.01,2013-04-27 16:10:00,
2013-04-27 11:11:00,73.0,21.1,29.88,SSE,158,6.7,6.7,14,0.00,,,0.00,VWS V14.01,2013-04-27 16:11:00,
2013-04-27 11:12:00,73.0,21.1,29.88,SW,225,12.1,12.1,14,0.00,,,0.00,VWS V14.01,2013-04-27 16:12:00,
2013-04-27 11:13:00,73.2,21.2,29.88,SSW,202,7.4,7.4,14,0.00,,,0.00,VWS V14.01,2013-04-27 16:13:00,
2013-04-27 11:14:00,73.6,19.8,29.88,South,180,10.1,10.1,13,0.00,,,0.00,VWS V14.01,2013-04-27 16:14:00,
2013-04-27 11:15:00,73.6,19.8,29.88,SSW,202,12.8,12.8,13,0.00,,,0.00,VWS V14.01,2013-04-27 16:15:00,
2013-04-27 11:16:00,73.8,19.9,29.88,SSW,202,10.7,10.7,13,0.00,,,0.00,VWS V14.01,2013-04-27 16:16:00,
2013-04-27 11:17:00,73.8,19.9,29.88,SE,135,8.1,8.1,13,0.00,,,0.00,VWS V14.01,2013-04-27 16:17:00,
2013-04-27 11:18:00,74.1,20.2,29.88,SE,135,8.1,8.1,13,0.00,,,0.00,VWS V14.01,2013-04-27 16:18:00,
2013-04-27 11:19:00,73.9,20.0,29.88,SSW,202,14.1,14.1,13,0.00,,,0.00,VWS V14.01,2013-04-27 16:19:00,
2013-04-27 11:20:00,74.3,20.3,29.88,WSW,248,8.1,8.1,13,0.00,,,0.00,VWS V14.01,2013-04-27 16:20:00,
2013-04-27 11:21:00,74.3,20.3,29.88,WSW,248,8.1,8.1,13,0.00,,,0.00,VWS V14.01,2013-04-27 16:21:00,
2013-04-27 11:22:00,74.5,20.5,29.88,South,180,8.7,8.7,13,0.00,,,0.00,VWS V14.01,2013-04-27 16:22:00,
2013-04-27 11:23:00,74.3,20.3,29.88,SSW,202,18.8,18.8,13,0.00,,,0.00,VWS V14.01,2013-04-27 16:23:00,
2013-04-27 11:24:00,74.3,20.3,29.88,SSW,202,12.8,12.8,13,0.00,,,0.00,VWS V14.01,2013-04-27 16:24:00,
2013-04-27 11:25:00,74.3,20.3,29.85,SW,225,13.4,13.4,13,0.00,,,0.00,VWS V14.01,2013-04-27 16:25:00,
2013-04-27 11:26:00,74.3,20.3,29.85,SSW,202,14.8,14.8,13,0.00,,,0.00,VWS V14.01,2013-04-27 16:26:00,
2013-04-27 11:27:00,74.1,20.2,29.85,SW,225,8.7,8.7,13,0.00,,,0.00,VWS V14.01,2013-04-27 16:27:00,
2013-04-27 11:28:00,74.3,20.3,29.85,WSW,248,8.1,8.1,13,0.00,,,0.00,VWS V14.01,2013-04-27 16:28:00,
2013-04-27 11:29:00,74.5,20.5,29.85,West,270,4.7,4.7,13,0.00,,,0.00,VWS V14.01,2013-04-27 16:29:00,
2013-04-27 11:30:00,74.7,20.6,29.85,West,270,8.7,8.7,13,0.00,,,0.00,VWS V14.01,2013-04-27 16:30:00,
2013-04-27 11:31:00,74.7,20.6,29.85,NE,45,12.8,12.8,13,0.00,,,0.00,VWS V14.01,2013-04-27 16:31:00,
2013-04-27 11:32:00,74.8,20.7,29.85,South,180,6.7,6.7,13,0.00,,,0.00,VWS V14.01,2013-04-27 16:32:00,
2013-04-27 11:33:00,74.5,20.5,29.85,South,180,6.7,6.7,13,0.00,,,0.00,VWS V14.01,2013-04-27 16:33:00,
2013-04-27 11:34:00,74.3,20.3,29.85,SE,135,17.5,17.5,13,0.00,,,0.00,VWS V14.01,2013-04-27 16:34:00,
2013-04-27 11:35:00,74.1,20.2,29.85,WSW,248,12.1,12.1,13,0.00,,,0.00,VWS V14.01,2013-04-27 16:35:00,
2013-04-27 11:36:00,74.3,20.3,29.85,South,180,6.0,6.0,13,0.00,,,0.00,VWS V14.01,2013-04-27 16:36:00,
2013-04-27 11:37:00,74.5,20.5,29.85,SSW,202,6.7,6.7,13,0.00,,,0.00,VWS V14.01,2013-04-27 16:37:00,
2013-04-27 11:38:00,74.5,20.5,29.85,SW,225,7.4,7.4,13,0.00,,,0.00,VWS V14.01,2013-04-27 16:38:00,
2013-04-27 11:39:00,74.7,20.6,29.85,SSW,202,7.4,7.4,13,0.00,,,0.00,VWS V14.01,2013-04-27 16:39:00,
2013-04-27 11:40:00,74.8,20.7,29.85,South,180,16.8,16.8,13,0.00,,,0.00,VWS V14.01,2013-04-27 16:40:00,
2013-04-27 11:41:00,74.7,20.6,29.88,South,180,16.8,16.8,13,0.00,,,0.00,VWS V14.01,2013-04-27 16:41:00,
2013-04-27 11:42:00,74.5,20.5,29.88,West,270,8.1,8.1,13,0.00,,,0.00,VWS V14.01,2013-04-27 16:42:00,
2013-04-27 11:43:00,74.7,20.6,29.88,WSW,248,8.1,8.1,13,0.00,,,0.00,VWS V14.01,2013-04-27 16:43:00,
2013-04-27 11:44:00,74.5,20.5,29.88,WSW,248,11.4,11.4,13,0.00,,,0.00,VWS V14.01,2013-04-27 16:44:00,
2013-04-27 11:45:00,74.5,20.5,29.88,WSW,248,11.4,11.4,13,0.00,,,0.00,VWS V14.01,2013-04-27 16:45:00,
2013-04-27 11:46:00,74.5,20.5,29.88,WSW,248,11.4,11.4,13,0.00,,,0.00,VWS V14.01,2013-04-27 16:46:00,
2013-04-27 11:47:00,74.3,20.3,29.88,WSW,248,11.4,11.4,13,0.00,,,0.00,VWS V14.01,2013-04-27 16:47:00,
2013-04-27 11:48:00,74.3,20.3,29.88,South,180,10.1,10.1,13,0.00,,,0.00,VWS V14.01,2013-04-27 16:48:00,
2013-04-27 11:49:00,74.1,20.2,29.88,SSW,202,20.1,20.1,13,0.00,,,0.00,VWS V14.01,2013-04-27 16:49:00,
2013-04-27 11:50:00,74.1,20.2,29.88,SSW,202,20.1,20.1,13,0.00,,,0.00,VWS V14.01,2013-04-27 16:50:00,
2013-04-27 11:51:00,74.5,20.5,29.88,South,180,9.4,9.4,13,0.00,,,0.00,VWS V14.01,2013-04-27 16:51:00,
2013-04-27 11:52:00,74.3,20.3,29.88,SSW,202,6.0,6.7,13,0.00,,,0.00,VWS V14.01,2013-04-27 16:52:00,
2013-04-27 11:53:00,74.5,20.5,29.88,South,180,12.1,12.1,13,0.00,,,0.00,VWS V14.01,2013-04-27 16:53:00,
2013-04-27 11:54:00,75.0,20.9,29.88,South,180,12.1,12.1,13,0.00,,,0.00,VWS V14.01,2013-04-27 16:54:00,
2013-04-27 11:55:00,74.8,20.7,29.88,South,180,12.1,12.1,13,0.00,,,0.00,VWS V14.01,2013-04-27 16:55:00,
2013-04-27 11:56:00,75.0,20.9,29.88,WSW,248,4.0,4.0,13,0.00,,,0.00,VWS V14.01,2013-04-27 16:56:00,
2013-04-27 11:57:00,75.2,21.0,29.88,WSW,248,16.1,16.1,13,0.00,,,0.00,VWS V14.01,2013-04-27 16:57:00,
2013-04-27 11:58:00,75.2,21.0,29.88,WSW,248,10.1,10.1,13,0.00,,,0.00,VWS V14.01,2013-04-27 16:58:00,
2013-04-27 11:59:00,75.2,21.0,29.88,South,180,23.5,23.5,13,0.00,,,0.00,VWS V14.01,2013-04-27 16:59:00,
2013-04-27 12:00:00,74.7,20.6,29.88,SSW,202,12.1,12.1,13,0.00,,,0.00,VWS V14.01,2013-04-27 17:00:00,
2013-04-27 12:01:00,75.0,20.9,29.88,SSE,158,4.7,6.0,13,0.00,,,0.00,VWS V14.01,2013-04-27 17:01:00,
2013-04-27 12:02:00,74.8,20.7,29.88,SW,225,16.8,16.8,13,0.00,,,0.00,VWS V14.01,2013-04-27 17:02:00,
2013-04-27 12:03:00,75.2,21.0,29.88,SSW,202,9.4,9.4,13,0.00,,,0.00,VWS V14.01,2013-04-27 17:03:00,
2013-04-27 12:04:00,75.6,21.3,29.88,SSW,202,9.4,9.4,13,0.00,,,0.00,VWS V14.01,2013-04-27 17:04:00,
2013-04-27 12:05:00,75.7,21.5,29.88,SSW,202,7.4,7.4,13,0.00,,,0.00,VWS V14.01,2013-04-27 17:05:00,
2013-04-27 12:06:00,76.5,22.0,29.88,ESE,112,4.0,4.0,13,0.00,,,0.00,VWS V14.01,2013-04-27 17:06:00,
2013-04-27 12:07:00,76.1,21.7,29.88,ESE,112,4.0,4.0,13,0.00,,,0.00,VWS V14.01,2013-04-27 17:07:00,
2013-04-27 12:08:00,76.3,21.9,29.88,ESE,112,4.0,4.0,13,0.00,,,0.00,VWS V14.01,2013-04-27 17:08:00,
2013-04-27 12:09:00,76.5,22.0,29.88,WSW,248,6.0,6.0,13,0.00,,,0.00,VWS V14.01,2013-04-27 17:09:00,
2013-04-27 12:10:00,76.3,21.9,29.88,WSW,248,6.0,6.0,13,0.00,,,0.00,VWS V14.01,2013-04-27 17:10:00,
2013-04-27 12:11:00,75.6,21.3,29.85,West,270,8.1,8.1,13,0.00,,,0.00,VWS V14.01,2013-04-27 17:11:00,
2013-04-27 12:12:00,75.6,21.3,29.85,West,270,8.1,8.1,13,0.00,,,0.00,VWS V14.01,2013-04-27 17:12:00,
2013-04-27 12:13:00,75.9,21.6,29.85,West,270,8.1,8.1,13,0.00,,,0.00,VWS V14.01,2013-04-27 17:13:00,
2013-04-27 12:14:00,75.7,21.5,29.85,West,270,8.1,8.1,13,0.00,,,0.00,VWS V14.01,2013-04-27 17:14:00,
2013-04-27 12:15:00,75.6,21.3,29.85,West,270,8.1,8.1,13,0.00,,,0.00,VWS V14.01,2013-04-27 17:15:00,
2013-04-27 12:16:00,75.6,21.3,29.85,WSW,248,8.7,8.7,13,0.00,,,0.00,VWS V14.01,2013-04-27 17:16:00,
2013-04-27 12:17:00,75.4,21.2,29.85,SSW,202,7.4,7.4,13,0.00,,,0.00,VWS V14.01,2013-04-27 17:17:00,
2013-04-27 12:18:00,75.7,21.5,29.85,WNW,292,12.8,12.8,13,0.00,,,0.00,VWS V14.01,2013-04-27 17:18:00,
2013-04-27 12:19:00,75.7,21.5,29.85,West,270,9.4,9.4,13,0.00,,,0.00,VWS V14.01,2013-04-27 17:19:00,
2013-04-27 12:20:00,75.7,21.5,29.85,West,270,8.1,8.1,13,0.00,,,0.00,VWS V14.01,2013-04-27 17:20:00,
2013-04-27 12:21:00,76.1,21.7,29.85,SSW,202,11.4,11.4,13,0.00,,,0.00,VWS V14.01,2013-04-27 17:21:00,
2013-04-27 12:22:00,75.9,21.6,29.85,WSW,248,10.1,10.1,13,0.00,,,0.00,VWS V14.01,2013-04-27 17:22:00,
2013-04-27 12:23:00,76.3,21.9,29.85,ESE,112,8.7,8.7,13,0.00,,,0.00,VWS V14.01,2013-04-27 17:23:00,
2013-04-27 12:24:00,76.6,22.1,29.85,ESE,112,8.7,8.7,13,0.00,,,0.00,VWS V14.01,2013-04-27 17:24:00,
2013-04-27 12:25:00,77.4,22.7,29.85,SW,225,8.1,8.1,13,0.00,,,0.00,VWS V14.01,2013-04-27 17:25:00,
2013-04-27 12:26:00,78.1,23.3,29.85,SSE,158,4.0,4.0,13,0.00,,,0.00,VWS V14.01,2013-04-27 17:26:00,
2013-04-27 12:27:00,78.1,23.3,29.85,SSE,158,4.0,4.0,13,0.00,,,0.00,VWS V14.01,2013-04-27 17:27:00,
2013-04-27 12:28:00,78.1,23.3,29.85,SSW,202,23.5,23.5,13,0.00,,,0.00,VWS V14.01,2013-04-27 17:28:00,
2013-04-27 12:29:00,78.1,23.3,29.85,SSW,202,23.5,23.5,13,0.00,,,0.00,VWS V14.01,2013-04-27 17:29:00,
2013-04-27 12:30:00,77.7,23.0,29.85,SSW,202,4.0,7.8,13,0.00,,,0.00,VWS V14.01,2013-04-27 17:30:00,
2013-04-27 12:31:00,77.5,22.9,29.85,SSW,202,9.4,9.4,13,0.00,,,0.00,VWS V14.01,2013-04-27 17:31:00,
2013-04-27 12:32:00,77.5,22.9,29.85,SSW,202,9.4,9.4,13,0.00,,,0.00,VWS V14.01,2013-04-27 17:32:00,
2013-04-27 12:33:00,77.7,23.0,29.85,South,180,14.1,14.1,13,0.00,,,0.00,VWS V14.01,2013-04-27 17:33:00,
2013-04-27 12:34:00,77.5,22.9,29.85,SW,225,9.4,9.4,13,0.00,,,0.00,VWS V14.01,2013-04-27 17:34:00,
2013-04-27 12:35:00,77.4,22.7,29.85,South,180,16.8,16.8,13,0.00,,,0.00,VWS V14.01,2013-04-27 17:35:00,
2013-04-27 12:36:00,77.0,22.4,29.85,SSW,202,13.4,13.4,13,0.00,,,0.00,VWS V14.01,2013-04-27 17:36:00,
2013-04-27 12:37:00,76.6,22.1,29.85,SSW,202,13.4,13.4,13,0.00,,,0.00,VWS V14.01,2013-04-27 17:37:00,
2013-04-27 12:38:00,76.6,22.1,29.85,SW,225,8.1,8.1,13,0.00,,,0.00,VWS V14.01,2013-04-27 17:38:00,
2013-04-27 12:39:00,76.8,22.3,29.85,South,180,12.8,12.8,13,0.00,,,0.00,VWS V14.01,2013-04-27 17:39:00,
2013-04-27 12:40:00,77.2,22.6,29.85,West,270,4.7,4.7,13,0.00,,,0.00,VWS V14.01,2013-04-27 17:40:00,
2013-04-27 12:41:00,77.2,22.6,29.85,WSW,248,4.7,4.7,13,0.00,,,0.00,VWS V14.01,2013-04-27 17:41:00,
2013-04-27 12:42:00,77.5,22.9,29.85,WSW,248,4.7,4.7,13,0.00,,,0.00,VWS V14.01,2013-04-27 17:42:00,
2013-04-27 12:43:00,77.5,22.9,29.85,West,270,10.1,10.1,13,0.00,,,0.00,VWS V14.01,2013-04-27 17:43:00,
2013-04-27 12:44:00,77.5,22.9,29.85,SSW,202,10.7,10.7,13,0.00,,,0.00,VWS V14.01,2013-04-27 17:44:00,
2013-04-27 12:45:00,77.7,23.0,29.85,SSW,202,10.7,10.7,13,0.00,,,0.00,VWS V14.01,2013-04-27 17:45:00,
2013-04-27 12:46:00,77.9,23.1,29.85,SSW,202,8.1,8.1,13,0.00,,,0.00,VWS V14.01,2013-04-27 17:46:00,
2013-04-27 12:47:00,78.3,23.4,29.85,North,0,6.0,6.0,13,0.00,,,0.00,VWS V14.01,2013-04-27 17:47:00,
2013-04-27 12:48:00,78.3,23.4,29.85,SE,135,6.0,6.0,13,0.00,,,0.00,VWS V14.01,2013-04-27 17:48:00,
2013-04-27 12:49:00,78.6,23.7,29.85,SSW,202,9.4,9.4,13,0.00,,,0.00,VWS V14.01,2013-04-27 17:49:00,
2013-04-27 12:50:00,78.6,23.7,29.85,SW,225,22.2,22.2,13,0.00,,,0.00,VWS V14.01,2013-04-27 17:50:00,
2013-04-27 12:51:00,78.6,23.7,29.85,South,180,7.4,7.4,13,0.00,,,0.00,VWS V14.01,2013-04-27 17:51:00,
2013-04-27 12:52:00,79.0,22.1,29.85,SW,225,6.0,7.4,12,0.00,,,0.00,VWS V14.01,2013-04-27 17:52:00,
2013-04-27 12:53:00,79.0,22.1,29.85,SSW,202,8.1,8.1,12,0.00,,,0.00,VWS V14.01,2013-04-27 17:53:00,
2013-04-27 12:54:00,79.3,22.4,29.85,SW,225,11.4,11.4,12,0.00,,,0.00,VWS V14.01,2013-04-27 17:54:00,
2013-04-27 12:55:00,79.2,22.2,29.85,SSW,202,8.7,8.7,12,0.00,,,0.00,VWS V14.01,2013-04-27 17:55:00,
2013-04-27 12:56:00,79.2,22.2,29.82,SSW,202,8.7,8.7,12,0.00,,,0.00,VWS V14.01,2013-04-27 17:56:00,
2013-04-27 12:57:00,78.8,22.0,29.82,SSE,158,12.8,12.8,12,0.00,,,0.00,VWS V14.01,2013-04-27 17:57:00,
2013-04-27 12:58:00,78.4,23.6,29.82,SW,225,26.2,26.2,13,0.00,,,0.00,VWS V14.01,2013-04-27 17:58:00,
2013-04-27 12:59:00,77.9,23.1,29.82,WSW,248,10.7,10.7,13,0.00,,,0.00,VWS V14.01,2013-04-27 17:59:00,
2013-04-27 13:00:00,77.5,22.9,29.82,WSW,248,10.7,10.7,13,0.00,,,0.00,VWS V14.01,2013-04-27 18:00:00,
2013-04-27 13:01:00,77.2,22.6,29.82,SW,225,9.4,9.4,13,0.00,,,0.00,VWS V14.01,2013-04-27 18:01:00,
2013-04-27 13:02:00,77.2,22.6,29.82,SW,225,9.4,9.4,13,0.00,,,1.58,VWS V14.01,2013-04-27 18:02:00,
2013-04-27 13:03:00,77.7,23.0,29.82,South,180,16.1,16.1,13,0.00,,,1.58,VWS V14.01,2013-04-27 18:03:00,
2013-04-27 13:04:00,77.5,22.9,29.82,SSE,158,8.7,8.7,13,0.00,,,1.58,VWS V14.01,2013-04-27 18:04:00,
2013-04-27 13:05:00,77.9,23.1,29.82,SSW,202,12.1,12.1,13,0.00,,,1.58,VWS V14.01,2013-04-27 18:05:00,
2013-04-27 13:06:00,78.4,23.6,29.82,East,90,4.0,4.0,13,0.00,,,1.58,VWS V14.01,2013-04-27 18:06:00,
2013-04-27 13:07:00,78.8,22.0,29.82,East,90,4.0,4.0,12,0.00,,,1.58,VWS V14.01,2013-04-27 18:07:00,
2013-04-27 13:08:00,78.4,23.6,29.82,East,90,4.0,4.0,13,0.00,,,1.58,VWS V14.01,2013-04-27 18:08:00,
2013-04-27 13:09:00,78.4,23.6,29.82,SSE,158,18.8,18.8,13,0.00,,,1.58,VWS V14.01,2013-04-27 18:09:00,
2013-04-27 13:10:00,78.6,23.7,29.82,SSE,158,18.8,18.8,13,0.00,,,1.58,VWS V14.01,2013-04-27 18:10:00,
2013-04-27 13:11:00,78.6,23.7,29.82,SSW,202,10.1,10.1,13,0.00,,,1.58,VWS V14.01,2013-04-27 18:11:00,
2013-04-27 13:12:00,78.6,23.7,29.82,South,180,12.8,12.8,13,0.00,,,1.58,VWS V14.01,2013-04-27 18:12:00,
2013-04-27 13:13:00,78.6,23.7,29.82,SSW,202,18.1,18.1,13,0.00,,,1.58,VWS V14.01,2013-04-27 18:13:00,
2013-04-27 13:14:00,78.3,23.4,29.82,SSW,202,8.1,8.1,13,0.00,,,1.58,VWS V14.01,2013-04-27 18:14:00,
2013-04-27 13:15:00,78.4,23.6,29.82,South,180,4.7,4.7,13,0.00,,,1.58,VWS V14.01,2013-04-27 18:15:00,
2013-04-27 13:16:00,78.3,23.4,29.82,SW,225,12.1,12.1,13,0.00,,,1.58,VWS V14.01,2013-04-27 18:16:00,
2013-04-27 13:17:00,78.3,23.4,29.82,SW,225,12.1,12.1,13,0.00,,,1.58,VWS V14.01,2013-04-27 18:17:00,
2013-04-27 13:18:00,78.4,23.6,29.82,South,180,8.7,8.7,13,0.00,,,1.58,VWS V14.01,2013-04-27 18:18:00,
2013-04-27 13:19:00,78.6,23.7,29.82,South,180,12.1,12.1,13,0.00,,,1.58,VWS V14.01,2013-04-27 18:19:00,
2013-04-27 13:20:00,79.0,22.1,29.82,SW,225,8.7,8.7,12,0.00,,,1.58,VWS V14.01,2013-04-27 18:20:00,
2013-04-27 13:21:00,79.0,22.1,29.82,SW,225,8.7,8.7,12,0.00,,,1.58,VWS V14.01,2013-04-27 18:21:00,
2013-04-27 13:22:00,79.2,22.2,29.82,SSW,202,9.4,9.4,12,0.00,,,1.58,VWS V14.01,2013-04-27 18:22:00,
2013-04-27 13:23:00,79.2,22.2,29.82,ESE,112,4.7,4.7,12,0.00,,,1.58,VWS V14.01,2013-04-27 18:23:00,
2013-04-27 13:24:00,79.7,22.6,29.82,South,180,4.7,4.7,12,0.00,,,1.58,VWS V14.01,2013-04-27 18:24:00,
2013-04-27 13:25:00,80.1,22.9,29.82,SE,135,7.4,7.4,12,0.00,,,1.58,VWS V14.01,2013-04-27 18:25:00,
2013-04-27 13:26:00,80.2,23.1,29.82,SE,135,7.4,7.4,12,0.00,,,1.58,VWS V14.01,2013-04-27 18:26:00,
2013-04-27 13:27:00,79.3,22.4,29.82,SE,135,7.4,7.4,12,0.00,,,1.58,VWS V14.01,2013-04-27 18:27:00,
2013-04-27 13:28:00,79.0,22.1,29.82,SW,225,7.4,7.4,12,0.00,,,1.58,VWS V14.01,2013-04-27 18:28:00,
2013-04-27 13:29:00,79.0,22.1,29.82,SSW,202,8.1,8.1,12,0.00,,,1.58,VWS V14.01,2013-04-27 18:29:00,
2013-04-27 13:30:00,78.8,22.0,29.82,SW,225,11.4,11.4,12,0.00,,,1.58,VWS V14.01,2013-04-27 18:30:00,
2013-04-27 13:31:00,78.6,23.7,29.82,South,180,16.1,16.1,13,0.00,,,1.58,VWS V14.01,2013-04-27 18:31:00,
2013-04-27 13:32:00,78.4,23.6,29.82,SSW,202,6.0,6.0,13,0.00,,,1.58,VWS V14.01,2013-04-27 18:32:00,
2013-04-27 13:33:00,78.3,23.4,29.82,NE,45,12.8,12.8,13,0.00,,,1.58,VWS V14.01,2013-04-27 18:33:00,
2013-04-27 13:34:00,78.3,23.4,29.82,SSW,202,8.7,8.7,13,0.00,,,1.58,VWS V14.01,2013-04-27 18:34:00,
2013-04-27 13:35:00,78.1,23.3,29.82,WNW,292,6.0,6.0,13,0.00,,,1.58,VWS V14.01,2013-04-27 18:35:00,
2013-04-27 13:36:00,78.1,23.3,29.82,NW,315,12.1,12.1,13,0.00,,,1.58,VWS V14.01,2013-04-27 18:36:00,
2013-04-27 13:37:00,78.3,23.4,29.82,SSW,202,10.7,10.7,13,0.00,,,1.58,VWS V14.01,2013-04-27 18:37:00,
2013-04-27 13:38:00,78.4,23.6,29.82,SE,135,9.4,9.4,13,0.00,,,1.58,VWS V14.01,2013-04-27 18:38:00,
2013-04-27 13:39:00,78.8,22.0,29.82,SSE,158,8.7,8.7,12,0.00,,,1.58,VWS V14.01,2013-04-27 18:39:00,
2013-04-27 13:40:00,79.5,22.5,29.82,SSE,158,8.7,8.7,12,0.00,,,1.58,VWS V14.01,2013-04-27 18:40:00,
2013-04-27 13:41:00,79.9,22.8,29.82,SW,225,8.7,8.7,12,0.00,,,1.58,VWS V14.01,2013-04-27 18:41:00,
2013-04-27 13:42:00,80.4,23.2,29.82,SE,135,4.7,4.7,12,0.00,,,1.58,VWS V14.01,2013-04-27 18:42:00,
2013-04-27 13:43:00,80.6,23.4,29.82,SE,135,4.7,4.7,12,0.00,,,1.58,VWS V14.01,2013-04-27 18:43:00,
2013-04-27 13:44:00,80.6,23.4,29.82,SW,225,8.1,8.1,12,0.00,,,1.58,VWS V14.01,2013-04-27 18:44:00,
2013-04-27 13:45:00,80.2,23.1,29.82,SW,225,8.1,8.1,12,0.00,,,1.58,VWS V14.01,2013-04-27 18:45:00,
2013-04-27 13:46:00,80.4,23.2,29.82,SW,225,8.1,8.1,12,0.00,,,1.58,VWS V14.01,2013-04-27 18:46:00,
2013-04-27 13:47:00,80.2,23.1,29.82,SSW,202,10.1,10.1,12,0.00,,,1.58,VWS V14.01,2013-04-27 18:47:00,
2013-04-27 13:48:00,80.2,23.1,29.82,South,180,16.1,16.1,12,0.00,,,1.58,VWS V14.01,2013-04-27 18:48:00,
2013-04-27 13:49:00,80.2,23.1,29.82,South,180,16.1,16.1,12,0.00,,,1.58,VWS V14.01,2013-04-27 18:49:00,
2013-04-27 13:50:00,80.1,22.9,29.82,SSW,202,12.1,12.1,12,0.00,,,1.58,VWS V14.01,2013-04-27 18:50:00,
2013-04-27 13:51:00,80.1,22.9,29.82,South,180,11.4,11.4,12,0.00,,,1.58,VWS V14.01,2013-04-27 18:51:00,
2013-04-27 13:52:00,80.4,23.2,29.82,SW,225,4.7,4.7,12,0.00,,,1.58,VWS V14.01,2013-04-27 18:52:00,
2013-04-27 13:53:00,80.4,23.2,29.82,SW,225,4.7,4.7,12,0.00,,,1.58,VWS V14.01,2013-04-27 18:53:00,
2013-04-27 13:54:00,79.7,22.6,29.82,WSW,248,18.8,18.8,12,0.00,,,1.58,VWS V14.01,2013-04-27 18:54:00,
2013-04-27 13:55:00,79.5,22.5,29.82,WSW,248,18.8,18.8,12,0.00,,,1.58,VWS V14.01,2013-04-27 18:55:00,
2013-04-27 13:56:00,79.0,22.1,29.82,South,180,25.5,25.5,12,0.00,,,1.58,VWS V14.01,2013-04-27 18:56:00,
2013-04-27 13:57:00,78.8,22.0,29.82,South,180,25.5,25.5,12,0.00,,,1.58,VWS V14.01,2013-04-27 18:57:00,
2013-04-27 13:58:00,78.4,23.6,29.82,South,180,25.5,25.5,13,0.00,,,1.58,VWS V14.01,2013-04-27 18:58:00,
2013-04-27 13:59:00,78.1,23.3,29.82,WSW,248,16.1,16.1,13,0.00,,,1.58,VWS V14.01,2013-04-27 18:59:00,
2013-04-27 14:00:00,78.1,23.3,29.82,South,180,9.4,9.4,13,0.00,,,0.00,VWS V14.01,2013-04-27 19:00:00,
2013-04-27 14:01:00,78.1,23.3,29.82,SW,225,7.4,7.4,13,0.00,,,1.58,VWS V14.01,2013-04-27 19:01:00,
2013-04-27 14:02:00,78.3,23.4,29.82,SSE,158,16.8,16.8,13,0.00,,,1.58,VWS V14.01,2013-04-27 19:02:00,
2013-04-27 14:03:00,78.4,23.6,29.82,SSE,158,16.8,16.8,13,0.00,,,1.58,VWS V14.01,2013-04-27 19:03:00,
2013-04-27 14:04:00,78.4,23.6,29.82,SW,225,11.4,11.4,13,0.00,,,1.58,VWS V14.01,2013-04-27 19:04:00,
2013-04-27 14:05:00,78.4,23.6,29.82,SW,225,11.4,11.4,13,0.00,,,1.58,VWS V14.01,2013-04-27 19:05:00,
2013-04-27 14:06:00,78.6,23.7,29.82,South,180,8.7,8.7,13,0.00,,,1.58,VWS V14.01,2013-04-27 19:06:00,
2013-04-27 14:07:00,78.6,23.7,29.82,WSW,248,10.1,10.1,13,0.00,,,1.58,VWS V14.01,2013-04-27 19:07:00,
2013-04-27 14:08:00,78.8,22.0,29.82,SW,225,10.7,10.7,12,0.00,,,1.58,VWS V14.01,2013-04-27 19:08:00,
2013-04-27 14:09:00,79.2,22.2,29.82,SSE,158,4.0,4.0,12,0.00,,,1.58,VWS V14.01,2013-04-27 19:09:00,
2013-04-27 14:10:00,79.5,22.5,29.82,South,180,7.4,7.4,12,0.00,,,1.58,VWS V14.01,2013-04-27 19:10:00,
2013-04-27 14:11:00,79.7,22.6,29.82,WSW,248,6.0,6.0,12,0.00,,,1.58,VWS V14.01,2013-04-27 19:11:00,
2013-04-27 14:12:00,79.9,22.8,29.82,West,270,10.7,10.7,12,0.00,,,1.58,VWS V14.01,2013-04-27 19:12:00,
2013-04-27 14:13:00,79.9,22.8,29.82,South,180,8.7,8.7,12,0.00,,,1.58,VWS V14.01,2013-04-27 19:13:00,
2013-04-27 14:14:00,79.9,22.8,29.82,WNW,292,14.1,14.1,12,0.00,,,1.58,VWS V14.01,2013-04-27 19:14:00,
2013-04-27 14:15:00,79.7,22.6,29.82,SSW,202,18.8,18.8,12,0.00,,,1.58,VWS V14.01,2013-04-27 19:15:00,
2013-04-27 14:16:00,79.5,22.5,29.82,WNW,292,8.7,8.7,12,0.00,,,1.58,VWS V14.01,2013-04-27 19:16:00,
2013-04-27 14:17:00,79.2,22.2,29.82,WNW,292,8.7,8.7,12,0.00,,,1.58,VWS V14.01,2013-04-27 19:17:00,
2013-04-27 14:18:00,79.2,22.2,29.82,WNW,292,8.7,8.7,12,0.00,,,1.58,VWS V14.01,2013-04-27 19:18:00,
2013-04-27 14:19:00,79.2,22.2,29.82,SE,135,6.0,6.0,12,0.00,,,1.58,VWS V14.01,2013-04-27 19:19:00,
2013-04-27 14:20:00,79.3,22.4,29.82,North,0,8.1,8.1,12,0.00,,,1.58,VWS V14.01,2013-04-27 19:20:00,
2013-04-27 14:21:00,79.5,22.5,29.82,South,180,8.7,8.7,12,0.00,,,1.58,VWS V14.01,2013-04-27 19:21:00,
2013-04-27 14:22:00,79.5,22.5,29.82,South,180,12.1,12.1,12,0.00,,,1.58,VWS V14.01,2013-04-27 19:22:00,
2013-04-27 14:23:00,79.3,22.4,29.82,South,180,12.1,12.1,12,0.00,,,1.58,VWS V14.01,2013-04-27 19:23:00,
2013-04-27 14:24:00,79.2,22.2,29.82,SSW,202,12.8,12.8,12,0.00,,,1.58,VWS V14.01,2013-04-27 19:24:00,
2013-04-27 14:25:00,78.8,22.0,29.82,SSW,202,12.8,12.8,12,0.00,,,1.58,VWS V14.01,2013-04-27 19:25:00,
2013-04-27 14:26:00,78.8,22.0,29.82,South,180,17.5,17.5,12,0.00,,,1.58,VWS V14.01,2013-04-27 19:26:00,
2013-04-27 14:27:00,78.8,22.0,29.82,South,180,17.5,17.5,12,0.00,,,1.58,VWS V14.01,2013-04-27 19:27:00,
2013-04-27 14:28:00,78.8,22.0,29.82,SSW,202,10.7,10.7,12,0.00,,,0.00,VWS V14.01,2013-04-27 19:28:00,
2013-04-27 14:29:00,79.3,22.4,29.82,SW,225,6.7,6.7,12,0.00,,,1.58,VWS V14.01,2013-04-27 19:29:00,
2013-04-27 14:30:00,79.3,22.4,29.82,SSW,202,16.8,16.8,12,0.00,,,1.58,VWS V14.01,2013-04-27 19:30:00,
2013-04-27 14:31:00,79.3,22.4,29.82,South,180,10.1,10.1,12,0.00,,,1.58,VWS V14.01,2013-04-27 19:31:00,
2013-04-27 14:32:00,79.3,22.4,29.82,South,180,10.1,10.1,12,0.00,,,1.58,VWS V14.01,2013-04-27 19:32:00,
2013-04-27 14:33:00,79.3,22.4,29.82,South,180,10.1,10.1,12,0.00,,,1.58,VWS V14.01,2013-04-27 19:33:00,
2013-04-27 14:34:00,79.3,22.4,29.82,South,180,10.1,10.1,12,0.00,,,1.58,VWS V14.01,2013-04-27 19:34:00,
2013-04-27 14:35:00,79.5,22.5,29.82,SSW,202,6.7,6.7,12,0.00,,,1.58,VWS V14.01,2013-04-27 19:35:00,
2013-04-27 14:36:00,79.7,22.6,29.82,South,180,8.1,8.1,12,0.00,,,1.58,VWS V14.01,2013-04-27 19:36:00,
2013-04-27 14:37:00,79.5,22.5,29.82,South,180,8.1,8.1,12,0.00,,,1.58,VWS V14.01,2013-04-27 19:37:00,
2013-04-27 14:38:00,79.3,22.4,29.82,NW,315,14.1,14.1,12,0.00,,,1.58,VWS V14.01,2013-04-27 19:38:00,
2013-04-27 14:39:00,79.2,22.2,29.82,NW,315,14.1,14.1,12,0.00,,,1.58,VWS V14.01,2013-04-27 19:39:00,
2013-04-27 14:40:00,78.6,23.7,29.79,NW,315,14.1,14.1,13,0.00,,,1.58,VWS V14.01,2013-04-27 19:40:00,
2013-04-27 14:41:00,78.6,23.7,29.79,NW,315,14.1,14.1,13,0.00,,,1.58,VWS V14.01,2013-04-27 19:41:00,
2013-04-27 14:42:00,78.6,23.7,29.79,NW,315,14.1,14.1,13,0.00,,,1.58,VWS V14.01,2013-04-27 19:42:00,
2013-04-27 14:43:00,78.6,23.7,29.79,NW,315,14.1,14.1,13,0.00,,,1.58,VWS V14.01,2013-04-27 19:43:00,
2013-04-27 14:44:00,78.6,23.7,29.79,NW,315,14.1,14.1,13,0.00,,,1.58,VWS V14.01,2013-04-27 19:44:00,
2013-04-27 14:45:00,78.4,23.6,29.79,SW,225,10.1,10.1,13,0.00,,,1.58,VWS V14.01,2013-04-27 19:45:00,
2013-04-27 14:46:00,78.3,23.4,29.79,SW,225,10.1,10.1,13,0.00,,,1.58,VWS V14.01,2013-04-27 19:46:00,
2013-04-27 14:47:00,78.1,23.3,29.79,West,270,22.8,22.8,13,0.00,,,1.58,VWS V14.01,2013-04-27 19:47:00,
2013-04-27 14:48:00,78.1,23.3,29.79,West,270,22.8,22.8,13,0.00,,,1.58,VWS V14.01,2013-04-27 19:48:00,
2013-04-27 14:49:00,77.7,23.0,29.79,SW,225,10.1,10.1,13,0.00,,,1.58,VWS V14.01,2013-04-27 19:49:00,
2013-04-27 14:50:00,78.1,23.3,29.79,NW,315,10.7,10.7,13,0.00,,,1.58,VWS V14.01,2013-04-27 19:50:00,
2013-04-27 14:51:00,78.1,23.3,29.79,SSW,202,7.4,7.4,13,0.00,,,1.58,VWS V14.01,2013-04-27 19:51:00,
2013-04-27 14:52:00,78.4,23.6,29.79,SSW,202,7.4,7.4,13,0.00,,,1.58,VWS V14.01,2013-04-27 19:52:00,
2013-04-27 14:53:00,78.4,23.6,29.79,SSW,202,7.4,7.4,13,0.00,,,1.58,VWS V14.01,2013-04-27 19:53:00,
2013-04-27 14:54:00,78.4,23.6,29.79,SSW,202,7.4,7.4,13,0.00,,,1.58,VWS V14.01,2013-04-27 19:54:00,
2013-04-27 14:55:00,78.4,23.6,29.79,SSW,202,10.7,10.7,13,0.00,,,1.58,VWS V14.01,2013-04-27 19:55:00,
2013-04-27 14:56:00,78.3,23.4,29.79,SSW,202,8.1,8.1,13,0.00,,,1.58,VWS V14.01,2013-04-27 19:56:00,
2013-04-27 14:57:00,78.4,23.6,29.79,SE,135,7.4,7.4,13,0.00,,,1.58,VWS V14.01,2013-04-27 19:57:00,
2013-04-27 14:58:00,79.2,22.2,29.79,North,0,6.7,6.7,12,0.00,,,1.58,VWS V14.01,2013-04-27 19:58:00,
2013-04-27 14:59:00,79.5,22.5,29.79,North,0,6.7,6.7,12,0.00,,,1.58,VWS V14.01,2013-04-27 19:59:00,
2013-04-27 15:00:00,79.7,22.6,29.79,SW,225,16.8,16.8,12,0.00,,,0.00,VWS V14.01,2013-04-27 20:00:00,
2013-04-27 15:01:00,79.7,22.6,29.79,SW,225,16.8,16.8,12,0.00,,,1.58,VWS V14.01,2013-04-27 20:01:00,
2013-04-27 15:02:00,79.7,22.6,29.79,SSW,202,11.4,11.4,12,0.00,,,1.58,VWS V14.01,2013-04-27 20:02:00,
2013-04-27 15:03:00,79.7,22.6,29.79,South,180,4.7,4.7,12,0.00,,,1.58,VWS V14.01,2013-04-27 20:03:00,
2013-04-27 15:04:00,79.7,22.6,29.79,SW,225,9.4,9.4,12,0.00,,,1.58,VWS V14.01,2013-04-27 20:04:00,
2013-04-27 15:05:00,79.5,22.5,29.79,South,180,12.8,12.8,12,0.00,,,1.58,VWS V14.01,2013-04-27 20:05:00,
2013-04-27 15:06:00,79.3,22.4,29.79,South,180,12.8,12.8,12,0.00,,,1.58,VWS V14.01,2013-04-27 20:06:00,
2013-04-27 15:07:00,79.2,22.2,29.79,SSE,158,14.8,14.8,12,0.00,,,1.58,VWS V14.01,2013-04-27 20:07:00,
2013-04-27 15:08:00,78.8,22.0,29.79,SSE,158,14.8,14.8,12,0.00,,,1.58,VWS V14.01,2013-04-27 20:08:00,
2013-04-27 15:09:00,79.0,22.1,29.79,SSW,202,12.8,12.8,12,0.00,,,1.58,VWS V14.01,2013-04-27 20:09:00,
2013-04-27 15:10:00,78.6,23.7,29.79,SSE,158,18.1,18.1,13,0.00,,,1.58,VWS V14.01,2013-04-27 20:10:00,
2013-04-27 15:11:00,78.8,22.0,29.79,SSE,158,18.1,18.1,12,0.00,,,1.58,VWS V14.01,2013-04-27 20:11:00,
2013-04-27 15:12:00,78.6,23.7,29.79,SSE,158,18.1,18.1,13,0.00,,,1.58,VWS V14.01,2013-04-27 20:12:00,
2013-04-27 15:13:00,78.4,23.6,29.79,WSW,248,11.4,11.4,13,0.00,,,1.58,VWS V14.01,2013-04-27 20:13:00,
2013-04-27 15:14:00,78.1,23.3,29.79,SE,135,18.8,18.8,13,0.00,,,1.58,VWS V14.01,2013-04-27 20:14:00,
2013-04-27 15:15:00,78.1,23.3,29.79,SE,135,18.8,18.8,13,0.00,,,1.58,VWS V14.01,2013-04-27 20:15:00,
2013-04-27 15:16:00,78.1,23.3,29.79,SSE,158,8.1,8.1,13,0.00,,,1.58,VWS V14.01,2013-04-27 20:16:00,
2013-04-27 15:17:00,78.1,23.3,29.79,SSE,158,8.1,8.1,13,0.00,,,1.58,VWS V14.01,2013-04-27 20:17:00,
2013-04-27 15:18:00,78.1,23.3,29.79,SSW,202,12.8,12.8,13,0.00,,,1.58,VWS V14.01,2013-04-27 20:18:00,
2013-04-27 15:19:00,78.3,23.4,29.79,South,180,10.7,10.7,13,0.00,,,1.58,VWS V14.01,2013-04-27 20:19:00,
2013-04-27 15:20:00,78.4,23.6,29.79,West,270,10.1,10.1,13,0.00,,,1.58,VWS V14.01,2013-04-27 20:20:00,
2013-04-27 15:21:00,78.3,23.4,29.79,South,180,10.1,10.1,13,0.00,,,1.58,VWS V14.01,2013-04-27 20:21:00,
2013-04-27 15:22:00,78.4,23.6,29.79,West,270,10.1,10.1,13,0.00,,,1.58,VWS V14.01,2013-04-27 20:22:00,
2013-04-27 15:23:00,78.4,23.6,29.79,SSW,202,12.1,12.1,13,0.00,,,1.58,VWS V14.01,2013-04-27 20:23:00,
2013-04-27 15:24:00,78.3,23.4,29.79,SW,225,22.2,22.2,13,0.00,,,1.58,VWS V14.01,2013-04-27 20:24:00,
2013-04-27 15:25:00,78.3,23.4,29.79,SW,225,22.2,22.2,13,0.00,,,1.58,VWS V14.01,2013-04-27 20:25:00,
2013-04-27 15:26:00,78.1,23.3,29.79,West,270,9.4,9.4,13,0.00,,,1.58,VWS V14.01,2013-04-27 20:26:00,
2013-04-27 15:27:00,77.9,23.1,29.79,WSW,248,8.1,8.1,13,0.00,,,1.58,VWS V14.01,2013-04-27 20:27:00,
2013-04-27 15:28:00,78.3,23.4,29.79,South,180,14.1,14.1,13,0.00,,,1.58,VWS V14.01,2013-04-27 20:28:00,
2013-04-27 15:29:00,78.4,23.6,29.79,SSW,202,7.4,7.4,13,0.00,,,1.58,VWS V14.01,2013-04-27 20:29:00,
2013-04-27 15:30:00,78.4,23.6,29.79,SSW,202,7.4,7.4,13,0.00,,,1.58,VWS V14.01,2013-04-27 20:30:00,
2013-04-27 15:31:00,78.6,23.7,29.79,SSW,202,7.4,7.4,13,0.00,,,1.58,VWS V14.01,2013-04-27 20:31:00,
2013-04-27 15:32:00,78.4,23.6,29.79,SSW,202,7.4,7.4,13,0.00,,,1.58,VWS V14.01,2013-04-27 20:32:00,
2013-04-27 15:33:00,78.6,23.7,29.79,SSE,158,11.4,11.4,13,0.00,,,1.58,VWS V14.01,2013-04-27 20:33:00,
2013-04-27 15:34:00,78.6,23.7,29.79,SSW,202,16.8,16.8,13,0.00,,,1.58,VWS V14.01,2013-04-27 20:34:00,
2013-04-27 15:35:00,78.4,23.6,29.79,SSW,202,16.8,16.8,13,0.00,,,1.58,VWS V14.01,2013-04-27 20:35:00,
2013-04-27 15:36:00,78.1,23.3,29.79,SSW,202,16.8,16.8,13,0.00,,,1.58,VWS V14.01,2013-04-27 20:36:00,
2013-04-27 15:37:00,78.1,23.3,29.79,SW,225,10.7,10.7,13,0.00,,,1.58,VWS V14.01,2013-04-27 20:37:00,
2013-04-27 15:38:00,78.1,23.3,29.79,SSW,202,12.1,12.1,13,0.00,,,1.58,VWS V14.01,2013-04-27 20:38:00,
2013-04-27 15:39:00,78.1,23.3,29.79,SSW,202,12.1,12.1,13,0.00,,,1.58,VWS V14.01,2013-04-27 20:39:00,
2013-04-27 15:40:00,78.1,23.3,29.79,SSW,202,12.1,12.1,13,0.00,,,1.58,VWS V14.01,2013-04-27 20:40:00,
2013-04-27 15:41:00,78.3,23.4,29.79,SSW,202,7.4,7.4,13,0.00,,,1.58,VWS V14.01,2013-04-27 20:41:00,
2013-04-27 15:42:00,78.3,23.4,29.79,SSW,202,7.4,7.4,13,0.00,,,1.58,VWS V14.01,2013-04-27 20:42:00,
2013-04-27 15:43:00,78.6,23.7,29.79,SSE,158,9.4,9.4,13,0.00,,,1.58,VWS V14.01,2013-04-27 20:43:00,
2013-04-27 15:44:00,78.8,22.0,29.79,SSE,158,9.4,9.4,12,0.00,,,1.58,VWS V14.01,2013-04-27 20:44:00,
2013-04-27 15:45:00,79.0,22.1,29.79,SSE,158,9.4,9.4,12,0.00,,,1.58,VWS V14.01,2013-04-27 20:45:00,
2013-04-27 15:46:00,79.2,22.2,29.79,SSE,158,9.4,9.4,12,0.00,,,1.58,VWS V14.01,2013-04-27 20:46:00,
2013-04-27 15:47:00,79.3,22.4,29.79,SSW,202,12.8,12.8,12,0.00,,,1.58,VWS V14.01,2013-04-27 20:47:00,
2013-04-27 15:48:00,79.3,22.4,29.79,SSW,202,23.5,23.5,12,0.00,,,1.58,VWS V14.01,2013-04-27 20:48:00,
2013-04-27 15:49:00,79.0,22.1,29.79,SW,225,14.8,14.8,12,0.00,,,1.58,VWS V14.01,2013-04-27 20:49:00,
2013-04-27 15:50:00,79.0,22.1,29.79,SW,225,9.4,9.4,12,0.00,,,1.58,VWS V14.01,2013-04-27 20:50:00,
2013-04-27 15:51:00,79.0,22.1,29.79,SW,225,9.4,9.4,12,0.00,,,1.58,VWS V14.01,2013-04-27 20:51:00,
2013-04-27 15:52:00,79.2,22.2,29.79,West,270,10.7,10.7,12,0.00,,,1.58,VWS V14.01,2013-04-27 20:52:00,
2013-04-27 15:53:00,79.2,22.2,29.79,SSE,158,9.4,9.4,12,0.00,,,1.58,VWS V14.01,2013-04-27 20:53:00,
2013-04-27 15:54:00,79.2,22.2,29.79,SSE,158,9.4,9.4,12,0.00,,,1.58,VWS V14.01,2013-04-27 20:54:00,
2013-04-27 15:55:00,79.2,22.2,29.76,SSE,158,10.7,10.7,12,0.00,,,1.58,VWS V14.01,2013-04-27 20:55:00,
2013-04-27 15:56:00,79.2,22.2,29.76,SSE,158,10.7,10.7,12,0.00,,,1.58,VWS V14.01,2013-04-27 20:56:00,
2013-04-27 15:57:00,78.8,22.0,29.76,SSW,202,10.1,10.1,12,0.00,,,1.58,VWS V14.01,2013-04-27 20:57:00,
2013-04-27 15:58:00,78.6,23.7,29.76,SW,225,11.4,11.4,13,0.00,,,1.58,VWS V14.01,2013-04-27 20:58:00,
2013-04-27 15:59:00,78.4,23.6,29.76,South,180,16.8,16.8,13,0.00,,,1.58,VWS V14.01,2013-04-27 20:59:00,
2013-04-27 16:00:00,78.4,23.6,29.76,South,180,16.8,16.8,13,0.00,,,1.58,VWS V14.01,2013-04-27 21:00:00,
2013-04-27 16:01:00,78.1,23.3,29.76,West,270,8.1,8.1,13,0.00,,,1.58,VWS V14.01,2013-04-27 21:01:00,
2013-04-27 16:02:00,77.7,23.0,29.76,South,180,17.5,17.5,13,0.00,,,1.58,VWS V14.01,2013-04-27 21:02:00,
2013-04-27 16:03:00,77.7,23.0,29.76,South,180,17.5,17.5,13,0.00,,,1.58,VWS V14.01,2013-04-27 21:03:00,
2013-04-27 16:04:00,77.4,22.7,29.76,South,180,17.5,17.5,13,0.00,,,1.58,VWS V14.01,2013-04-27 21:04:00,
2013-04-27 16:05:00,77.2,22.6,29.76,WSW,248,9.4,9.4,13,0.00,,,1.58,VWS V14.01,2013-04-27 21:05:00,
2013-04-27 16:06:00,77.0,22.4,29.76,WNW,292,19.5,19.5,13,0.00,,,1.58,VWS V14.01,2013-04-27 21:06:00,
2013-04-27 16:07:00,76.8,22.3,29.76,WNW,292,19.5,19.5,13,0.00,,,1.58,VWS V14.01,2013-04-27 21:07:00,
2013-04-27 16:08:00,76.6,22.1,29.76,SSW,202,10.1,10.1,13,0.00,,,1.58,VWS V14.01,2013-04-27 21:08:00,
2013-04-27 16:09:00,76.5,22.0,29.76,SSW,202,10.7,10.7,13,0.00,,,1.58,VWS V14.01,2013-04-27 21:09:00,
2013-04-27 16:10:00,76.6,22.1,29.76,SW,225,11.4,11.4,13,0.00,,,1.58,VWS V14.01,2013-04-27 21:10:00,
2013-04-27 16:11:00,76.6,22.1,29.76,SSE,158,10.7,10.7,13,0.00,,,1.58,VWS V14.01,2013-04-27 21:11:00,
2013-04-27 16:12:00,76.6,22.1,29.76,SSE,158,7.4,7.4,13,0.00,,,1.58,VWS V14.01,2013-04-27 21:12:00,
2013-04-27 16:13:00,76.6,22.1,29.76,SSW,202,10.1,10.1,13,0.00,,,1.58,VWS V14.01,2013-04-27 21:13:00,
2013-04-27 16:14:00,76.8,22.3,29.76,SSW,202,8.7,8.7,13,0.00,,,1.58,VWS V14.01,2013-04-27 21:14:00,
2013-04-27 16:15:00,76.8,22.3,29.76,South,180,16.8,16.8,13,0.00,,,1.58,VWS V14.01,2013-04-27 21:15:00,
2013-04-27 16:16:00,76.8,22.3,29.76,SW,225,8.7,8.7,13,0.00,,,1.58,VWS V14.01,2013-04-27 21:16:00,
2013-04-27 16:17:00,76.8,22.3,29.76,SSE,158,8.1,8.1,13,0.00,,,1.58,VWS V14.01,2013-04-27 21:17:00,
2013-04-27 16:18:00,76.6,22.1,29.76,SSW,202,8.1,8.1,13,0.00,,,1.58,VWS V14.01,2013-04-27 21:18:00,
2013-04-27 16:19:00,76.5,22.0,29.76,South,180,10.1,10.1,13,0.00,,,1.58,VWS V14.01,2013-04-27 21:19:00,
2013-04-27 16:20:00,76.6,22.1,29.76,SSW,202,8.1,8.1,13,0.00,,,1.58,VWS V14.01,2013-04-27 21:20:00,
2013-04-27 16:21:00,76.6,22.1,29.76,SW,225,13.4,13.4,13,0.00,,,1.58,VWS V14.01,2013-04-27 21:21:00,
2013-04-27 16:22:00,76.6,22.1,29.76,WSW,248,6.0,6.0,13,0.00,,,1.58,VWS V14.01,2013-04-27 21:22:00,
2013-04-27 16:23:00,76.6,22.1,29.76,South,180,4.7,4.7,13,0.00,,,1.58,VWS V14.01,2013-04-27 21:23:00,
2013-04-27 16:24:00,76.6,22.1,29.76,SW,225,12.1,12.1,13,0.00,,,1.58,VWS V14.01,2013-04-27 21:24:00,
2013-04-27 16:25:00,76.3,21.9,29.74,SW,225,9.4,9.4,13,0.00,,,1.58,VWS V14.01,2013-04-27 21:25:00,
2013-04-27 16:26:00,76.3,21.9,29.74,South,180,4.0,4.7,13,0.00,,,1.58,VWS V14.01,2013-04-27 21:26:00,
2013-04-27 16:27:00,76.1,21.7,29.74,SSW,202,12.8,12.8,13,0.00,,,1.58,VWS V14.01,2013-04-27 21:27:00,
2013-04-27 16:28:00,76.1,21.7,29.74,SSW,202,19.5,19.5,13,0.00,,,1.58,VWS V14.01,2013-04-27 21:28:00,
2013-04-27 16:29:00,75.9,21.6,29.74,SSW,202,10.7,10.7,13,0.00,,,1.58,VWS V14.01,2013-04-27 21:29:00,
2013-04-27 16:30:00,75.7,21.5,29.74,SSW,202,17.5,17.5,13,0.00,,,1.58,VWS V14.01,2013-04-27 21:30:00,
2013-04-27 16:31:00,75.7,21.5,29.74,South,180,14.1,14.1,13,0.00,,,1.58,VWS V14.01,2013-04-27 21:31:00,
2013-04-27 16:32:00,75.9,21.6,29.74,SSE,158,17.5,17.5,13,0.00,,,1.58,VWS V14.01,2013-04-27 21:32:00,
2013-04-27 16:33:00,75.9,21.6,29.74,SSW,202,16.8,16.8,13,0.00,,,1.58,VWS V14.01,2013-04-27 21:33:00,
2013-04-27 16:34:00,75.9,21.6,29.74,South,180,12.1,12.1,13,0.00,,,1.58,VWS V14.01,2013-04-27 21:34:00,
2013-04-27 16:35:00,75.9,21.6,29.74,SSW,202,22.2,22.2,13,0.00,,,1.58,VWS V14.01,2013-04-27 21:35:00,
2013-04-27 16:36:00,75.9,21.6,29.74,SW,225,10.7,10.7,13,0.00,,,1.58,VWS V14.01,2013-04-27 21:36:00,
2013-04-27 16:37:00,76.1,21.7,29.74,South,180,11.4,11.4,13,0.00,,,1.58,VWS V14.01,2013-04-27 21:37:00,
2013-04-27 16:38:00,76.1,21.7,29.74,SSW,202,11.4,11.4,13,0.00,,,1.58,VWS V14.01,2013-04-27 21:38:00,
2013-04-27 16:39:00,76.1,21.7,29.74,SE,135,10.7,10.7,13,0.00,,,1.58,VWS V14.01,2013-04-27 21:39:00,
2013-04-27 16:40:00,76.1,21.7,29.74,SW,225,4.7,4.7,13,0.00,,,1.58,VWS V14.01,2013-04-27 21:40:00,
2013-04-27 16:41:00,75.9,21.6,29.76,South,180,9.4,9.4,13,0.00,,,1.58,VWS V14.01,2013-04-27 21:41:00,
2013-04-27 16:42:00,76.1,21.7,29.76,SW,225,4.7,4.9,13,0.00,,,1.58,VWS V14.01,2013-04-27 21:42:00,
2013-04-27 16:43:00,75.9,21.6,29.76,NNW,338,4.7,4.7,13,0.00,,,1.58,VWS V14.01,2013-04-27 21:43:00,
2013-04-27 16:44:00,75.9,21.6,29.76,SSW,202,9.4,9.4,13,0.00,,,1.58,VWS V14.01,2013-04-27 21:44:00,
2013-04-27 16:45:00,76.1,21.7,29.76,South,180,6.0,6.0,13,0.00,,,1.58,VWS V14.01,2013-04-27 21:45:00,
2013-04-27 16:46:00,75.9,21.6,29.76,SSW,202,16.1,16.1,13,0.00,,,1.58,VWS V14.01,2013-04-27 21:46:00,
2013-04-27 16:47:00,75.6,21.3,29.76,SSW,202,16.8,16.8,13,0.00,,,1.58,VWS V14.01,2013-04-27 21:47:00,
2013-04-27 16:48:00,75.2,21.0,29.76,SSW,202,16.8,16.8,13,0.00,,,1.58,VWS V14.01,2013-04-27 21:48:00,
2013-04-27 16:49:00,74.8,20.7,29.76,SW,225,7.4,8.5,13,0.00,,,1.58,VWS V14.01,2013-04-27 21:49:00,
2013-04-27 16:50:00,74.7,20.6,29.76,South,180,10.7,10.7,13,0.00,,,1.58,VWS V14.01,2013-04-27 21:50:00,
2013-04-27 16:51:00,74.7,20.6,29.76,SSW,202,7.4,7.4,13,0.00,,,1.58,VWS V14.01,2013-04-27 21:51:00,
2013-04-27 16:52:00,74.5,20.5,29.76,South,180,23.5,23.5,13,0.00,,,1.58,VWS V14.01,2013-04-27 21:52:00,
2013-04-27 16:53:00,74.3,20.3,29.76,SW,225,16.8,16.8,13,0.00,,,1.58,VWS V14.01,2013-04-27 21:53:00,
2013-04-27 16:54:00,74.1,20.2,29.76,SSW,202,21.5,21.5,13,0.00,,,1.58,VWS V14.01,2013-04-27 21:54:00,
2013-04-27 16:55:00,74.1,20.2,29.76,SSW,202,12.8,12.8,13,0.00,,,1.58,VWS V14.01,2013-04-27 21:55:00,
2013-04-27 16:56:00,74.1,20.2,29.74,SSW,202,12.1,12.1,13,0.00,,,1.58,VWS V14.01,2013-04-27 21:56:00,
2013-04-27 16:57:00,74.1,20.2,29.74,SSE,158,6.0,6.0,13,0.00,,,1.58,VWS V14.01,2013-04-27 21:57:00,
2013-04-27 16:58:00,74.3,20.3,29.74,SW,225,10.7,10.7,13,0.00,,,1.58,VWS V14.01,2013-04-27 21:58:00,
2013-04-27 16:59:00,74.5,20.5,29.74,SSW,202,14.8,14.8,13,0.00,,,1.58,VWS V14.01,2013-04-27 21:59:00,
2013-04-27 17:00:00,74.5,20.5,29.74,WSW,248,12.1,12.1,13,0.00,,,1.58,VWS V14.01,2013-04-27 22:00:00,
2013-04-27 17:01:00,74.5,20.5,29.74,SW,225,10.7,10.7,13,0.00,,,1.58,VWS V14.01,2013-04-27 22:01:00,
2013-04-27 17:02:00,74.7,20.6,29.74,SSW,202,12.8,12.8,13,0.00,,,1.58,VWS V14.01,2013-04-27 22:02:00,
2013-04-27 17:03:00,74.3,20.3,29.74,SSW,202,12.8,12.8,13,0.00,,,1.58,VWS V14.01,2013-04-27 22:03:00,
2013-04-27 17:04:00,74.1,20.2,29.74,SSW,202,10.1,10.1,13,0.00,,,1.58,VWS V14.01,2013-04-27 22:04:00,
2013-04-27 17:05:00,74.1,20.2,29.74,SW,225,12.8,12.8,13,0.00,,,1.58,VWS V14.01,2013-04-27 22:05:00,
2013-04-27 17:06:00,74.1,20.2,29.74,SSW,202,10.1,10.1,13,0.00,,,1.58,VWS V14.01,2013-04-27 22:06:00,
2013-04-27 17:07:00,74.1,20.2,29.74,SSE,158,19.5,19.5,13,0.00,,,1.58,VWS V14.01,2013-04-27 22:07:00,
2013-04-27 17:08:00,74.1,20.2,29.74,SSW,202,19.5,19.5,13,0.00,,,1.58,VWS V14.01,2013-04-27 22:08:00,
2013-04-27 17:09:00,74.1,20.2,29.74,South,180,12.1,12.1,13,0.00,,,1.58,VWS V14.01,2013-04-27 22:09:00,
2013-04-27 17:10:00,74.1,20.2,29.74,SSW,202,16.1,16.1,13,0.00,,,1.58,VWS V14.01,2013-04-27 22:10:00,
2013-04-27 17:11:00,74.1,20.2,29.76,South,180,16.1,16.1,13,0.00,,,1.58,VWS V14.01,2013-04-27 22:11:00,
2013-04-27 17:12:00,73.9,20.0,29.76,SW,225,6.0,8.7,13,0.00,,,1.58,VWS V14.01,2013-04-27 22:12:00,
2013-04-27 17:13:00,73.9,20.0,29.76,SW,225,6.7,6.7,13,0.00,,,1.58,VWS V14.01,2013-04-27 22:13:00,
2013-04-27 17:14:00,73.9,20.0,29.76,SSW,202,16.1,16.1,13,0.00,,,1.58,VWS V14.01,2013-04-27 22:14:00,
2013-04-27 17:15:00,74.1,20.2,29.76,SSE,158,12.8,12.8,13,0.00,,,1.58,VWS V14.01,2013-04-27 22:15:00,
2013-04-27 17:16:00,74.1,20.2,29.76,SSW,202,10.7,10.7,13,0.00,,,1.58,VWS V14.01,2013-04-27 22:16:00,
2013-04-27 17:17:00,73.9,20.0,29.76,SSW,202,10.7,10.7,13,0.00,,,1.58,VWS V14.01,2013-04-27 22:17:00,
2013-04-27 17:18:00,73.8,19.9,29.76,SSW,202,17.5,17.5,13,0.00,,,1.58,VWS V14.01,2013-04-27 22:18:00,
2013-04-27 17:19:00,73.8,19.9,29.76,SW,225,8.7,8.7,13,0.00,,,1.58,VWS V14.01,2013-04-27 22:19:00,
2013-04-27 17:20:00,73.4,19.6,29.76,South,180,10.1,10.1,13,0.00,,,1.58,VWS V14.01,2013-04-27 22:20:00,
2013-04-27 17:21:00,73.4,19.6,29.76,SW,225,3.4,3.4,13,0.00,,,1.58,VWS V14.01,2013-04-27 22:21:00,
2013-04-27 17:22:00,73.6,19.8,29.76,South,180,8.7,8.7,13,0.00,,,1.58,VWS V14.01,2013-04-27 22:22:00,
2013-04-27 17:23:00,73.8,19.9,29.76,SSE,158,8.7,8.7,13,0.00,,,1.58,VWS V14.01,2013-04-27 22:23:00,
2013-04-27 17:24:00,73.8,19.9,29.76,SE,135,7.4,7.4,13,0.00,,,1.58,VWS V14.01,2013-04-27 22:24:00,
2013-04-27 17:25:00,73.8,19.9,29.76,SSW,202,17.5,17.5,13,0.00,,,1.58,VWS V14.01,2013-04-27 22:25:00,
2013-04-27 17:26:00,73.6,19.8,29.76,SSW,202,12.1,12.1,13,0.00,,,1.58,VWS V14.01,2013-04-27 22:26:00,
2013-04-27 17:27:00,73.6,19.8,29.76,SSW,202,12.1,12.1,13,0.00,,,1.58,VWS V14.01,2013-04-27 22:27:00,
2013-04-27 17:28:00,73.6,19.8,29.76,SSW,202,6.7,6.7,13,0.00,,,1.58,VWS V14.01,2013-04-27 22:28:00,
2013-04-27 17:29:00,73.6,19.8,29.76,South,180,11.4,11.4,13,0.00,,,1.58,VWS V14.01,2013-04-27 22:29:00,
2013-04-27 17:30:00,73.8,19.9,29.76,South,180,10.1,10.1,13,0.00,,,1.58,VWS V14.01,2013-04-27 22:30:00,
2013-04-27 17:31:00,73.8,19.9,29.76,South,180,10.1,10.1,13,0.00,,,1.58,VWS V14.01,2013-04-27 22:31:00,
2013-04-27 17:32:00,73.8,19.9,29.76,SW,225,12.1,12.1,13,0.00,,,1.58,VWS V14.01,2013-04-27 22:32:00,
2013-04-27 17:33:00,73.6,19.8,29.76,SSW,202,8.1,8.1,13,0.00,,,1.58,VWS V14.01,2013-04-27 22:33:00,
2013-04-27 17:34:00,73.6,19.8,29.76,South,180,12.8,12.8,13,0.00,,,1.58,VWS V14.01,2013-04-27 22:34:00,
2013-04-27 17:35:00,73.6,19.8,29.76,South,180,9.4,9.4,13,0.00,,,1.58,VWS V14.01,2013-04-27 22:35:00,
2013-04-27 17:36:00,73.6,19.8,29.76,SW,225,17.5,17.5,13,0.00,,,1.58,VWS V14.01,2013-04-27 22:36:00,
2013-04-27 17:37:00,73.4,19.6,29.76,SSE,158,14.8,14.8,13,0.00,,,1.58,VWS V14.01,2013-04-27 22:37:00,
2013-04-27 17:38:00,72.9,20.9,29.76,SW,225,11.4,11.4,14,0.00,,,1.58,VWS V14.01,2013-04-27 22:38:00,
2013-04-27 17:39:00,72.7,20.8,29.76,WNW,292,10.7,10.7,14,0.00,,,1.58,VWS V14.01,2013-04-27 22:39:00,
2013-04-27 17:40:00,72.5,20.6,29.76,SSW,202,10.7,10.7,14,0.00,,,1.58,VWS V14.01,2013-04-27 22:40:00,
2013-04-27 17:41:00,72.3,20.5,29.76,SSW,202,6.7,6.7,14,0.00,,,1.58,VWS V14.01,2013-04-27 22:41:00,
2013-04-27 17:42:00,72.3,20.5,29.76,South,180,8.1,8.1,14,0.00,,,1.58,VWS V14.01,2013-04-27 22:42:00,
2013-04-27 17:43:00,72.5,20.6,29.76,South,180,8.1,8.1,14,0.00,,,1.58,VWS V14.01,2013-04-27 22:43:00,
2013-04-27 17:44:00,72.3,20.5,29.76,South,180,8.7,8.7,14,0.00,,,1.58,VWS V14.01,2013-04-27 22:44:00,
2013-04-27 17:45:00,72.3,20.5,29.76,SSW,202,12.1,12.1,14,0.00,,,1.58,VWS V14.01,2013-04-27 22:45:00,
2013-04-27 17:46:00,72.3,20.5,29.76,South,180,9.4,9.4,14,0.00,,,1.58,VWS V14.01,2013-04-27 22:46:00,
2013-04-27 17:47:00,72.3,20.5,29.76,SSW,202,18.1,18.1,14,0.00,,,1.58,VWS V14.01,2013-04-27 22:47:00,
2013-04-27 17:48:00,72.3,20.5,29.76,SSW,202,4.7,6.0,14,0.00,,,1.58,VWS V14.01,2013-04-27 22:48:00,
2013-04-27 17:49:00,72.3,20.5,29.76,SSW,202,4.7,4.7,14,0.00,,,1.58,VWS V14.01,2013-04-27 22:49:00,
2013-04-27 17:50:00,72.3,20.5,29.76,SSW,202,7.4,7.4,14,0.00,,,1.58,VWS V14.01,2013-04-27 22:50:00,
2013-04-27 17:51:00,72.5,20.6,29.76,SSW,202,9.4,9.4,14,0.00,,,1.58,VWS V14.01,2013-04-27 22:51:00,
2013-04-27 17:52:00,72.7,20.8,29.76,SSW,202,6.0,6.0,14,0.00,,,1.58,VWS V14.01,2013-04-27 22:52:00,
2013-04-27 17:53:00,73.0,21.1,29.76,SE,135,8.1,8.1,14,0.00,,,1.58,VWS V14.01,2013-04-27 22:53:00,
2013-04-27 17:54:00,73.0,21.1,29.76,South,180,10.1,10.1,14,0.00,,,1.58,VWS V14.01,2013-04-27 22:54:00,
2013-04-27 17:55:00,73.2,21.2,29.76,South,180,10.1,10.1,14,0.00,,,1.58,VWS V14.01,2013-04-27 22:55:00,
2013-04-27 17:56:00,73.2,21.2,29.76,SSW,202,8.7,8.7,14,0.00,,,1.58,VWS V14.01,2013-04-27 22:56:00,
2013-04-27 17:57:00,73.2,21.2,29.76,South,180,11.4,11.4,14,0.00,,,1.58,VWS V14.01,2013-04-27 22:57:00,
2013-04-27 17:58:00,73.2,21.2,29.76,SE,135,16.1,16.1,14,0.00,,,1.58,VWS V14.01,2013-04-27 22:58:00,
2013-04-27 17:59:00,73.4,19.6,29.76,SW,225,10.7,10.7,13,0.00,,,1.58,VWS V14.01,2013-04-27 22:59:00,
2013-04-27 18:00:00,73.4,19.6,29.76,South,180,7.4,7.4,13,0.00,,,1.58,VWS V14.01,2013-04-27 23:00:00,
2013-04-27 18:01:00,73.4,19.6,29.76,SSW,202,17.5,17.5,13,0.00,,,0.00,VWS V14.01,2013-04-27 23:01:00,
2013-04-27 18:02:00,73.2,21.2,29.76,SSW,202,21.5,21.5,14,0.00,,,1.58,VWS V14.01,2013-04-27 23:02:00,
2013-04-27 18:03:00,73.4,19.6,29.76,South,180,10.7,10.7,13,0.00,,,1.58,VWS V14.01,2013-04-27 23:03:00,
2013-04-27 18:04:00,73.2,21.2,29.76,South,180,12.1,12.1,14,0.00,,,1.58,VWS V14.01,2013-04-27 23:04:00,
2013-04-27 18:05:00,73.2,21.2,29.76,SW,225,10.7,10.7,14,0.00,,,1.58,VWS V14.01,2013-04-27 23:05:00,
2013-04-27 18:06:00,73.0,21.1,29.76,SW,225,16.1,16.1,14,0.00,,,1.58,VWS V14.01,2013-04-27 23:06:00,
2013-04-27 18:07:00,73.0,21.1,29.76,SSW,202,16.8,16.8,14,0.00,,,1.58,VWS V14.01,2013-04-27 23:07:00,
2013-04-27 18:08:00,72.5,20.6,29.76,SSE,158,8.1,8.1,14,0.00,,,1.58,VWS V14.01,2013-04-27 23:08:00,
2013-04-27 18:09:00,72.5,20.6,29.76,SSW,202,8.1,8.1,14,0.00,,,1.58,VWS V14.01,2013-04-27 23:09:00,
2013-04-27 18:10:00,72.3,20.5,29.76,SSW,202,8.1,8.1,14,0.00,,,1.58,VWS V14.01,2013-04-27 23:10:00,
2013-04-27 18:11:00,72.1,20.4,29.76,SSE,158,10.1,10.1,14,0.00,,,1.58,VWS V14.01,2013-04-27 23:11:00,
2013-04-27 18:12:00,72.1,20.4,29.76,SSW,202,8.7,8.7,14,0.00,,,1.58,VWS V14.01,2013-04-27 23:12:00,
2013-04-27 18:13:00,71.8,20.1,29.76,SSE,158,8.7,8.7,14,0.00,,,1.58,VWS V14.01,2013-04-27 23:13:00,
2013-04-27 18:14:00,71.8,20.1,29.76,SSE,158,8.7,8.7,14,0.00,,,1.58,VWS V14.01,2013-04-27 23:14:00,
2013-04-27 18:15:00,71.6,19.9,29.76,SSE,158,8.7,8.7,14,0.00,,,1.58,VWS V14.01,2013-04-27 23:15:00,
2013-04-27 18:16:00,71.2,19.6,29.76,SSW,202,12.1,12.1,14,0.00,,,1.58,VWS V14.01,2013-04-27 23:16:00,
2013-04-27 18:17:00,71.2,19.6,29.76,South,180,4.0,4.0,14,0.00,,,1.58,VWS V14.01,2013-04-27 23:17:00,
2013-04-27 18:18:00,71.1,19.5,29.76,SSW,202,10.1,10.1,14,0.00,,,1.58,VWS V14.01,2013-04-27 23:18:00,
2013-04-27 18:19:00,71.1,19.5,29.76,SSW,202,8.1,8.1,14,0.00,,,1.58,VWS V14.01,2013-04-27 23:19:00,
2013-04-27 18:20:00,71.1,19.5,29.76,SSW,202,9.4,9.4,14,0.00,,,1.58,VWS V14.01,2013-04-27 23:20:00,
2013-04-27 18:21:00,70.9,19.4,29.76,SSW,202,8.7,8.7,14,0.00,,,1.58,VWS V14.01,2013-04-27 23:21:00,
2013-04-27 18:22:00,70.7,19.2,29.76,SSW,202,17.5,17.5,14,0.00,,,1.58,VWS V14.01,2013-04-27 23:22:00,
2013-04-27 18:23:00,70.7,19.2,29.76,ENE,68,18.1,18.1,14,0.00,,,1.58,VWS V14.01,2013-04-27 23:23:00,
2013-04-27 18:24:00,70.5,19.1,29.76,WSW,248,12.8,12.8,14,0.00,,,1.58,VWS V14.01,2013-04-27 23:24:00,
2013-04-27 18:25:00,70.5,19.1,29.76,South,180,17.5,17.5,14,0.00,,,1.58,VWS V14.01,2013-04-27 23:25:00,
2013-04-27 18:26:00,70.5,19.1,29.74,SSW,202,19.5,19.5,14,0.00,,,1.58,VWS V14.01,2013-04-27 23:26:00,
2013-04-27 18:27:00,70.3,18.9,29.74,SSW,202,7.4,7.4,14,0.00,,,1.58,VWS V14.01,2013-04-27 23:27:00,
2013-04-27 18:28:00,70.3,18.9,29.74,SSW,202,7.4,7.4,14,0.00,,,1.58,VWS V14.01,2013-04-27 23:28:00,
2013-04-27 18:29:00,70.2,18.8,29.74,South,180,8.1,8.1,14,0.00,,,1.58,VWS V14.01,2013-04-27 23:29:00,
2013-04-27 18:30:00,70.2,18.8,29.74,SSW,202,10.1,10.1,14,0.00,,,1.58,VWS V14.01,2013-04-27 23:30:00,
2013-04-27 18:31:00,70.0,18.6,29.74,WSW,248,14.8,14.8,14,0.00,,,1.58,VWS V14.01,2013-04-27 23:31:00,
2013-04-27 18:32:00,70.0,18.6,29.74,WSW,248,14.8,14.8,14,0.00,,,1.58,VWS V14.01,2013-04-27 23:32:00,
2013-04-27 18:33:00,70.0,18.6,29.74,SSW,202,9.4,9.4,14,0.00,,,1.58,VWS V14.01,2013-04-27 23:33:00,
2013-04-27 18:34:00,69.8,18.5,29.74,SSE,158,4.7,4.7,14,0.00,,,1.58,VWS V14.01,2013-04-27 23:34:00,
2013-04-27 18:35:00,69.8,18.5,29.74,SSW,202,4.7,4.7,14,0.00,,,1.58,VWS V14.01,2013-04-27 23:35:00,
2013-04-27 18:36:00,69.8,18.5,29.74,South,180,7.4,7.4,14,0.00,,,1.58,VWS V14.01,2013-04-27 23:36:00,
2013-04-27 18:37:00,69.6,20.0,29.74,ESE,112,9.4,9.4,15,0.00,,,1.58,VWS V14.01,2013-04-27 23:37:00,
2013-04-27 18:38:00,69.4,19.8,29.74,SSE,158,7.4,7.4,15,0.00,,,1.58,VWS V14.01,2013-04-27 23:38:00,
2013-04-27 18:39:00,69.4,19.8,29.74,SSW,202,11.4,11.4,15,0.00,,,1.58,VWS V14.01,2013-04-27 23:39:00,
2013-04-27 18:40:00,69.4,19.8,29.74,SSW,202,12.1,12.1,15,0.00,,,1.58,VWS V14.01,2013-04-27 23:40:00,
2013-04-27 18:41:00,69.4,19.8,29.74,SE,135,10.7,10.7,15,0.00,,,1.58,VWS V14.01,2013-04-27 23:41:00,
2013-04-27 18:42:00,69.1,19.5,29.74,South,180,8.7,8.7,15,0.00,,,1.58,VWS V14.01,2013-04-27 23:42:00,
2013-04-27 18:43:00,68.9,19.4,29.74,SSW,202,4.0,4.0,15,0.00,,,1.58,VWS V14.01,2013-04-27 23:43:00,
2013-04-27 18:44:00,68.9,19.4,29.74,SSW,202,8.1,8.1,15,0.00,,,1.58,VWS V14.01,2013-04-27 23:44:00,
2013-04-27 18:45:00,68.9,19.4,29.74,South,180,7.4,7.4,15,0.00,,,1.58,VWS V14.01,2013-04-27 23:45:00,
2013-04-27 18:46:00,68.5,19.1,29.74,South,180,3.4,3.4,15,0.00,,,1.58,VWS V14.01,2013-04-27 23:46:00,
2013-04-27 18:47:00,68.5,19.1,29.74,SW,225,2.7,2.7,15,0.00,,,1.58,VWS V14.01,2013-04-27 23:47:00,
2013-04-27 18:48:00,68.4,19.0,29.74,South,180,10.7,10.7,15,0.00,,,1.58,VWS V14.01,2013-04-27 23:48:00,
2013-04-27 18:49:00,68.2,18.8,29.74,SSW,202,4.0,4.0,15,0.00,,,1.58,VWS V14.01,2013-04-27 23:49:00,
2013-04-27 18:50:00,68.2,18.8,29.74,SSE,158,8.1,8.1,15,0.00,,,1.58,VWS V14.01,2013-04-27 23:50:00,
2013-04-27 18:51:00,68.0,18.7,29.74,South,180,4.0,4.0,15,0.00,,,1.58,VWS V14.01,2013-04-27 23:51:00,
2013-04-27 18:52:00,67.8,18.5,29.74,SW,225,7.4,7.4,15,0.00,,,1.58,VWS V14.01,2013-04-27 23:52:00,
2013-04-27 18:53:00,67.8,18.5,29.74,South,180,8.1,8.1,15,0.00,,,1.58,VWS V14.01,2013-04-27 23:53:00,
2013-04-27 18:54:00,67.6,18.4,29.74,SSW,202,8.7,8.7,15,0.00,,,1.58,VWS V14.01,2013-04-27 23:54:00,
2013-04-27 18:55:00,67.6,18.4,29.74,SW,225,2.7,3.6,15,0.00,,,1.58,VWS V14.01,2013-04-27 23:55:00,
2013-04-27 18:56:00,67.5,18.2,29.74,SSW,202,8.1,8.1,15,0.00,,,1.58,VWS V14.01,2013-04-27 23:56:00,
2013-04-27 18:57:00,67.5,18.2,29.74,South,180,8.7,8.7,15,0.00,,,1.58,VWS V14.01,2013-04-27 23:57:00,
2013-04-27 18:58:00,67.3,18.1,29.74,SSE,158,7.4,7.4,15,0.00,,,1.58,VWS V14.01,2013-04-27 23:58:00,
2013-04-27 18:59:00,67.3,18.1,29.74,SSW,202,10.1,10.1,15,0.00,,,1.58,VWS V14.01,2013-04-27 23:59:00,
2013-04-27 19:00:00,67.3,18.1,29.74,South,180,6.0,6.0,15,0.00,,,0.00,VWS V14.01,2013-04-28 00:00:00,
2013-04-27 19:01:00,67.1,17.9,29.74,South,180,12.8,12.8,15,0.00,,,1.58,VWS V14.01,2013-04-28 00:01:00,
2013-04-27 19:02:00,66.9,17.8,29.74,SSW,202,8.1,8.1,15,0.00,,,1.58,VWS V14.01,2013-04-28 00:02:00,
2013-04-27 19:03:00,66.9,17.8,29.74,South,180,2.7,3.1,15,0.00,,,1.58,VWS V14.01,2013-04-28 00:03:00,
2013-04-27 19:04:00,66.9,17.8,29.74,South,180,9.4,9.4,15,0.00,,,1.58,VWS V14.01,2013-04-28 00:04:00,
2013-04-27 19:05:00,66.9,17.8,29.74,SSW,202,3.4,3.4,15,0.00,,,1.58,VWS V14.01,2013-04-28 00:05:00,
2013-04-27 19:06:00,66.4,17.4,29.74,South,180,2.7,2.7,15,0.00,,,1.58,VWS V14.01,2013-04-28 00:06:00,
2013-04-27 19:07:00,66.4,17.4,29.74,South,180,4.0,4.0,15,0.00,,,1.58,VWS V14.01,2013-04-28 00:07:00,
2013-04-27 19:08:00,66.0,17.1,29.74,South,180,2.7,2.7,15,0.00,,,1.58,VWS V14.01,2013-04-28 00:08:00,
2013-04-27 19:09:00,65.8,16.9,29.74,South,180,0.0,1.3,15,0.00,,,1.58,VWS V14.01,2013-04-28 00:09:00,
2013-04-27 19:10:00,65.7,16.8,29.74,South,180,0.0,0.9,15,0.00,,,1.58,VWS V14.01,2013-04-28 00:10:00,
2013-04-27 19:11:00,65.5,16.6,29.71,South,180,2.7,2.7,15,0.00,,,1.58,VWS V14.01,2013-04-28 00:11:00,
2013-04-27 19:12:00,65.5,16.6,29.71,South,180,0.0,1.1,15,0.00,,,1.58,VWS V14.01,2013-04-28 00:12:00,
2013-04-27 19:13:00,65.1,16.4,29.71,South,180,0.0,0.0,15,0.00,,,1.58,VWS V14.01,2013-04-28 00:13:00,
2013-04-27 19:14:00,65.1,16.4,29.71,South,180,2.7,2.7,15,0.00,,,1.58,VWS V14.01,2013-04-28 00:14:00,
2013-04-27 19:15:00,64.9,16.2,29.71,South,180,0.0,0.9,15,0.00,,,1.58,VWS V14.01,2013-04-28 00:15:00,
2013-04-27 19:16:00,64.6,15.9,29.71,South,180,0.0,0.9,15,0.00,,,1.58,VWS V14.01,2013-04-28 00:16:00,
2013-04-27 19:17:00,64.4,15.8,29.71,South,180,0.0,0.0,15,0.00,,,1.58,VWS V14.01,2013-04-28 00:17:00,
2013-04-27 19:18:00,64.4,15.8,29.71,South,180,0.0,0.0,15,0.00,,,1.58,VWS V14.01,2013-04-28 00:18:00,
2013-04-27 19:19:00,64.2,17.1,29.71,South,180,0.0,0.0,16,0.00,,,1.58,VWS V14.01,2013-04-28 00:19:00,
2013-04-27 19:20:00,64.0,17.0,29.71,South,180,0.0,0.0,16,0.00,,,1.58,VWS V14.01,2013-04-28 00:20:00,
2013-04-27 19:21:00,63.9,16.8,29.71,South,180,0.0,0.0,16,0.00,,,1.58,VWS V14.01,2013-04-28 00:21:00,
2013-04-27 19:22:00,63.9,16.8,29.71,South,180,0.0,0.0,16,0.00,,,1.58,VWS V14.01,2013-04-28 00:22:00,
2013-04-27 19:23:00,63.7,16.7,29.71,South,180,0.0,0.0,16,0.00,,,1.58,VWS V14.01,2013-04-28 00:23:00,
2013-04-27 19:24:00,63.5,16.5,29.71,SSW,202,0.0,0.0,16,0.00,,,1.58,VWS V14.01,2013-04-28 00:24:00,
2013-04-27 19:25:00,63.3,16.4,29.71,SSW,202,0.0,0.0,16,0.00,,,1.58,VWS V14.01,2013-04-28 00:25:00,
2013-04-27 19:26:00,63.3,16.4,29.71,SSW,202,0.0,0.0,16,0.00,,,1.58,VWS V14.01,2013-04-28 00:26:00,
2013-04-27 19:27:00,63.1,16.2,29.71,South,180,4.7,4.7,16,0.00,,,1.58,VWS V14.01,2013-04-28 00:27:00,
2013-04-27 19:28:00,63.3,16.4,29.71,SSW,202,3.4,3.4,16,0.00,,,1.58,VWS V14.01,2013-04-28 00:28:00,
2013-04-27 19:29:00,63.1,16.2,29.71,South,180,2.7,2.7,16,0.00,,,1.58,VWS V14.01,2013-04-28 00:29:00,
2013-04-27 19:30:00,63.1,16.2,29.71,South,180,0.0,1.3,16,0.00,,,1.58,VWS V14.01,2013-04-28 00:30:00,
2013-04-27 19:31:00,63.0,16.1,29.71,South,180,0.0,1.1,16,0.00,,,1.58,VWS V14.01,2013-04-28 00:31:00,
2013-04-27 19:32:00,62.8,15.9,29.71,South,180,0.0,1.1,16,0.00,,,1.58,VWS V14.01,2013-04-28 00:32:00,
2013-04-27 19:33:00,62.8,15.9,29.71,South,180,0.0,0.0,16,0.00,,,1.58,VWS V14.01,2013-04-28 00:33:00,
2013-04-27 19:34:00,62.6,15.8,29.71,South,180,0.0,0.0,16,0.00,,,1.58,VWS V14.01,2013-04-28 00:34:00,
2013-04-27 19:35:00,62.4,15.7,29.71,South,180,2.7,2.7,16,0.00,,,1.58,VWS V14.01,2013-04-28 00:35:00,
2013-04-27 19:36:00,62.2,15.5,29.71,South,180,0.0,0.9,16,0.00,,,1.58,VWS V14.01,2013-04-28 00:36:00,
2013-04-27 19:37:00,62.2,15.5,29.71,South,180,0.0,0.9,16,0.00,,,1.58,VWS V14.01,2013-04-28 00:37:00,
2013-04-27 19:38:00,62.1,15.4,29.71,South,180,0.0,0.0,16,0.00,,,1.58,VWS V14.01,2013-04-28 00:38:00,
2013-04-27 19:39:00,61.7,15.1,29.71,South,180,0.0,0.0,16,0.00,,,1.58,VWS V14.01,2013-04-28 00:39:00,
2013-04-27 19:40:00,61.7,15.1,29.71,South,180,0.0,0.0,16,0.00,,,1.58,VWS V14.01,2013-04-28 00:40:00,
2013-04-27 19:41:00,61.5,14.9,29.74,South,180,0.0,0.0,16,0.00,,,1.58,VWS V14.01,2013-04-28 00:41:00,
2013-04-27 19:42:00,61.5,14.9,29.74,South,180,0.0,0.0,16,0.00,,,1.58,VWS V14.01,2013-04-28 00:42:00,
2013-04-27 19:43:00,61.3,14.8,29.74,South,180,0.0,0.0,16,0.00,,,1.58,VWS V14.01,2013-04-28 00:43:00,
2013-04-27 19:44:00,61.3,14.8,29.74,South,180,0.0,0.0,16,0.00,,,1.58,VWS V14.01,2013-04-28 00:44:00,
2013-04-27 19:45:00,61.3,14.8,29.74,South,180,0.0,0.0,16,0.00,,,1.58,VWS V14.01,2013-04-28 00:45:00,
2013-04-27 19:46:00,61.0,14.5,29.74,South,180,0.0,0.0,16,0.00,,,1.58,VWS V14.01,2013-04-28 00:46:00,
2013-04-27 19:47:00,60.8,14.4,29.74,South,180,0.0,0.0,16,0.00,,,1.58,VWS V14.01,2013-04-28 00:47:00,
2013-04-27 19:48:00,60.6,15.6,29.74,South,180,0.0,0.0,17,0.00,,,1.58,VWS V14.01,2013-04-28 00:48:00,
2013-04-27 19:49:00,60.6,15.6,29.74,South,180,0.0,0.0,17,0.00,,,1.58,VWS V14.01,2013-04-28 00:49:00,
2013-04-27 19:50:00,60.6,15.6,29.74,South,180,0.0,0.0,17,0.00,,,1.58,VWS V14.01,2013-04-28 00:50:00,
2013-04-27 19:51:00,60.6,15.6,29.74,South,180,0.0,0.0,17,0.00,,,1.58,VWS V14.01,2013-04-28 00:51:00,
2013-04-27 19:52:00,60.3,15.3,29.74,South,180,0.0,0.0,17,0.00,,,1.58,VWS V14.01,2013-04-28 00:52:00,
2013-04-27 19:53:00,60.1,15.1,29.74,South,180,0.0,0.0,17,0.00,,,1.58,VWS V14.01,2013-04-28 00:53:00,
2013-04-27 19:54:00,60.1,15.1,29.74,South,180,0.0,0.0,17,0.00,,,1.58,VWS V14.01,2013-04-28 00:54:00,
2013-04-27 19:55:00,59.9,15.0,29.74,South,180,0.0,0.0,17,0.00,,,1.58,VWS V14.01,2013-04-28 00:55:00,
2013-04-27 19:56:00,59.9,15.0,29.71,South,180,0.0,0.0,17,0.00,,,1.58,VWS V14.01,2013-04-28 00:56:00,
2013-04-27 19:57:00,59.7,14.9,29.71,South,180,0.0,0.0,17,0.00,,,1.58,VWS V14.01,2013-04-28 00:57:00,
2013-04-27 19:58:00,59.7,14.9,29.71,South,180,0.0,0.0,17,0.00,,,1.58,VWS V14.01,2013-04-28 00:58:00,
2013-04-27 19:59:00,59.5,14.7,29.71,South,180,0.0,0.0,17,0.00,,,1.58,VWS V14.01,2013-04-28 00:59:00,
2013-04-27 20:00:00,59.4,14.6,29.71,South,180,0.0,0.0,17,0.00,,,1.58,VWS V14.01,2013-04-28 01:00:00,
2013-04-27 20:01:00,59.4,14.6,29.71,South,180,0.0,0.0,17,0.00,,,1.58,VWS V14.01,2013-04-28 01:01:00,
2013-04-27 20:02:00,59.2,14.4,29.71,South,180,0.0,0.0,17,0.00,,,1.58,VWS V14.01,2013-04-28 01:02:00,
2013-04-27 20:03:00,59.2,14.4,29.71,South,180,0.0,0.0,17,0.00,,,1.58,VWS V14.01,2013-04-28 01:03:00,
2013-04-27 20:04:00,59.0,14.3,29.71,SSW,202,0.0,0.0,17,0.00,,,1.58,VWS V14.01,2013-04-28 01:04:00,
2013-04-27 20:05:00,59.0,14.3,29.71,SSW,202,0.0,0.0,17,0.00,,,1.58,VWS V14.01,2013-04-28 01:05:00,
2013-04-27 20:06:00,59.0,14.3,29.71,SSW,202,0.0,0.0,17,0.00,,,1.58,VWS V14.01,2013-04-28 01:06:00,
2013-04-27 20:07:00,59.0,14.3,29.71,SSE,158,0.0,0.0,17,0.00,,,1.58,VWS V14.01,2013-04-28 01:07:00,
2013-04-27 20:08:00,59.0,14.3,29.71,SSE,158,0.0,0.0,17,0.00,,,1.58,VWS V14.01,2013-04-28 01:08:00,
2013-04-27 20:09:00,59.0,14.3,29.71,SSE,158,0.0,0.0,17,0.00,,,1.58,VWS V14.01,2013-04-28 01:09:00,
2013-04-27 20:10:00,59.0,14.3,29.71,SSE,158,0.0,0.0,17,0.00,,,1.58,VWS V14.01,2013-04-28 01:10:00,
2013-04-27 20:11:00,59.0,14.3,29.71,SSW,202,0.0,0.0,17,0.00,,,1.58,VWS V14.01,2013-04-28 01:11:00,
2013-04-27 20:12:00,59.0,14.3,29.71,SSW,202,0.0,0.0,17,0.00,,,1.58,VWS V14.01,2013-04-28 01:12:00,
2013-04-27 20:13:00,59.0,14.3,29.71,SSE,158,0.0,0.0,17,0.00,,,1.58,VWS V14.01,2013-04-28 01:13:00,
2013-04-27 20:14:00,59.0,14.3,29.71,SSW,202,0.0,0.0,17,0.00,,,1.58,VWS V14.01,2013-04-28 01:14:00,
2013-04-27 20:15:00,59.0,14.3,29.71,SSW,202,0.0,0.0,17,0.00,,,1.58,VWS V14.01,2013-04-28 01:15:00,
2013-04-27 20:16:00,59.0,14.3,29.71,SSW,202,0.0,0.0,17,0.00,,,1.58,VWS V14.01,2013-04-28 01:16:00,
2013-04-27 20:17:00,58.8,14.1,29.71,SSW,202,0.0,0.0,17,0.00,,,1.58,VWS V14.01,2013-04-28 01:17:00,
2013-04-27 20:18:00,58.8,14.1,29.71,SSW,202,0.0,0.0,17,0.00,,,1.58,VWS V14.01,2013-04-28 01:18:00,
2013-04-27 20:19:00,58.6,14.0,29.71,SSW,202,0.0,0.0,17,0.00,,,1.58,VWS V14.01,2013-04-28 01:19:00,
2013-04-27 20:20:00,58.6,14.0,29.71,SSW,202,0.0,0.0,17,0.00,,,1.58,VWS V14.01,2013-04-28 01:20:00,
2013-04-27 20:21:00,58.6,14.0,29.71,SSW,202,0.0,0.0,17,0.00,,,1.58,VWS V14.01,2013-04-28 01:21:00,
2013-04-27 20:22:00,58.6,14.0,29.71,SSW,202,0.0,0.0,17,0.00,,,0.00,VWS V14.01,2013-04-28 01:22:00,
2013-04-27 20:23:00,58.6,14.0,29.71,SSW,202,0.0,0.0,17,0.00,,,1.58,VWS V14.01,2013-04-28 01:23:00,
2013-04-27 20:24:00,58.6,14.0,29.71,SSW,202,0.0,0.0,17,0.00,,,1.58,VWS V14.01,2013-04-28 01:24:00,
2013-04-27 20:25:00,58.5,13.8,29.71,SSW,202,0.0,0.0,17,0.00,,,1.58,VWS V14.01,2013-04-28 01:25:00,
2013-04-27 20:26:00,58.5,13.8,29.71,SSW,202,0.0,0.0,17,0.00,,,1.58,VWS V14.01,2013-04-28 01:26:00,
2013-04-27 20:27:00,58.6,14.0,29.71,SSW,202,0.0,0.0,17,0.00,,,1.58,VWS V14.01,2013-04-28 01:27:00,
2013-04-27 20:28:00,58.5,13.8,29.71,SSW,202,0.0,0.0,17,0.00,,,1.58,VWS V14.01,2013-04-28 01:28:00,
2013-04-27 20:29:00,58.5,13.8,29.71,SSW,202,0.0,0.0,17,0.00,,,1.58,VWS V14.01,2013-04-28 01:29:00,
2013-04-27 20:30:00,58.6,14.0,29.71,SSW,202,0.0,0.0,17,0.00,,,1.58,VWS V14.01,2013-04-28 01:30:00,
2013-04-27 20:31:00,58.5,13.8,29.71,SSW,202,0.0,0.0,17,0.00,,,1.58,VWS V14.01,2013-04-28 01:31:00,
2013-04-27 20:32:00,58.6,14.0,29.71,SSW,202,0.0,0.0,17,0.00,,,1.58,VWS V14.01,2013-04-28 01:32:00,
2013-04-27 20:33:00,58.6,14.0,29.71,SSW,202,0.0,0.0,17,0.00,,,1.58,VWS V14.01,2013-04-28 01:33:00,
2013-04-27 20:34:00,58.8,14.1,29.71,South,180,3.4,3.4,17,0.00,,,1.58,VWS V14.01,2013-04-28 01:34:00,
2013-04-27 20:35:00,58.8,14.1,29.71,SSW,202,3.4,3.4,17,0.00,,,1.58,VWS V14.01,2013-04-28 01:35:00,
2013-04-27 20:36:00,58.8,14.1,29.71,SSW,202,4.0,4.0,17,0.00,,,1.58,VWS V14.01,2013-04-28 01:36:00,
2013-04-27 20:37:00,58.8,14.1,29.71,South,180,4.0,4.0,17,0.00,,,1.58,VWS V14.01,2013-04-28 01:37:00,
2013-04-27 20:38:00,58.8,14.1,29.71,SSW,202,2.7,2.7,17,0.00,,,1.58,VWS V14.01,2013-04-28 01:38:00,
2013-04-27 20:39:00,58.8,14.1,29.71,South,180,2.7,2.7,17,0.00,,,1.58,VWS V14.01,2013-04-28 01:39:00,
2013-04-27 20:40:00,58.6,14.0,29.71,SSW,202,4.0,4.0,17,0.00,,,1.58,VWS V14.01,2013-04-28 01:40:00,
2013-04-27 20:41:00,58.8,14.1,29.71,SSW,202,4.0,4.0,17,0.00,,,1.58,VWS V14.01,2013-04-28 01:41:00,
2013-04-27 20:42:00,58.8,14.1,29.71,SSW,202,4.0,4.0,17,0.00,,,1.58,VWS V14.01,2013-04-28 01:42:00,
2013-04-27 20:43:00,58.8,14.1,29.71,SSW,202,3.4,3.4,17,0.00,,,1.58,VWS V14.01,2013-04-28 01:43:00,
2013-04-27 20:44:00,58.8,14.1,29.71,SSW,202,3.4,3.4,17,0.00,,,1.58,VWS V14.01,2013-04-28 01:44:00,
2013-04-27 20:45:00,58.8,14.1,29.71,SSW,202,3.4,3.4,17,0.00,,,1.58,VWS V14.01,2013-04-28 01:45:00,
2013-04-27 20:46:00,58.8,14.1,29.71,SSW,202,4.7,4.7,17,0.00,,,1.58,VWS V14.01,2013-04-28 01:46:00,
2013-04-27 20:47:00,58.6,14.0,29.71,SSW,202,2.7,2.7,17,0.00,,,1.58,VWS V14.01,2013-04-28 01:47:00,
2013-04-27 20:48:00,58.6,14.0,29.71,SSW,202,0.0,1.3,17,0.00,,,1.58,VWS V14.01,2013-04-28 01:48:00,
2013-04-27 20:49:00,58.6,14.0,29.71,SSW,202,4.0,4.0,17,0.00,,,1.58,VWS V14.01,2013-04-28 01:49:00,
2013-04-27 20:50:00,58.5,13.8,29.71,South,180,0.0,1.3,17,0.00,,,1.58,VWS V14.01,2013-04-28 01:50:00,
2013-04-27 20:51:00,58.5,13.8,29.71,South,180,0.0,1.1,17,0.00,,,1.58,VWS V14.01,2013-04-28 01:51:00,
2013-04-27 20:52:00,58.5,13.8,29.71,SSW,202,3.4,3.4,17,0.00,,,1.58,VWS V14.01,2013-04-28 01:52:00,
2013-04-27 20:53:00,58.5,13.8,29.71,SSW,202,0.0,1.3,17,0.00,,,1.58,VWS V14.01,2013-04-28 01:53:00,
2013-04-27 20:54:00,58.3,13.7,29.71,SSW,202,0.0,0.9,17,0.00,,,1.58,VWS V14.01,2013-04-28 01:54:00,
2013-04-27 20:55:00,58.5,13.8,29.71,SSW,202,0.0,0.9,17,0.00,,,1.58,VWS V14.01,2013-04-28 01:55:00,
2013-04-27 20:56:00,58.5,13.8,29.71,SSW,202,3.4,3.4,17,0.00,,,1.58,VWS V14.01,2013-04-28 01:56:00,
2013-04-27 20:57:00,58.5,13.8,29.71,SSW,202,3.4,3.4,17,0.00,,,0.00,VWS V14.01,2013-04-28 01:57:00,
2013-04-27 20:58:00,58.5,13.8,29.71,SSW,202,4.0,4.0,17,0.00,,,1.58,VWS V14.01,2013-04-28 01:58:00,
2013-04-27 20:59:00,58.5,13.8,29.71,SSW,202,3.4,3.4,17,0.00,,,1.58,VWS V14.01,2013-04-28 01:59:00,
2013-04-27 21:00:00,58.5,13.8,29.71,SSW,202,0.0,1.3,17,0.00,,,1.58,VWS V14.01,2013-04-28 02:00:00,
2013-04-27 21:01:00,58.5,13.8,29.71,SSW,202,4.7,4.7,17,0.00,,,1.58,VWS V14.01,2013-04-28 02:01:00,
2013-04-27 21:02:00,58.5,13.8,29.71,SSW,202,3.4,3.4,17,0.00,,,1.58,VWS V14.01,2013-04-28 02:02:00,
2013-04-27 21:03:00,58.3,13.7,29.71,SSW,202,4.0,4.0,17,0.00,,,1.58,VWS V14.01,2013-04-28 02:03:00,
2013-04-27 21:04:00,58.3,13.7,29.71,SSW,202,4.0,4.0,17,0.00,,,1.58,VWS V14.01,2013-04-28 02:04:00,
2013-04-27 21:05:00,58.3,13.7,29.71,SSW,202,4.7,4.7,17,0.00,,,1.58,VWS V14.01,2013-04-28 02:05:00,
2013-04-27 21:06:00,58.3,13.7,29.71,South,180,3.4,3.4,17,0.00,,,1.58,VWS V14.01,2013-04-28 02:06:00,
2013-04-27 21:07:00,58.3,13.7,29.71,SSW,202,4.7,4.7,17,0.00,,,0.00,VWS V14.01,2013-04-28 02:07:00,
2013-04-27 21:08:00,58.3,13.7,29.71,South,180,6.0,6.0,17,0.00,,,1.58,VWS V14.01,2013-04-28 02:08:00,
2013-04-27 21:09:00,58.5,13.8,29.71,SSW,202,4.7,4.7,17,0.00,,,1.58,VWS V14.01,2013-04-28 02:09:00,
2013-04-27 21:10:00,58.5,13.8,29.71,South,180,4.7,4.7,17,0.00,,,1.58,VWS V14.01,2013-04-28 02:10:00,
2013-04-27 21:11:00,58.5,13.8,29.71,South,180,6.0,6.0,17,0.00,,,1.58,VWS V14.01,2013-04-28 02:11:00,
2013-04-27 21:12:00,58.5,16.4,29.71,South,180,6.0,6.0,19,0.00,,,1.58,VWS V14.01,2013-04-28 02:12:00,
2013-04-27 21:13:00,58.5,16.4,29.71,South,180,7.4,7.4,19,0.00,,,1.58,VWS V14.01,2013-04-28 02:13:00,
2013-04-27 21:14:00,58.5,13.8,29.71,SSW,202,4.7,4.7,17,0.00,,,1.58,VWS V14.01,2013-04-28 02:14:00,
2013-04-27 21:15:00,58.3,16.2,29.71,SSW,202,4.7,4.7,19,0.00,,,1.58,VWS V14.01,2013-04-28 02:15:00,
2013-04-27 21:16:00,58.5,13.8,29.71,SSW,202,4.7,4.7,17,0.00,,,1.58,VWS V14.01,2013-04-28 02:16:00,
2013-04-27 21:17:00,58.5,16.4,29.71,SSW,202,6.7,6.7,19,0.00,,,1.58,VWS V14.01,2013-04-28 02:17:00,
2013-04-27 21:18:00,58.5,16.4,29.71,South,180,4.0,4.0,19,0.00,,,1.58,VWS V14.01,2013-04-28 02:18:00,
2013-04-27 21:19:00,58.6,16.5,29.71,SSW,202,4.7,4.7,19,0.00,,,1.58,VWS V14.01,2013-04-28 02:19:00,
2013-04-27 21:20:00,58.5,16.4,29.71,SSW,202,4.0,4.0,19,0.00,,,1.58,VWS V14.01,2013-04-28 02:20:00,
2013-04-27 21:21:00,58.6,16.5,29.71,South,180,6.0,6.0,19,0.00,,,1.58,VWS V14.01,2013-04-28 02:21:00,
2013-04-27 21:22:00,58.6,16.5,29.71,SSW,202,4.7,4.7,19,0.00,,,1.58,VWS V14.01,2013-04-28 02:22:00,
2013-04-27 21:23:00,58.6,16.5,29.71,SSW,202,6.0,6.0,19,0.00,,,1.58,VWS V14.01,2013-04-28 02:23:00,
2013-04-27 21:24:00,58.6,16.5,29.71,SSW,202,6.0,6.0,19,0.00,,,1.58,VWS V14.01,2013-04-28 02:24:00,
2013-04-27 21:25:00,58.6,16.5,29.71,South,180,4.7,4.7,19,0.00,,,1.58,VWS V14.01,2013-04-28 02:25:00,
2013-04-27 21:26:00,58.5,16.4,29.71,South,180,4.7,4.7,19,0.00,,,1.58,VWS V14.01,2013-04-28 02:26:00,
2013-04-27 21:27:00,58.5,16.4,29.71,South,180,7.4,7.4,19,0.00,,,1.58,VWS V14.01,2013-04-28 02:27:00,
2013-04-27 21:28:00,58.5,16.4,29.71,South,180,8.1,8.1,19,0.00,,,1.58,VWS V14.01,2013-04-28 02:28:00,
2013-04-27 21:29:00,58.5,16.4,29.71,South,180,4.7,4.7,19,0.00,,,1.58,VWS V14.01,2013-04-28 02:29:00,
2013-04-27 21:30:00,58.5,16.4,29.71,SSW,202,4.0,4.0,19,0.00,,,1.58,VWS V14.01,2013-04-28 02:30:00,
2013-04-27 21:31:00,58.3,16.2,29.71,South,180,4.7,4.7,19,0.00,,,1.58,VWS V14.01,2013-04-28 02:31:00,
2013-04-27 21:32:00,58.1,16.1,29.71,South,180,4.0,4.0,19,0.00,,,1.58,VWS V14.01,2013-04-28 02:32:00,
2013-04-27 21:33:00,58.1,16.1,29.71,South,180,4.7,4.7,19,0.00,,,1.58,VWS V14.01,2013-04-28 02:33:00,
2013-04-27 21:34:00,57.9,15.9,29.71,South,180,4.0,4.0,19,0.00,,,1.58,VWS V14.01,2013-04-28 02:34:00,
2013-04-27 21:35:00,57.7,15.8,29.71,South,180,4.0,4.0,19,0.00,,,1.58,VWS V14.01,2013-04-28 02:35:00,
2013-04-27 21:36:00,57.7,15.8,29.71,South,180,6.0,6.0,19,0.00,,,1.58,VWS V14.01,2013-04-28 02:36:00,
2013-04-27 21:37:00,57.7,15.8,29.71,SSW,202,4.7,4.7,19,0.00,,,1.58,VWS V14.01,2013-04-28 02:37:00,
2013-04-27 21:38:00,57.7,15.8,29.71,SSW,202,4.7,4.7,19,0.00,,,1.58,VWS V14.01,2013-04-28 02:38:00,
2013-04-27 21:39:00,57.7,15.8,29.71,South,180,4.7,4.7,19,0.00,,,1.58,VWS V14.01,2013-04-28 02:39:00,
2013-04-27 21:40:00,57.7,15.8,29.71,SSW,202,6.0,6.0,19,0.00,,,1.58,VWS V14.01,2013-04-28 02:40:00,
2013-04-27 21:41:00,57.7,15.8,29.68,SSW,202,4.0,4.0,19,0.00,,,1.58,VWS V14.01,2013-04-28 02:41:00,
2013-04-27 21:42:00,57.7,15.8,29.68,South,180,4.0,4.0,19,0.00,,,1.58,VWS V14.01,2013-04-28 02:42:00,
2013-04-27 21:43:00,57.9,15.9,29.68,SSE,158,7.4,7.4,19,0.00,,,1.58,VWS V14.01,2013-04-28 02:43:00,
2013-04-27 21:44:00,57.7,15.8,29.68,SSW,202,0.0,2.7,19,0.00,,,1.58,VWS V14.01,2013-04-28 02:44:00,
2013-04-27 21:45:00,57.7,15.8,29.68,South,180,3.4,3.4,19,0.00,,,1.58,VWS V14.01,2013-04-28 02:45:00,
2013-04-27 21:46:00,57.9,15.9,29.68,South,180,3.4,3.4,19,0.00,,,1.58,VWS V14.01,2013-04-28 02:46:00,
2013-04-27 21:47:00,57.9,15.9,29.68,South,180,4.0,4.0,19,0.00,,,1.58,VWS V14.01,2013-04-28 02:47:00,
2013-04-27 21:48:00,57.7,15.8,29.68,SSW,202,0.0,1.3,19,0.00,,,1.58,VWS V14.01,2013-04-28 02:48:00,
2013-04-27 21:49:00,57.7,15.8,29.68,South,180,3.4,3.4,19,0.00,,,1.58,VWS V14.01,2013-04-28 02:49:00,
2013-04-27 21:50:00,57.7,15.8,29.68,South,180,0.0,1.3,19,0.00,,,1.58,VWS V14.01,2013-04-28 02:50:00,
2013-04-27 21:51:00,57.7,15.8,29.68,SSW,202,4.0,4.0,19,0.00,,,1.58,VWS V14.01,2013-04-28 02:51:00,
2013-04-27 21:52:00,57.7,15.8,29.68,South,180,4.0,4.0,19,0.00,,,1.58,VWS V14.01,2013-04-28 02:52:00,
2013-04-27 21:53:00,57.7,15.8,29.68,South,180,2.7,2.7,19,0.00,,,1.58,VWS V14.01,2013-04-28 02:53:00,
2013-04-27 21:54:00,57.7,15.8,29.68,South,180,4.7,4.7,19,0.00,,,1.58,VWS V14.01,2013-04-28 02:54:00,
2013-04-27 21:55:00,57.9,15.9,29.68,SE,135,7.4,7.4,19,0.00,,,1.58,VWS V14.01,2013-04-28 02:55:00,
2013-04-27 21:56:00,57.9,15.9,29.71,South,180,3.4,3.4,19,0.00,,,1.58,VWS V14.01,2013-04-28 02:56:00,
2013-04-27 21:57:00,57.9,15.9,29.71,SSW,202,4.7,4.7,19,0.00,,,1.58,VWS V14.01,2013-04-28 02:57:00,
2013-04-27 21:58:00,57.9,15.9,29.71,SSE,158,3.4,3.4,19,0.00,,,1.58,VWS V14.01,2013-04-28 02:58:00,
2013-04-27 21:59:00,57.9,15.9,29.71,South,180,6.0,6.0,19,0.00,,,1.58,VWS V14.01,2013-04-28 02:59:00,
2013-04-27 22:00:00,57.9,15.9,29.71,South,180,2.7,2.7,19,0.00,,,1.58,VWS V14.01,2013-04-28 03:00:00,
2013-04-27 22:01:00,57.9,15.9,29.71,SSE,158,3.4,3.4,19,0.00,,,1.58,VWS V14.01,2013-04-28 03:01:00,
2013-04-27 22:02:00,57.9,15.9,29.71,South,180,0.0,2.0,19,0.00,,,1.58,VWS V14.01,2013-04-28 03:02:00,
2013-04-27 22:03:00,57.7,15.8,29.71,SSE,158,4.0,4.0,19,0.00,,,1.58,VWS V14.01,2013-04-28 03:03:00,
2013-04-27 22:04:00,57.9,15.9,29.71,SSE,158,8.7,8.7,19,0.00,,,1.58,VWS V14.01,2013-04-28 03:04:00,
2013-04-27 22:05:00,57.9,15.9,29.71,SW,225,7.4,7.4,19,0.00,,,1.58,VWS V14.01,2013-04-28 03:05:00,
2013-04-27 22:06:00,57.9,15.9,29.71,SSW,202,6.7,6.7,19,0.00,,,1.58,VWS V14.01,2013-04-28 03:06:00,
2013-04-27 22:07:00,57.9,15.9,29.71,SSE,158,4.7,4.7,19,0.00,,,1.58,VWS V14.01,2013-04-28 03:07:00,
2013-04-27 22:08:00,57.9,15.9,29.71,SSE,158,6.7,6.7,19,0.00,,,1.58,VWS V14.01,2013-04-28 03:08:00,
2013-04-27 22:09:00,57.9,15.9,29.71,SSW,202,4.0,4.0,19,0.00,,,1.58,VWS V14.01,2013-04-28 03:09:00,
2013-04-27 22:10:00,57.9,15.9,29.71,South,180,14.8,14.8,19,0.00,,,1.58,VWS V14.01,2013-04-28 03:10:00,
2013-04-27 22:11:00,58.1,16.1,29.71,SSE,158,8.7,8.7,19,0.00,,,1.58,VWS V14.01,2013-04-28 03:11:00,
2013-04-27 22:12:00,58.1,16.1,29.71,SSE,158,6.0,6.0,19,0.00,,,1.58,VWS V14.01,2013-04-28 03:12:00,
2013-04-27 22:13:00,58.1,16.1,29.71,SSE,158,8.1,8.1,19,0.00,,,1.58,VWS V14.01,2013-04-28 03:13:00,
2013-04-27 22:14:00,58.1,16.1,29.71,South,180,4.0,4.0,19,0.00,,,1.58,VWS V14.01,2013-04-28 03:14:00,
2013-04-27 22:15:00,58.1,16.1,29.71,South,180,6.0,6.0,19,0.00,,,1.58,VWS V14.01,2013-04-28 03:15:00,
2013-04-27 22:16:00,58.1,16.1,29.71,SSE,158,12.1,12.1,19,0.00,,,1.58,VWS V14.01,2013-04-28 03:16:00,
2013-04-27 22:17:00,58.1,16.1,29.71,SSE,158,12.1,12.1,19,0.00,,,1.58,VWS V14.01,2013-04-28 03:17:00,
2013-04-27 22:18:00,58.1,16.1,29.71,South,180,10.7,10.7,19,0.00,,,1.58,VWS V14.01,2013-04-28 03:18:00,
2013-04-27 22:19:00,58.1,16.1,29.71,South,180,10.7,10.7,19,0.00,,,1.58,VWS V14.01,2013-04-28 03:19:00,
2013-04-27 22:20:00,58.1,16.1,29.71,South,180,14.1,14.1,19,0.00,,,1.58,VWS V14.01,2013-04-28 03:20:00,
2013-04-27 22:21:00,58.1,16.1,29.71,South,180,8.7,8.7,19,0.00,,,1.58,VWS V14.01,2013-04-28 03:21:00,
2013-04-27 22:22:00,58.1,16.1,29.71,SE,135,11.4,11.4,19,0.00,,,1.58,VWS V14.01,2013-04-28 03:22:00,
2013-04-27 22:23:00,58.3,19.6,29.71,SSW,202,8.1,8.1,22,0.00,,,1.58,VWS V14.01,2013-04-28 03:23:00,
2013-04-27 22:24:00,58.3,19.6,29.71,SSW,202,8.1,8.1,22,0.00,,,1.58,VWS V14.01,2013-04-28 03:24:00,
2013-04-27 22:25:00,58.3,19.6,29.71,SSW,202,8.1,8.1,22,0.00,,,1.58,VWS V14.01,2013-04-28 03:25:00,
2013-04-27 22:26:00,58.3,19.6,29.68,SSW,202,8.1,8.1,22,0.00,,,1.58,VWS V14.01,2013-04-28 03:26:00,
2013-04-27 22:27:00,58.5,19.8,29.68,SSW,202,8.1,8.1,22,0.00,,,1.58,VWS V14.01,2013-04-28 03:27:00,
2013-04-27 22:28:00,58.5,19.8,29.68,SSW,202,8.1,8.1,22,0.00,,,1.58,VWS V14.01,2013-04-28 03:28:00,
2013-04-27 22:29:00,58.5,19.8,29.68,SSW,202,8.1,8.1,22,0.00,,,1.58,VWS V14.01,2013-04-28 03:29:00,
2013-04-27 22:30:00,58.3,19.6,29.68,SSW,202,8.1,8.1,22,0.00,,,1.58,VWS V14.01,2013-04-28 03:30:00,
2013-04-27 22:31:00,58.3,19.6,29.68,SSW,202,8.1,8.1,22,0.00,,,1.58,VWS V14.01,2013-04-28 03:31:00,
2013-04-27 22:32:00,58.3,19.6,29.68,SSW,202,8.1,8.1,22,0.00,,,1.58,VWS V14.01,2013-04-28 03:32:00,
2013-04-27 22:33:00,58.5,19.8,29.68,SSW,202,8.1,8.1,22,0.00,,,1.58,VWS V14.01,2013-04-28 03:33:00,
2013-04-27 22:34:00,58.5,21.8,29.68,SSW,202,8.1,8.1,24,0.00,,,1.58,VWS V14.01,2013-04-28 03:34:00,
2013-04-27 22:35:00,58.5,21.8,29.68,SSW,202,8.1,8.1,24,0.00,,,1.58,VWS V14.01,2013-04-28 03:35:00,
2013-04-27 22:36:00,58.5,21.8,29.68,SSW,202,8.1,8.1,24,0.00,,,1.58,VWS V14.01,2013-04-28 03:36:00,
2013-04-27 22:37:00,58.5,21.8,29.68,SSW,202,8.1,8.1,24,0.00,,,1.58,VWS V14.01,2013-04-28 03:37:00,
2013-04-27 22:38:00,58.5,21.8,29.68,SSW,202,8.1,8.1,24,0.00,,,1.58,VWS V14.01,2013-04-28 03:38:00,
2013-04-27 22:39:00,58.5,21.8,29.68,SSW,202,8.1,8.1,24,0.00,,,1.58,VWS V14.01,2013-04-28 03:39:00,
2013-04-27 22:40:00,58.5,22.8,29.68,SSW,202,11.4,11.4,25,0.00,,,1.58,VWS V14.01,2013-04-28 03:40:00,
2013-04-27 22:41:00,58.5,22.8,29.68,SSW,202,11.4,11.4,25,0.00,,,1.58,VWS V14.01,2013-04-28 03:41:00,
2013-04-27 22:42:00,58.5,22.8,29.68,SSW,202,11.4,11.4,25,0.00,,,1.58,VWS V14.01,2013-04-28 03:42:00,
2013-04-27 22:43:00,58.5,22.8,29.68,SSW,202,11.4,11.4,25,0.00,,,1.58,VWS V14.01,2013-04-28 03:43:00,
2013-04-27 22:44:00,58.3,22.6,29.68,South,180,8.7,8.7,25,0.00,,,1.58,VWS V14.01,2013-04-28 03:44:00,
2013-04-27 22:45:00,58.3,22.6,29.68,South,180,8.7,8.7,25,0.00,,,1.58,VWS V14.01,2013-04-28 03:45:00,
2013-04-27 22:46:00,58.3,22.6,29.68,South,180,8.7,8.7,25,0.00,,,1.58,VWS V14.01,2013-04-28 03:46:00,
2013-04-27 22:47:00,58.3,22.6,29.68,SSW,202,11.4,11.4,25,0.00,,,1.58,VWS V14.01,2013-04-28 03:47:00,
2013-04-27 22:48:00,58.3,22.6,29.68,SSW,202,11.4,11.4,25,0.00,,,1.58,VWS V14.01,2013-04-28 03:48:00,
2013-04-27 22:49:00,58.3,23.6,29.68,SSW,202,11.4,11.4,26,0.00,,,1.58,VWS V14.01,2013-04-28 03:49:00,
2013-04-27 22:50:00,58.3,23.6,29.68,SSW,202,11.4,11.4,26,0.00,,,1.58,VWS V14.01,2013-04-28 03:50:00,
2013-04-27 22:51:00,58.3,23.6,29.68,SSW,202,10.7,10.7,26,0.00,,,1.58,VWS V14.01,2013-04-28 03:51:00,
2013-04-27 22:52:00,58.1,23.4,29.68,SSW,202,10.7,10.7,26,0.00,,,1.58,VWS V14.01,2013-04-28 03:52:00,
2013-04-27 22:53:00,58.3,23.6,29.68,SSW,202,9.4,9.4,26,0.00,,,1.58,VWS V14.01,2013-04-28 03:53:00,
2013-04-27 22:54:00,58.1,23.4,29.68,SSW,202,8.7,8.7,26,0.00,,,1.58,VWS V14.01,2013-04-28 03:54:00,
2013-04-27 22:55:00,58.1,23.4,29.68,SSW,202,8.7,8.7,26,0.00,,,1.58,VWS V14.01,2013-04-28 03:55:00,
2013-04-27 22:56:00,58.1,23.4,29.71,SSW,202,8.7,8.7,26,0.00,,,1.58,VWS V14.01,2013-04-28 03:56:00,
2013-04-27 22:57:00,58.1,23.4,29.71,SSW,202,8.7,8.7,26,0.00,,,1.58,VWS V14.01,2013-04-28 03:57:00,
2013-04-27 22:58:00,58.1,24.3,29.71,SSW,202,8.7,8.7,27,0.00,,,1.58,VWS V14.01,2013-04-28 03:58:00,
2013-04-27 22:59:00,58.1,24.3,29.71,SSW,202,11.4,11.4,27,0.00,,,1.58,VWS V14.01,2013-04-28 03:59:00,
2013-04-27 23:00:00,58.1,24.3,29.71,SSW,202,11.4,11.4,27,0.00,,,1.58,VWS V14.01,2013-04-28 04:00:00,
2013-04-27 23:01:00,58.1,24.3,29.71,SSW,202,9.4,9.4,27,0.00,,,1.58,VWS V14.01,2013-04-28 04:01:00,
2013-04-27 23:02:00,58.1,24.3,29.71,SSW,202,9.4,9.4,27,0.00,,,1.58,VWS V14.01,2013-04-28 04:02:00,
2013-04-27 23:03:00,58.1,25.2,29.71,SSW,202,9.4,9.4,28,0.00,,,1.58,VWS V14.01,2013-04-28 04:03:00,
2013-04-27 23:04:00,58.1,25.2,29.71,SSW,202,17.5,17.5,28,0.00,,,1.58,VWS V14.01,2013-04-28 04:04:00,
2013-04-27 23:05:00,58.1,25.2,29.71,South,180,10.1,10.1,28,0.00,,,1.58,VWS V14.01,2013-04-28 04:05:00,
2013-04-27 23:06:00,58.1,25.2,29.71,South,180,10.1,10.1,28,0.00,,,1.58,VWS V14.01,2013-04-28 04:06:00,
2013-04-27 23:07:00,58.1,25.2,29.71,SSW,202,8.1,8.1,28,0.00,,,1.58,VWS V14.01,2013-04-28 04:07:00,
2013-04-27 23:08:00,58.1,25.2,29.71,SSW,202,7.4,7.4,28,0.00,,,1.58,VWS V14.01,2013-04-28 04:08:00,
2013-04-27 23:09:00,58.1,26.0,29.71,SSW,202,7.4,7.4,29,0.00,,,1.58,VWS V14.01,2013-04-28 04:09:00,
2013-04-27 23:10:00,58.1,26.0,29.71,ESE,112,12.1,12.1,29,0.00,,,1.58,VWS V14.01,2013-04-28 04:10:00,
2013-04-27 23:11:00,58.1,26.0,29.68,SSW,202,9.4,9.4,29,0.00,,,1.58,VWS V14.01,2013-04-28 04:11:00,
2013-04-27 23:12:00,58.1,26.0,29.68,South,180,8.1,8.1,29,0.00,,,1.58,VWS V14.01,2013-04-28 04:12:00,
2013-04-27 23:13:00,57.9,26.7,29.68,South,180,8.1,8.1,30,0.00,,,1.58,VWS V14.01,2013-04-28 04:13:00,
2013-04-27 23:14:00,57.9,26.7,29.68,SW,225,8.7,8.7,30,0.00,,,1.58,VWS V14.01,2013-04-28 04:14:00,
2013-04-27 23:15:00,57.9,26.7,29.68,SW,225,8.7,8.7,30,0.00,,,1.58,VWS V14.01,2013-04-28 04:15:00,
2013-04-27 23:16:00,57.9,26.7,29.68,SSW,202,9.4,9.4,30,0.00,,,1.58,VWS V14.01,2013-04-28 04:16:00,
2013-04-27 23:17:00,57.9,26.7,29.68,SSW,202,11.4,11.4,30,0.00,,,1.58,VWS V14.01,2013-04-28 04:17:00,
2013-04-27 23:18:00,57.9,27.5,29.68,SSW,202,11.4,11.4,31,0.00,,,1.58,VWS V14.01,2013-04-28 04:18:00,
2013-04-27 23:19:00,57.9,27.5,29.68,SSW,202,11.4,11.4,31,0.00,,,1.58,VWS V14.01,2013-04-28 04:19:00,
2013-04-27 23:20:00,57.9,27.5,29.68,SSW,202,11.4,11.4,31,0.00,,,1.58,VWS V14.01,2013-04-28 04:20:00,
2013-04-27 23:21:00,57.9,27.5,29.68,SSW,202,11.4,11.4,31,0.00,,,1.58,VWS V14.01,2013-04-28 04:21:00,
2013-04-27 23:22:00,57.9,28.3,29.68,SSW,202,11.4,11.4,32,0.00,,,1.58,VWS V14.01,2013-04-28 04:22:00,
2013-04-27 23:23:00,57.9,28.3,29.68,SSW,202,11.4,11.4,32,0.00,,,1.58,VWS V14.01,2013-04-28 04:23:00,
2013-04-27 23:24:00,57.9,28.3,29.68,South,180,12.8,12.8,32,0.00,,,1.58,VWS V14.01,2013-04-28 04:24:00,
2013-04-27 23:25:00,57.9,28.3,29.68,South,180,12.8,12.8,32,0.00,,,1.58,VWS V14.01,2013-04-28 04:25:00,
2013-04-27 23:26:00,57.9,29.0,29.68,South,180,12.8,12.8,33,0.00,,,1.58,VWS V14.01,2013-04-28 04:26:00,
2013-04-27 23:27:00,57.9,29.0,29.68,South,180,12.8,12.8,33,0.00,,,1.58,VWS V14.01,2013-04-28 04:27:00,
2013-04-27 23:28:00,57.9,29.0,29.68,South,180,12.8,12.8,33,0.00,,,1.58,VWS V14.01,2013-04-28 04:28:00,
2013-04-27 23:29:00,57.9,29.0,29.68,South,180,7.4,7.4,33,0.00,,,1.58,VWS V14.01,2013-04-28 04:29:00,
2013-04-27 23:30:00,57.7,29.6,29.68,South,180,7.4,7.4,34,0.00,,,1.58,VWS V14.01,2013-04-28 04:30:00,
2013-04-27 23:31:00,57.7,28.9,29.68,SSW,202,16.1,16.1,33,0.00,,,1.58,VWS V14.01,2013-04-28 04:31:00,
2013-04-27 23:32:00,57.7,29.6,29.68,SSE,158,8.1,8.1,34,0.00,,,1.58,VWS V14.01,2013-04-28 04:32:00,
2013-04-27 23:33:00,57.7,29.6,29.68,SSE,158,8.1,8.1,34,0.00,,,1.58,VWS V14.01,2013-04-28 04:33:00,
2013-04-27 23:34:00,57.7,29.6,29.68,SSE,158,8.1,8.1,34,0.00,,,1.58,VWS V14.01,2013-04-28 04:34:00,
2013-04-27 23:35:00,57.7,30.3,29.68,SSE,158,8.1,8.1,35,0.00,,,1.58,VWS V14.01,2013-04-28 04:35:00,
2013-04-27 23:36:00,57.7,30.3,29.68,South,180,18.8,18.8,35,0.00,,,1.58,VWS V14.01,2013-04-28 04:36:00,
2013-04-27 23:37:00,57.7,30.3,29.68,SSW,202,12.8,12.8,35,0.00,,,1.58,VWS V14.01,2013-04-28 04:37:00,
2013-04-27 23:38:00,57.7,30.3,29.68,South,180,12.8,12.8,35,0.00,,,1.58,VWS V14.01,2013-04-28 04:38:00,
2013-04-27 23:39:00,57.7,30.3,29.68,South,180,12.8,12.8,35,0.00,,,1.58,VWS V14.01,2013-04-28 04:39:00,
2013-04-27 23:40:00,57.7,30.3,29.68,South,180,12.8,12.8,35,0.00,,,1.58,VWS V14.01,2013-04-28 04:40:00,
2013-04-27 23:41:00,57.7,30.3,29.68,South,180,12.8,12.8,35,0.00,,,1.58,VWS V14.01,2013-04-28 04:41:00,
2013-04-27 23:42:00,57.7,30.3,29.68,South,180,12.8,12.8,35,0.00,,,1.58,VWS V14.01,2013-04-28 04:42:00,
2013-04-27 23:43:00,57.7,30.3,29.68,SSW,202,12.8,12.8,35,0.00,,,1.58,VWS V14.01,2013-04-28 04:43:00,
2013-04-27 23:44:00,57.7,30.3,29.68,SSW,202,12.8,12.8,35,0.00,,,1.58,VWS V14.01,2013-04-28 04:44:00,
2013-04-27 23:45:00,57.7,30.3,29.68,SSW,202,12.8,12.8,35,0.00,,,1.58,VWS V14.01,2013-04-28 04:45:00,
2013-04-27 23:46:00,57.7,30.3,29.68,SSE,158,9.4,9.4,35,0.00,,,1.58,VWS V14.01,2013-04-28 04:46:00,
2013-04-27 23:47:00,57.7,30.3,29.68,SSE,158,9.4,9.4,35,0.00,,,1.58,VWS V14.01,2013-04-28 04:47:00,
2013-04-27 23:48:00,57.7,30.3,29.68,SSW,202,9.4,9.4,35,0.00,,,1.58,VWS V14.01,2013-04-28 04:48:00,
2013-04-27 23:49:00,57.7,30.3,29.68,South,180,14.1,14.1,35,0.00,,,1.58,VWS V14.01,2013-04-28 04:49:00,
2013-04-27 23:50:00,57.7,30.3,29.68,SSE,158,10.7,10.7,35,0.00,,,1.58,VWS V14.01,2013-04-28 04:50:00,
2013-04-27 23:51:00,57.7,30.3,29.68,SSE,158,10.7,10.7,35,0.00,,,1.58,VWS V14.01,2013-04-28 04:51:00,
2013-04-27 23:52:00,57.7,30.3,29.68,SSE,158,10.7,10.7,35,0.00,,,1.58,VWS V14.01,2013-04-28 04:52:00,
2013-04-27 23:53:00,57.7,30.3,29.68,SSE,158,10.7,10.7,35,0.00,,,1.58,VWS V14.01,2013-04-28 04:53:00,
2013-04-27 23:54:00,57.7,30.3,29.68,SSE,158,10.7,10.7,35,0.00,,,1.58,VWS V14.01,2013-04-28 04:54:00,
2013-04-27 23:55:00,57.6,30.1,29.68,SSE,158,10.7,10.7,35,0.00,,,1.58,VWS V14.01,2013-04-28 04:55:00,
2013-04-27 23:56:00,57.6,30.1,29.68,SSE,158,10.7,10.7,35,0.00,,,1.58,VWS V14.01,2013-04-28 04:56:00,
2013-04-27 23:57:00,57.7,30.3,29.68,SSE,158,10.7,10.7,35,0.00,,,1.58,VWS V14.01,2013-04-28 04:57:00,
2013-04-27 23:58:00,57.7,30.3,29.68,SSE,158,11.4,11.4,35,0.00,,,1.58,VWS V14.01,2013-04-28 04:58:00,
2013-04-27 23:59:00,57.7,30.3,29.68,SSW,202,16.1,16.1,35,0.00,,,1.58,VWS V14.01,2013-04-28 04:59:00,